[[{"header":{"parameterUnit":"m.s-1","parameterCategory":1,"la1":31.0,"la2":29.5877,"lo1":-88.7671,"lo2":-86.6584,"dy":0.0162,"dx":0.0185,"nx":115,"ny":88,"refTime":"2023-08-05T00:00:00:Z","depth":0,"parameterNumber":2,"parameterNumberName":"U-component_of_WINDS"},"data":[0.0,0.0,0.0,0.0,0.0,0.0,0.0,0.0,0.0,0.0,0.0,0.0,0.0,0.0,0.0,0.0,0.0,0.0,0.0,0.0,0.0,0.0,0.0,0.0,0.0,0.0,0.0,0.0,0.0,0.0,0.0,0.0,0.0,0.0,0.0,0.0,0.0,0.0,0.0,0.0,0.0,0.0,0.0,0.0,0.0,0.0,0.0,0.0,0.0,0.0,0.0,0.0,0.0,0.0,0.0,0.0,0.0,0.0,0.0,0.0,0.0,0.0,0.0,0.0,0.0,0.0,0.0,0.0,0.0,0.0,0.0,0.0,0.0,0.0,0.0,0.0,0.0,0.0,0.0,0.0,0.0,0.0,0.0,0.0,0.0,0.0,0.0,0.0,0.0,0.0,0.0,0.0,0.0,0.0,0.0,0.0,0.0,0.0,0.0,0.0,0.0,0.0,0.0,0.0,0.0,0.0,0.0,0.0,0.0,0.0,0.0,0.0,0.0,0.0,0.0,0.0,0.0,0.0,0.0,0.0,0.0,0.0,0.0,0.0,0.0,0.0,0.0,0.0,0.0,0.0,0.0,0.0,0.0,0.0,0.0,0.0,0.0,0.0,0.0,0.0,0.0,0.0,0.0,0.0,0.0,0.0,0.0,0.0,0.0,0.0,0.0,0.0,0.0,0.0,0.0,0.0,0.0,0.0,0.0,0.0,0.0,0.0,0.0,0.0,0.0,0.0,0.0,0.0,0.0,0.0,0.0,0.0,0.0,0.0,0.0,0.0,0.0,0.0,0.0,0.0,0.0,0.0,0.0,0.0,0.0,0.0,0.0,0.0,0.0,0.0,0.0,0.0,0.0,0.0,0.0,0.0,0.0,0.0,0.0,0.0,0.0,0.0,0.0,0.0,0.0,0.0,0.0,0.0,0.0,0.0,0.0,0.0,0.0,0.0,0.0,0.0,0.0,0.0,0.0,0.0,0.0,0.0,0.0,0.0,0.0,0.0,0.0,0.0,0.0,0.0,0.0,0.0,0.0,0.0,0.0,0.0,0.0,0.0,0.0,0.0,0.0,0.0,0.0,0.0,0.0,0.0,0.0,0.0,0.0,0.0,0.0,0.0,0.0,0.0,0.0,0.0,0.0,0.0,0.0,0.0,0.0,0.0,0.0,0.0,0.0,0.0,0.0,0.0,0.0,0.0,0.0,0.0,0.0,0.0,0.0,0.0,0.0,0.0,0.0,0.0,0.0,0.0,0.0,0.0,0.0,0.0,0.0,0.0,0.0,0.0,0.0,0.0,0.0,0.0,0.0,0.0,0.0,0.0,0.0,0.0,0.0,0.0,0.0,0.0,0.0,0.0,0.0,0.0,0.0,0.0,0.0,0.0,0.0,0.0,0.0,0.0,0.0,0.0,0.0,0.0,0.0,0.0,0.0,0.0,0.0,0.0,0.0,0.0,0.0,0.0,0.0,0.0,0.0,0.0,0.0,0.0,0.0,0.0,0.0,0.0,0.0,0.0,0.0,0.0,0.0,0.0,0.0,0.0,0.0,0.0,0.0,0.0,0.0,0.0,0.0,0.0,0.0,0.0,0.0,0.0,0.0,0.0,0.0,0.0,0.0,0.0,0.0,0.0,0.0,0.0,0.0,0.0,0.0,0.0,0.0,0.0,0.0,0.0,0.0,0.0,0.0,0.0,0.0,0.0,0.0,0.0,0.0,0.0,0.0,0.0,0.0,0.0,0.0,0.0,0.0,0.0,0.0,0.0,0.0,0.0,0.0,0.0,0.0,0.0,0.0,0.0,0.0,0.0,0.0,0.0,0.0,0.0,0.0,0.0,0.0,0.0,0.0,0.0,0.0,0.0,0.0,0.0,0.0,0.0,0.0,0.0,0.0,0.0,0.0,0.0,0.0,0.0,0.0,0.0,0.0,0.0,0.0,0.0,0.0,0.0,0.0,0.0,0.0,0.0,0.0,0.0,0.0,0.0,0.0,0.0,0.0,0.0,0.0,0.0,0.0,0.0,0.0,0.0,0.0,0.0,0.0,0.0,0.0,0.0,0.0,0.0,0.0,0.0,0.0,0.0,0.0,0.0,0.0,0.0,0.0,0.0,0.0,0.0,0.0,0.0,0.0,0.0,0.0,0.0,0.0,0.0,0.0,0.0,0.0,0.0,0.0,0.0,0.0,0.0,0.0,0.0,0.0,0.0,0.0,0.0,0.0,0.0,0.0,0.0,0.0,0.0,0.0,0.0,0.0,0.0,0.0,0.0,0.0,0.0,0.0,0.0,0.0,0.0,0.0,0.0,0.0,0.0,0.0,0.0,0.0,0.0,0.0,0.0,0.0,0.0,0.0,0.0,0.0,0.0,0.0,0.0,0.0,0.0,0.0,0.0,0.0,0.0,0.0,0.0,0.0,0.0,0.0,0.0,0.0,0.0,0.0,0.0,0.0,0.0,0.0,0.0,0.0,0.0,0.0,0.0,0.0,0.0,0.0,0.0,0.0,0.0,0.0,0.0,0.0,0.0,0.0,0.0,0.0,0.0,0.0,0.0,0.0,0.0,0.0,0.0,0.0,0.0,0.0,0.0,0.0,0.0,0.0,0.0,0.0,0.0,0.0,0.0,0.0,0.0,0.0,0.0,0.0,0.0,0.0,0.0,0.0,0.0,0.0,0.0,0.0,0.0,0.0,0.0,0.0,0.0,0.0,0.0,0.0,0.0,0.0,0.0,0.0,0.0,0.0,0.0,0.0,0.0,0.0,0.0,0.0,0.0,0.0,0.0,0.0,0.0,0.0,0.0,0.0,0.0,0.0,0.0,0.0,0.0,0.0,0.0,0.0,0.0,0.0,0.0,0.0,0.0,0.0,0.0,0.0,0.0,0.0,0.0,0.0,0.0,0.0,0.0,0.0,0.0,0.0,0.0,0.0,0.0,0.0,0.0,0.0,0.0,0.0,0.0,0.0,0.0,0.0,0.0,0.0,0.0,0.0,0.0,0.0,0.0,0.0,0.0,0.0,0.0,0.0,0.0,0.0,0.0,0.0,0.0,0.0,0.0,0.0,0.0,0.0,0.0,0.0,0.0,0.0,0.0,0.0,0.0,0.0,0.0,0.0,0.0,0.0,0.0,0.0,0.0,0.0,0.0,0.0,0.0,0.0,0.0,0.0,0.0,0.0,0.0,0.0,0.0,0.0,0.0,0.0,0.0,0.0,0.0,0.0,0.0,0.0,0.0,0.0,0.0,0.0,0.0,0.0,0.0,0.0,0.0,0.0,0.0,0.0,0.0,0.0,0.0,0.0,0.0,0.0,0.0,0.0,0.0,0.0,0.0,0.0,0.0,0.0,0.0,0.0,0.0,0.0,0.0,0.0,0.0,0.0,0.0,0.0,0.0,0.0,0.0,0.0,0.0,0.0,0.0,0.0,0.0,0.0,0.0,0.0,0.0,0.0,0.0,0.0,0.0,0.0,0.0,0.0,0.0,0.0,0.0,0.0,0.0,0.0,0.0,0.0,0.0,0.0,0.0,0.0,0.0,0.0,0.0,0.0,0.0,0.0,0.0,0.0,0.0,0.0,0.0,0.0,0.0,0.0,0.0,0.0,0.0,0.0,0.0,0.0,0.0,0.0,0.0,0.0,0.0,0.0,0.0,0.0,0.0,0.0,0.0,0.0,0.0,0.0,0.0,0.0,0.0,0.0,0.0,0.0,0.0,0.0,0.0,0.0,0.0,0.0,0.0,0.0,0.0,0.0,0.0,0.0,0.0,0.0,0.0,0.0,0.0,0.0,0.0,0.0,0.0,0.0,0.0,0.0,0.0,0.0,0.0,0.0,0.0,0.0,0.0,0.0,0.0,0.0,0.0,0.0,0.0,0.0,0.0,0.0,0.0,0.0,0.0,0.0,0.0,0.0,0.0,0.0,0.0,0.0,0.0,0.0,0.0,0.0,0.0,0.0,0.0,0.0,0.0,0.0,0.0,0.0,0.0,0.0,0.0,0.0,0.0,0.0,0.0,0.0,0.0,0.0,0.0,0.0,0.0,0.0,0.0,0.0,0.0,0.0,0.0,0.0,0.0,0.0,0.0,0.0,0.0,0.0,0.0,0.0,0.0,0.0,0.0,0.0,0.0,0.0,0.0,0.0,0.0,0.0,0.0,0.0,0.0,0.0,0.0,0.0,0.0,0.0,0.0,0.0,0.0,0.0,0.0,0.0,0.0,0.0,0.0,0.0,0.0,0.0,0.0,0.0,0.0,0.0,0.0,0.0,0.0,0.0,0.0,-0.8524,0.0,0.0,0.0,0.0,0.0,0.0,0.0,0.0,0.0,0.0,0.0,0.0,0.0,0.0,0.0,0.0,0.0,0.0,0.0,0.0,0.0,0.0,0.0,0.0,0.0,0.0,0.0,0.0,0.0,0.0,0.0,0.0,0.0,0.0,0.0,0.0,0.0,0.0,0.0,0.0,0.0,0.0,0.0,0.0,0.0,0.0,0.0,0.0,0.0,0.0,0.0,0.0,0.0,0.0,0.0,0.0,0.0,0.0,0.0,0.0,0.0,0.0,0.0,0.0,0.0,0.0,0.0,0.0,0.0,0.0,0.0,0.0,0.0,0.0,0.0,0.0,0.0,0.0,0.0,0.0,0.0,0.0,0.0,0.0,0.0,0.0,0.0,0.0,0.0,0.0,0.0,0.0,0.0,0.0,0.0,0.0,0.0,0.0,0.0,0.0,0.0,0.0,0.0,0.0,0.0,0.0,0.0,0.0,0.0,0.0,-0.8222,-0.8316,-0.8759,-0.9019,-0.9032,0.0,0.0,0.0,0.0,0.0,0.0,0.0,0.0,0.0,0.0,0.0,0.0,0.0,0.0,0.0,0.0,0.0,0.0,0.0,0.0,0.0,0.0,0.0,0.0,0.0,0.0,0.0,0.0,0.0,0.0,0.0,0.0,0.0,0.0,0.0,0.0,0.0,0.0,0.0,0.0,0.0,0.0,0.0,0.0,0.0,0.0,0.0,0.0,0.0,0.0,0.0,0.0,0.0,0.0,0.0,0.0,0.0,0.0,0.0,0.0,0.0,0.0,0.0,0.0,0.0,0.0,0.0,0.0,0.0,0.0,0.0,0.0,0.0,0.0,0.0,0.0,0.0,0.0,0.0,0.0,0.0,0.0,0.0,0.0,0.0,0.0,0.0,0.0,0.0,0.0,0.0,0.0,0.0,0.0,0.0,0.0,0.0,0.0,0.0,0.0,0.0,0.0,0.0,0.0,0.0,0.0,0.0,0.0,0.0,0.0,0.0,0.0,-0.9396,-0.9646,-0.95,0.0,0.0,0.0,0.0,0.0,0.0,0.0,0.0,0.0,0.0,0.0,0.0,0.0,0.0,0.0,0.0,0.0,0.0,0.0,0.0,0.0,0.0,0.0,0.0,0.0,0.0,0.0,0.0,0.0,0.0,0.0,0.0,0.0,0.0,0.0,0.0,0.0,0.0,0.0,0.0,0.0,0.0,0.0,0.0,0.0,0.0,0.0,0.0,0.0,0.0,0.0,0.0,0.0,0.0,0.0,0.0,0.0,0.0,0.0,0.0,0.0,0.0,0.0,0.0,0.0,0.0,0.0,0.0,0.0,0.0,0.0,0.0,0.0,0.0,0.0,0.0,0.0,0.0,0.0,0.0,0.0,0.0,0.0,0.0,0.0,0.0,0.0,0.0,0.0,0.0,0.0,0.0,0.0,0.0,0.0,0.0,0.0,0.0,0.0,0.0,0.0,0.0,0.0,0.0,0.0,0.0,0.0,0.0,0.0,0.0,-0.9359,-1.011,-1.0303,0.0,-0.9561,0.0,0.0,0.0,0.0,0.0,0.0,0.0,0.0,0.0,0.0,0.0,0.0,0.0,0.0,0.0,0.0,0.0,0.0,0.0,0.0,0.0,0.0,0.0,0.0,0.0,0.0,0.0,0.0,0.0,0.0,0.0,0.0,0.0,0.0,0.0,0.0,0.0,0.0,0.0,0.0,0.0,0.0,0.0,0.0,0.0,0.0,0.0,0.0,0.0,0.0,0.0,0.0,0.0,0.0,0.0,0.0,0.0,0.0,0.0,0.0,0.0,0.0,0.0,0.0,0.0,0.0,0.0,0.0,0.0,0.0,0.0,0.0,0.0,0.0,0.0,0.0,0.0,0.0,0.0,0.0,0.0,0.0,0.0,0.0,0.0,0.0,0.0,0.0,0.0,0.0,0.0,0.0,0.0,0.0,0.0,0.0,0.0,0.0,0.0,0.0,0.0,0.0,0.0,0.0,0.0,0.0,0.0,0.0,0.0,0.0,-1.0412,-1.0767,-1.1317,-1.1521,0.0,0.0,0.0,0.0,0.0,0.0,0.0,0.0,0.0,0.0,0.0,0.0,0.0,0.0,0.0,0.0,0.0,0.0,0.0,0.0,0.0,0.0,0.0,0.0,0.0,0.0,0.0,0.0,0.0,0.0,0.0,0.0,0.0,0.0,0.0,0.0,0.0,0.0,0.0,0.0,0.0,0.0,0.0,0.0,0.0,0.0,0.0,0.0,0.0,0.0,0.0,0.0,0.0,0.0,0.0,0.0,0.0,0.0,0.0,0.0,0.0,0.0,0.0,0.0,0.0,0.0,0.0,0.0,0.0,0.0,0.0,0.0,0.0,0.0,0.0,0.0,0.0,0.0,0.0,0.0,0.0,0.0,0.0,0.0,0.0,0.0,0.0,0.0,0.0,0.0,0.0,0.0,0.0,0.0,0.0,0.0,0.0,0.0,0.0,0.0,0.0,0.0,0.0,0.0,0.0,0.0,0.0,0.0,0.0,0.0,-1.0054,-1.0887,-1.1389,-1.2169,-1.2363,-1.1876,0.0,0.0,0.0,0.0,0.0,0.0,0.0,0.0,0.0,0.0,0.0,0.0,0.0,0.0,0.0,0.0,0.0,0.0,0.0,0.0,0.0,0.0,0.0,0.0,0.0,0.0,0.0,0.0,0.0,0.0,0.0,0.0,0.0,0.0,0.0,0.0,0.0,0.0,0.0,0.0,0.0,0.0,0.0,0.0,0.0,0.0,0.0,0.0,0.0,0.0,0.0,0.0,0.0,0.0,0.0,0.0,0.0,0.0,0.0,0.0,0.0,0.0,0.0,0.0,0.0,0.0,0.0,0.0,0.0,0.0,0.0,0.0,0.0,0.0,0.0,0.0,0.0,0.0,0.0,0.0,0.0,0.0,0.0,0.0,0.0,0.0,0.0,0.0,0.0,0.0,0.0,0.0,0.0,0.0,0.0,0.0,0.0,0.0,0.0,0.0,0.0,0.0,0.0,0.0,0.0,0.0,0.0,0.0,-0.9368,-0.9747,-1.0618,-1.2138,-1.2744,-1.2169,0.0,0.0,0.0,0.0,0.0,0.0,0.0,0.0,0.0,0.0,0.0,0.0,0.0,0.0,0.0,0.0,0.0,0.0,0.0,0.0,0.0,0.0,0.0,0.0,0.0,0.0,0.0,0.0,0.0,0.0,0.0,0.0,0.0,0.0,0.0,0.0,0.0,0.0,0.0,0.0,0.0,0.0,0.0,0.0,0.0,0.0,0.0,0.0,0.0,0.0,0.0,0.0,0.0,0.0,0.0,0.0,0.0,0.0,0.0,0.0,0.0,0.0,0.0,0.0,0.0,0.0,0.0,0.0,0.0,0.0,0.0,0.0,0.0,0.0,0.0,0.0,0.0,0.0,0.0,0.0,0.0,0.0,0.0,0.0,0.0,0.0,0.0,0.0,0.0,0.0,0.0,0.0,0.0,0.0,0.0,0.0,0.0,0.0,0.0,0.0,0.0,0.0,0.0,0.0,0.0,0.0,0.0,0.0,0.0,-0.9331,-1.0812,-1.232,-1.3709,-1.3124,-1.2283,0.0,0.0,0.0,0.0,0.0,0.0,0.0,0.0,0.0,0.0,0.0,0.0,0.0,0.0,0.0,0.0,0.0,0.0,0.0,0.0,0.0,0.0,0.0,0.0,0.0,0.0,0.0,0.0,0.0,0.0,0.0,0.0,0.0,0.0,0.0,0.0,0.0,0.0,0.0,0.0,0.0,0.0,0.0,0.0,0.0,0.0,0.0,0.0,0.0,0.0,0.0,0.0,0.0,0.0,0.0,0.0,0.0,0.0,0.0,0.0,0.0,0.0,0.0,0.0,0.0,0.0,0.0,0.0,0.0,0.0,0.0,0.0,0.0,0.0,0.0,0.0,0.0,0.0,0.0,0.0,0.0,0.0,0.0,0.0,0.0,0.0,0.0,0.0,0.0,0.0,0.0,0.0,0.0,0.0,0.0,0.0,0.0,0.0,0.0,0.0,0.0,0.0,0.0,0.0,0.0,0.0,0.0,0.0,0.0,-0.9716,0.0,-1.306,-1.3748,-1.3085,-1.2176,0.0,0.0,0.0,0.0,0.0,0.0,0.0,0.0,0.0,0.0,0.0,0.0,0.0,0.0,0.0,0.0,0.0,0.0,0.0,0.0,0.0,0.0,0.0,0.0,0.0,0.0,0.0,0.0,0.0,0.0,0.0,0.0,0.0,0.0,0.0,0.0,0.0,0.0,0.0,0.0,0.0,0.0,0.0,0.0,0.0,0.0,0.0,0.0,0.0,0.0,0.0,0.0,0.0,0.0,0.0,0.0,0.0,0.0,0.0,0.0,0.0,0.0,0.0,0.0,0.0,0.0,0.0,0.0,0.0,0.0,0.0,0.0,0.0,0.0,0.0,0.0,0.0,0.0,0.0,0.0,0.0,0.0,0.0,0.0,0.0,0.0,0.0,0.0,0.0,0.0,0.0,0.0,0.0,0.0,0.0,0.0,0.0,0.0,0.0,0.0,0.0,0.0,0.0,0.0,0.0,0.0,0.0,0.0,-0.852,-1.0688,-1.2071,-1.2593,-1.2085,-1.259,-1.1745,0.0,0.0,0.0,0.0,0.0,0.0,0.0,0.0,0.0,0.0,0.0,0.0,0.0,0.0,0.0,0.0,0.0,0.0,0.0,0.0,0.0,0.0,0.0,0.0,0.0,0.0,0.0,0.0,0.0,0.0,0.0,0.0,0.0,0.0,0.0,0.0,0.0,0.0,0.0,0.0,0.0,0.0,0.0,0.0,0.0,0.0,0.0,0.0,0.0,0.0,0.0,0.0,0.0,0.0,0.0,0.0,0.0,0.0,0.0,0.0,0.0,0.0,0.0,0.0,0.0,0.0,0.0,0.0,0.0,0.0,0.0,0.0,0.0,0.0,0.0,0.0,0.0,0.0,0.0,0.0,0.0,0.0,0.0,0.0,0.0,0.0,0.0,0.0,0.0,0.0,0.0,0.0,0.0,0.0,0.0,0.0,0.0,0.0,0.0,0.0,0.0,0.0,0.0,0.0,0.0,0.0,0.0,0.0,0.0,-1.1939,-1.2476,-1.2883,-1.313,-1.2604,-1.1428,0.0,0.0,0.0,0.0,0.0,0.0,0.0,0.0,0.0,0.0,0.0,0.0,0.0,0.0,0.0,0.0,0.0,0.0,0.0,0.0,0.0,0.0,0.0,0.0,0.0,0.0,0.0,0.0,0.0,0.0,0.0,0.0,0.0,0.0,0.0,0.0,0.0,0.0,0.0,0.0,0.0,0.0,0.0,0.0,0.0,0.0,0.0,0.0,0.0,0.0,0.0,0.0,0.0,0.0,0.0,0.0,0.0,0.0,0.0,0.0,0.0,0.0,0.0,0.0,0.0,0.0,0.0,0.0,0.0,0.0,0.0,0.0,0.0,0.0,0.0,0.0,0.0,0.0,0.0,0.0,0.0,0.0,0.0,0.0,0.0,0.0,0.0,0.0,0.0,0.0,0.0,0.0,0.0,0.0,0.0,0.0,0.0,0.0,0.0,0.0,0.0,0.0,0.0,0.0,0.0,0.0,0.0,0.0,0.0,-1.3277,-1.3297,-1.3458,-1.3953,-1.3124,-1.184,-1.0192,0.0,0.0,0.0,0.0,0.0,0.0,0.0,0.0,0.0,0.0,0.0,0.0,0.0,0.0,0.0,0.0,0.0,0.0,0.0,0.0,0.0,0.0,0.0,0.0,0.0,0.0,0.0,0.0,0.0,0.0,0.0,0.0,0.0,0.0,0.0,0.0,0.0,0.0,0.0,0.0,0.0,0.0,0.0,0.0,0.0,0.0,0.0,0.0,0.0,0.0,0.0,0.0,0.0,0.0,0.0,0.0,0.0,0.0,0.0,0.0,0.0,0.0,0.0,0.0,0.0,0.0,0.0,0.0,0.0,0.0,0.0,0.0,0.0,0.0,0.0,0.0,0.0,0.0,0.0,0.0,0.0,0.0,0.0,0.0,0.0,0.0,0.0,0.0,0.0,0.0,0.0,0.0,0.0,0.0,0.0,0.0,0.0,0.0,0.0,0.0,0.0,0.0,0.0,0.0,0.0,0.0,0.0,0.0,-1.474,-1.4525,-1.4516,-1.4647,-1.4118,-1.2926,0.0,0.0,0.0,0.0,0.0,0.0,0.0,0.0,0.0,0.0,0.0,0.0,0.0,0.0,0.0,0.0,0.0,0.0,0.0,0.0,0.0,0.0,0.0,0.0,0.0,0.0,0.0,0.0,0.0,0.0,0.0,0.0,0.0,0.0,0.0,0.0,0.0,0.0,0.0,0.0,0.0,0.0,0.0,0.0,0.0,0.0,0.0,0.0,0.0,0.0,0.0,0.0,0.0,0.0,0.0,0.0,0.0,0.0,0.0,0.0,0.0,0.0,0.0,0.0,0.0,0.0,0.0,0.0,0.0,0.0,0.0,0.0,0.0,0.0,0.0,0.0,0.0,0.0,0.0,0.0,0.0,0.0,0.0,0.0,0.0,0.0,0.0,0.0,0.0,0.0,0.0,0.0,0.0,0.0,0.0,0.0,0.0,0.0,0.0,0.0,0.0,0.0,0.0,0.0,0.0,0.0,0.0,0.0,0.0,-1.5488,-1.6537,-1.7167,-1.7225,-1.5751,-1.4204,0.0,0.0,0.0,0.0,0.0,0.0,0.0,0.0,0.0,0.0,0.0,0.0,0.0,0.0,0.0,0.0,0.0,0.0,0.0,0.0,0.0,0.0,0.0,0.0,0.0,0.0,0.0,0.0,0.0,0.0,0.0,0.0,0.0,0.0,0.0,0.0,0.0,0.0,0.0,0.0,0.0,0.0,0.0,0.0,0.0,0.0,0.0,0.0,0.0,0.0,0.0,0.0,0.0,0.0,0.0,0.0,0.0,0.0,0.0,0.0,0.0,0.0,0.0,0.0,0.0,0.0,0.0,0.0,0.0,0.0,0.0,0.0,0.0,0.0,0.0,0.0,0.0,0.0,0.0,0.0,0.0,0.0,0.0,0.0,0.0,0.0,0.0,0.0,0.0,0.0,0.0,0.0,0.0,0.0,0.0,0.0,0.0,0.0,0.0,0.0,0.0,0.0,0.0,0.0,0.0,0.0,0.0,0.0,-1.3591,-1.6189,-1.7739,-1.8871,-1.9519,-1.745,-1.5568,0.0,0.0,0.0,0.0,0.0,0.0,0.0,0.0,0.0,0.0,0.0,0.0,0.0,0.0,0.0,0.0,0.0,0.0,0.0,0.0,0.0,0.0,0.0,0.0,0.0,0.0,0.0,0.0,0.0,0.0,0.0,0.0,0.0,0.0,0.0,0.0,0.0,0.0,0.0,0.0,0.0,0.0,0.0,0.0,0.0,0.0,0.0,0.0,0.0,0.0,0.0,0.0,0.0,0.0,0.0,0.0,0.0,0.0,0.0,0.0,0.0,0.0,0.0,0.0,0.0,0.0,0.0,0.0,0.0,0.0,0.0,0.0,0.0,0.0,0.0,0.0,0.0,0.0,0.0,0.0,0.0,0.0,0.0,0.0,0.0,0.0,0.0,0.0,0.0,0.0,0.0,0.0,0.0,0.0,0.0,0.0,0.0,0.0,0.0,0.0,0.0,0.0,0.0,0.0,0.0,0.0,0.0,0.0,-1.3949,-1.6636,-1.8203,-1.9768,-2.1021,-1.897,-1.6931,0.0,0.0,0.0,0.0,0.0,0.0,0.0,0.0,0.0,0.0,0.0,0.0,0.0,0.0,0.0,0.0,0.0,0.0,0.0,0.0,0.0,0.0,0.0,0.0,0.0,0.0,0.0,0.0,0.0,0.0,0.0,0.0,0.0,0.0,0.0,0.0,0.0,0.0,0.0,0.0,0.0,0.0,0.0,0.0,0.0,0.0,0.0,0.0,0.0,0.0,0.0,0.0,0.0,0.0,0.0,0.0,0.0,0.0,0.0,0.0,0.0,0.0,0.0,0.0,0.0,0.0,0.0,0.0,0.0,0.0,0.0,0.0,0.0,0.0,0.0,0.0,0.0,0.0,0.0,0.0,0.0,0.0,0.0,0.0,0.0,0.0,0.0,0.0,0.0,0.0,0.0,0.0,0.0,0.0,0.0,0.0,0.0,0.0,0.0,0.0,0.0,0.0,0.0,0.0,0.0,0.0,0.0,0.0,-1.3856,-1.6365,-1.8003,-1.9239,-2.0312,-1.9177,-1.7997,0.0,0.0,0.0,0.0,0.0,0.0,0.0,0.0,0.0,0.0,0.0,0.0,0.0,0.0,0.0,0.0,0.0,0.0,0.0,0.0,0.0,0.0,0.0,0.0,0.0,0.0,0.0,0.0,0.0,0.0,0.0,0.0,0.0,0.0,0.0,0.0,0.0,0.0,0.0,0.0,0.0,0.0,0.0,0.0,0.0,0.0,0.0,0.0,-0.5408,0.0,0.0,0.0,0.0,0.0,0.0,0.0,0.0,0.0,0.0,0.0,0.0,0.0,0.0,0.0,0.0,0.0,0.0,0.0,0.0,0.0,0.0,0.0,0.0,0.0,0.0,0.0,0.0,0.0,0.0,0.0,0.0,0.0,0.0,0.0,0.0,0.0,0.0,0.0,0.0,0.0,0.0,0.0,0.0,0.0,0.0,0.0,0.0,0.0,0.0,0.0,0.0,0.0,0.0,0.0,0.0,0.0,0.0,0.0,-1.3935,-1.5859,-1.7792,-1.9067,-1.9563,-1.8957,-1.8132,0.0,0.0,0.0,0.0,0.0,0.0,0.0,0.0,0.0,0.0,0.0,0.0,0.0,0.0,0.0,0.0,0.0,0.0,0.0,0.0,0.0,0.0,0.0,0.0,0.0,0.0,0.0,0.0,0.0,0.0,0.0,0.0,0.0,0.0,0.0,0.0,0.0,0.0,0.0,0.0,0.0,0.0,0.0,0.0,0.0,0.0,0.0,0.0,0.0,0.0,0.0,0.0,0.0,0.0,0.0,0.0,0.0,0.0,0.0,0.0,0.0,0.0,0.0,0.0,0.0,0.0,0.0,0.0,0.0,0.0,0.0,0.0,0.0,0.0,0.0,0.0,0.0,0.0,0.0,0.0,0.0,0.0,0.0,0.0,0.0,0.0,0.0,0.0,0.0,0.0,0.0,0.0,0.0,0.0,0.0,0.0,0.0,0.0,0.0,0.0,0.0,0.0,0.0,0.0,0.0,0.0,0.0,-1.2224,-1.4011,-1.5501,-1.7569,-1.8667,-1.8754,-1.8446,-1.7666,-1.6308,0.0,0.0,0.0,0.0,0.0,0.0,0.0,0.0,0.0,0.0,0.0,0.0,0.0,0.0,0.0,0.0,0.0,0.0,0.0,0.0,0.0,0.0,0.0,0.0,0.0,0.0,0.0,0.0,0.0,0.0,0.0,0.0,0.0,0.0,0.0,0.0,0.0,0.0,-0.5039,-0.596,0.0,0.0,0.0,0.0,0.0,0.0,0.0,0.0,-0.5332,0.0,0.0,0.0,0.0,0.0,0.0,0.0,0.0,0.0,0.0,0.0,0.0,0.0,0.0,0.0,0.0,0.0,0.0,0.0,0.0,0.0,0.0,0.0,0.0,0.0,0.0,0.0,0.0,0.0,0.0,0.0,0.0,0.0,0.0,0.0,0.0,0.0,0.0,0.0,0.0,0.0,0.0,0.0,0.0,0.0,0.0,0.0,0.0,0.0,0.0,0.0,0.0,0.0,0.0,0.0,0.0,-0.9979,-1.2065,-1.388,-1.5487,-1.676,-1.7596,-1.7934,-1.7484,-1.6599,-1.5038,0.0,0.0,0.0,0.0,0.0,0.0,0.0,0.0,0.0,0.0,0.0,0.0,0.0,0.0,0.0,0.0,0.0,0.0,0.0,0.0,0.0,0.0,0.0,0.0,0.0,0.0,0.0,0.0,0.0,0.0,0.0,0.0,0.0,0.0,0.0,0.0,0.0,0.0,0.0,-0.5655,-0.5972,0.0,0.0,0.0,0.0,0.0,0.0,0.0,0.0,-0.5707,0.0,0.0,0.0,0.0,0.0,0.0,0.0,0.0,0.0,0.0,0.0,0.0,0.0,0.0,0.0,0.0,0.0,0.0,0.0,0.0,0.0,0.0,0.0,0.0,0.0,0.0,0.0,0.0,0.0,0.0,0.0,0.0,0.0,0.0,0.0,0.0,0.0,0.0,0.0,0.0,0.0,0.0,0.0,0.0,0.0,0.0,0.0,0.0,0.0,0.0,0.0,0.0,0.0,0.0,0.0,-1.0486,-1.2377,-1.4018,-1.5306,-1.6541,-1.7171,-1.7103,-1.6729,-1.5711,0.0,0.0,0.0,0.0,0.0,0.0,0.0,0.0,0.0,0.0,0.0,0.0,0.0,0.0,0.0,0.0,0.0,0.0,0.0,0.0,0.0,0.0,0.0,0.0,0.0,0.0,0.0,0.0,0.0,0.0,0.0,0.0,0.0,0.0,0.0,0.0,0.0,0.0,0.0,0.0,-0.5935,-0.6185,-0.621,0.0,0.0,0.0,0.0,0.0,0.0,-0.5799,-0.5688,0.0,0.0,0.0,0.0,0.0,0.0,0.0,0.0,0.0,0.0,0.0,0.0,0.0,0.0,0.0,0.0,0.0,0.0,0.0,0.0,0.0,0.0,0.0,0.0,0.0,0.0,0.0,0.0,0.0,0.0,0.0,0.0,0.0,0.0,0.0,0.0,0.0,0.0,0.0,0.0,0.0,0.0,0.0,0.0,0.0,0.0,0.0,0.0,0.0,0.0,0.0,0.0,0.0,0.0,0.0,-1.0979,-1.2774,-1.4204,-1.5284,-1.6508,-1.6956,-1.6476,-1.5972,-1.4866,0.0,0.0,0.0,0.0,0.0,0.0,0.0,0.0,0.0,0.0,0.0,0.0,0.0,0.0,0.0,0.0,0.0,0.0,0.0,0.0,0.0,0.0,0.0,0.0,0.0,0.0,0.0,0.0,0.0,0.0,0.0,0.0,0.0,0.0,0.0,0.0,0.0,0.0,0.0,0.0,0.0,-0.6351,-0.6522,-0.6042,0.0,0.0,0.0,0.0,-0.5987,-0.5863,0.0,0.0,0.0,0.0,0.0,0.0,0.0,0.0,0.0,0.0,0.0,0.0,0.0,0.0,0.0,0.0,0.0,0.0,0.0,0.0,0.0,0.0,0.0,0.0,0.0,0.0,0.0,0.0,0.0,0.0,0.0,0.0,0.0,0.0,0.0,0.0,0.0,0.0,0.0,0.0,0.0,0.0,0.0,0.0,0.0,0.0,0.0,0.0,0.0,0.0,0.0,0.0,0.0,0.0,0.0,0.0,-1.101,-1.2885,-1.4426,-1.5586,-1.6381,-1.6603,-1.6206,-1.5186,-1.3866,0.0,0.0,0.0,0.0,0.0,0.0,0.0,0.0,0.0,0.0,0.0,0.0,0.0,0.0,0.0,0.0,0.0,0.0,0.0,0.0,0.0,0.0,0.0,0.0,0.0,0.0,0.0,0.0,0.0,0.0,0.0,0.0,0.0,0.0,0.0,0.0,0.0,0.0,0.0,0.0,0.0,-0.619,-0.6516,-0.6023,-0.5663,0.0,0.0,-0.5943,-0.627,-0.6214,0.0,0.0,0.0,0.0,0.0,0.0,0.0,0.0,0.0,0.0,0.0,0.0,0.0,0.0,0.0,0.0,0.0,0.0,0.0,0.0,0.0,0.0,0.0,0.0,0.0,0.0,0.0,0.0,0.0,0.0,0.0,0.0,0.0,0.0,0.0,0.0,0.0,0.0,0.0,0.0,0.0,0.0,0.0,0.0,0.0,0.0,0.0,0.0,0.0,0.0,0.0,0.0,0.0,0.0,0.0,-0.9454,-1.113,-1.2767,-1.4274,-1.5512,-1.6204,-1.6299,-1.592,-1.5008,-1.3701,0.0,0.0,0.0,0.0,0.0,0.0,0.0,0.0,0.0,0.0,0.0,0.0,0.0,0.0,0.0,0.0,0.0,0.0,0.0,0.0,0.0,0.0,0.0,0.0,0.0,0.0,0.0,0.0,0.0,0.0,0.0,0.0,0.0,0.0,0.0,0.0,0.0,0.0,0.0,0.0,0.0,0.0,-0.6676,-0.6123,0.0,0.0,0.0,-0.6095,-0.6379,0.0,0.0,0.0,0.0,0.0,0.0,0.0,0.0,0.0,0.0,0.0,0.0,0.0,0.0,0.0,0.0,0.0,0.0,0.0,0.0,0.0,0.0,0.0,0.0,0.0,0.0,0.0,0.0,0.0,0.0,0.0,0.0,0.0,0.0,0.0,0.0,0.0,0.0,0.0,0.0,0.0,0.0,0.0,0.0,0.0,0.0,0.0,0.0,0.0,0.0,0.0,0.0,0.0,0.0,0.0,0.0,0.0,-1.1164,-1.279,-1.4221,-1.5374,-1.6043,-1.6139,-1.5697,-1.4919,0.0,0.0,0.0,0.0,0.0,0.0,0.0,0.0,0.0,0.0,0.0,0.0,0.0,0.0,0.0,0.0,0.0,0.0,0.0,0.0,0.0,0.0,0.0,0.0,0.0,0.0,0.0,-0.4454,0.0,0.0,0.0,0.0,0.0,0.0,0.0,0.0,0.0,0.0,0.0,0.0,0.0,0.0,-0.5934,-0.6794,-0.6309,-0.6027,0.0,0.0,-0.6367,-0.6528,-0.6494,-0.6362,0.0,0.0,0.0,0.0,0.0,0.0,0.0,0.0,0.0,0.0,0.0,0.0,0.0,0.0,0.0,0.0,0.0,0.0,0.0,0.0,0.0,0.0,0.0,0.0,0.0,0.0,0.0,0.0,0.0,0.0,0.0,0.0,0.0,0.0,0.0,0.0,0.0,0.0,0.0,0.0,0.0,0.0,0.0,0.0,0.0,0.0,0.0,0.0,0.0,0.0,0.0,0.0,0.0,0.0,0.0,-1.1179,-1.3086,-1.451,-1.5374,-1.6043,-1.6139,-1.5682,-1.4681,-1.333,0.0,0.0,0.0,0.0,0.0,0.0,0.0,0.0,0.0,0.0,0.0,0.0,0.0,0.0,0.0,0.0,0.0,0.0,0.0,0.0,0.0,0.0,0.0,0.0,0.0,0.0,0.0,0.0,0.0,0.0,0.0,0.0,0.0,0.0,0.0,0.0,0.0,0.0,0.0,0.0,0.0,-0.6288,-0.6875,-0.6766,-0.6701,0.0,0.0,-0.6785,-0.7022,-0.6783,-0.647,-0.6183,0.0,0.0,0.0,0.0,0.0,0.0,0.0,0.0,0.0,0.0,0.0,0.0,0.0,0.0,0.0,0.0,0.0,0.0,0.0,0.0,0.0,0.0,0.0,0.0,0.0,0.0,0.0,0.0,0.0,0.0,0.0,0.0,0.0,0.0,0.0,0.0,0.0,0.0,0.0,0.0,0.0,0.0,0.0,0.0,0.0,0.0,0.0,0.0,0.0,0.0,0.0,0.0,0.0,-0.9772,-1.0994,-1.29,-1.4245,-1.5064,-1.5817,-1.6102,-1.5795,-1.513,-1.395,0.0,0.0,0.0,0.0,0.0,0.0,0.0,0.0,0.0,0.0,0.0,0.0,0.0,0.0,0.0,0.0,0.0,0.0,0.0,0.0,0.0,0.0,0.0,0.0,0.0,0.0,0.0,0.0,-0.5502,-0.5499,-0.5182,0.0,0.0,0.0,0.0,0.0,0.0,0.0,0.0,0.0,0.0,-0.6335,-0.6982,-0.6856,0.0,0.0,-0.6851,-0.6851,-0.6911,-0.6837,-0.6644,-0.6345,-0.5927,0.0,0.0,0.0,0.0,0.0,0.0,0.0,0.0,0.0,0.0,0.0,0.0,0.0,0.0,0.0,0.0,0.0,0.0,0.0,0.0,0.0,0.0,0.0,0.0,0.0,0.0,0.0,0.0,0.0,0.0,0.0,0.0,0.0,0.0,0.0,0.0,0.0,0.0,0.0,0.0,0.0,0.0,0.0,0.0,0.0,0.0,0.0,0.0,0.0,0.0,0.0,0.0,-0.9957,-1.1107,-1.2975,-1.4366,-1.5196,-1.5934,-1.6237,-1.6139,-1.5731,-1.4617,0.0,0.0,0.0,0.0,0.0,0.0,0.0,0.0,0.0,0.0,0.0,0.0,0.0,0.0,0.0,0.0,0.0,0.0,0.0,0.0,0.0,0.0,0.0,0.0,0.0,0.0,0.0,0.0,-0.5819,-0.5622,-0.5235,0.0,0.0,0.0,0.0,0.0,0.0,0.0,0.0,0.0,0.0,-0.6546,-0.705,-0.705,-0.699,-0.7012,-0.7031,-0.6979,-0.704,-0.6911,-0.676,-0.6501,0.0,0.0,0.0,0.0,0.0,0.0,0.0,0.0,0.0,0.0,0.0,0.0,0.0,0.0,0.0,0.0,0.0,0.0,0.0,0.0,0.0,0.0,0.0,0.0,0.0,0.0,0.0,0.0,0.0,0.0,-0.8143,0.0,0.0,0.0,0.0,0.0,0.0,0.0,0.0,0.0,0.0,0.0,0.0,0.0,0.0,0.0,0.0,0.0,0.0,0.0,0.0,0.0,0.0,-1.0348,-1.1688,-1.362,-1.5049,-1.6026,-1.6561,-1.6828,-1.6648,-1.6381,-1.513,-1.2881,0.0,0.0,0.0,0.0,0.0,0.0,0.0,0.0,0.0,0.0,0.0,0.0,0.0,0.0,0.0,0.0,0.0,0.0,0.0,0.0,0.0,0.0,0.0,0.0,0.0,0.0,-0.5997,-0.6008,-0.5844,0.0,0.0,0.0,0.0,0.0,0.0,0.0,0.0,0.0,0.0,-0.674,-0.7019,-0.7178,-0.7378,-0.7483,-0.7493,-0.7502,-0.7502,-0.7428,-0.714,-0.683,0.0,0.0,0.0,0.0,0.0,0.0,0.0,0.0,0.0,0.0,0.0,0.0,0.0,0.0,0.0,0.0,0.0,0.0,0.0,0.0,0.0,0.0,0.0,0.0,0.0,0.0,0.0,-1.142,-1.1344,0.0,0.0,0.0,0.0,0.0,0.0,0.0,0.0,0.0,0.0,0.0,-1.4394,-1.416,0.0,0.0,0.0,0.0,0.0,0.0,0.0,0.0,0.0,0.0,0.0,0.0,-1.0589,-1.2045,-1.3753,-1.4978,-1.5658,-1.6365,-1.6657,-1.6323,-1.6154,-1.5127,-1.3107,0.0,0.0,0.0,0.0,0.0,0.0,0.0,0.0,0.0,0.0,0.0,0.0,0.0,0.0,0.0,0.0,0.0,0.0,0.0,0.0,0.0,0.0,0.0,0.0,0.0,-0.6297,0.0,0.0,0.0,0.0,0.0,0.0,0.0,0.0,0.0,0.0,0.0,-0.6144,-0.6556,-0.6913,-0.7188,-0.7397,-0.7474,-0.7456,0.0,0.0,0.0,0.0,0.0,0.0,0.0,0.0,0.0,0.0,0.0,0.0,0.0,0.0,-0.2764,-0.2738,-0.2593,-0.237,-0.2014,0.0,0.0,0.0,0.0,0.0,0.0,0.0,0.0,0.0,0.0,0.0,0.0,0.0,0.0,-1.4563,0.0,-1.329,0.0,0.0,0.0,0.0,0.0,0.0,0.0,0.0,-1.4591,-1.5667,-1.683,-1.6573,-1.6573,0.0,-1.5589,-1.3829,0.0,0.0,0.0,0.0,0.0,0.0,0.0,0.0,-1.1226,-1.2809,-1.4305,-1.5323,-1.5977,-1.6683,-1.6831,-1.6485,-1.5801,-1.4911,-1.3813,-1.2172,-1.1,0.0,0.0,0.0,0.0,0.0,0.0,0.0,0.0,0.0,0.0,0.0,0.0,0.0,0.0,0.0,0.0,0.0,0.0,0.0,0.0,0.0,0.0,0.0,-0.6829,0.0,0.0,0.0,0.0,0.0,0.0,0.0,0.0,0.0,-0.5908,-0.6289,-0.6682,-0.6952,-0.7283,-0.7598,-0.7655,0.0,0.0,0.0,0.0,0.0,0.0,0.0,-0.6753,-0.6556,-0.6205,-0.5776,-0.5153,-0.4327,-0.3489,-0.2807,0.0,0.0,-0.2509,-0.242,-0.2216,-0.1922,-0.1738,-0.155,-0.1218,-0.1062,-0.0907,0.0,0.0,0.0,0.0,0.0,0.0,0.0,0.0,-1.8711,-1.8727,0.0,-1.6663,0.0,0.0,0.0,0.0,0.0,-1.3197,0.0,0.0,-1.7041,-1.8185,-1.9184,-1.9335,-1.9415,-1.9352,-1.7736,-1.6807,-1.6277,-1.3215,0.0,0.0,0.0,0.0,0.0,0.0,-1.2152,-1.3945,-1.5102,-1.6249,-1.7161,-1.7402,-1.743,-1.7049,-1.5317,-1.4455,-1.4665,-1.3046,-1.1843,-1.1361,-1.0514,0.0,0.0,0.0,0.0,0.0,0.0,0.0,0.0,0.0,0.0,0.0,0.0,0.0,0.0,0.0,0.0,0.0,0.0,0.0,0.0,-0.7546,0.0,0.0,0.0,0.0,0.0,0.0,0.0,0.0,0.0,0.0,-0.6689,-0.6983,-0.7312,-0.7502,0.0,0.0,0.0,0.0,-0.8,-0.7797,-0.7797,-0.7726,-0.7513,-0.7291,-0.7078,-0.6873,0.0,0.0,-0.4798,-0.4136,-0.3538,-0.2904,-0.2643,-0.2446,-0.2067,-0.1948,-0.1903,-0.1734,-0.1552,-0.1354,-0.1169,-0.0985,-0.0805,-2.5781,0.0,0.0,0.0,0.0,-2.1248,-2.2206,-2.2694,-2.3183,-2.3008,-2.2246,-2.0966,0.0,0.0,0.0,0.0,0.0,0.0,-1.7172,-1.8191,-1.9249,-2.0263,-2.1155,-2.0925,-2.0845,-2.0813,-1.963,-1.8816,-1.8162,-1.6329,-1.4118,-1.1677,0.0,0.0,0.0,0.0,-1.3184,-1.4618,-1.5683,-1.6419,-1.6934,-1.7261,-1.7113,-1.6639,-1.5427,-1.4668,-1.4613,-1.3726,-1.2981,-1.2392,-1.1616,0.0,0.0,0.0,0.0,0.0,0.0,0.0,0.0,0.0,0.0,0.0,0.0,0.0,0.0,0.0,0.0,0.0,0.0,0.0,-0.7446,-0.7633,-0.7494,0.0,0.0,0.0,0.0,0.0,0.0,0.0,0.0,0.0,-0.7551,-0.7615,-0.7626,0.0,0.0,-0.808,-0.808,-0.808,-0.7938,-0.7664,-0.7593,0.0,-0.6952,-0.6809,-0.6705,-0.6529,-0.5969,-0.5255,-0.4199,-0.3768,-0.3199,-0.2304,-0.2141,-0.1949,-0.158,-0.1755,-0.1807,-0.1589,-0.1535,-0.1409,-0.0847,-0.0497,-0.0,-3.2049,-2.8241,-2.6289,-2.5055,-2.4598,-2.5935,-2.6851,-2.7344,-2.757,-2.7334,-2.652,-2.489,-2.2866,-2.0688,-1.8929,0.0,0.0,0.0,-1.9717,-2.0508,-2.1431,-2.206,-2.2545,-2.2386,-2.2275,-2.2119,-2.0856,-2.0085,-1.9568,-1.8052,-1.6268,-1.4379,0.0,0.0,-1.3134,-1.3521,-1.434,-1.5482,-1.6199,-1.6711,-1.7033,-1.7106,-1.696,-1.655,-1.5511,-1.4853,-1.4806,-1.4126,-1.3615,-1.321,-1.2611,-1.175,0.0,0.0,0.0,0.0,0.0,0.0,0.0,0.0,0.0,0.0,0.0,-0.5527,-0.6434,0.0,0.0,0.0,-0.7225,-0.747,-0.7683,-0.7937,0.0,0.0,0.0,0.0,0.0,0.0,0.0,-0.7809,-0.7852,-0.7912,-0.8115,-0.817,-0.8118,-0.8033,-0.8203,-0.8325,-0.8253,0.0,-0.8034,-0.7604,-0.7457,-0.7237,-0.6648,-0.65,-0.6381,-0.6091,-0.5337,-0.4598,-0.3925,-0.3496,-0.2901,-0.2199,-0.1963,-0.1801,-0.1463,-0.1594,-0.1647,-0.141,-0.1418,-0.1353,-0.0902,-0.0,-0.0,-3.7798,-3.6275,-3.1889,-2.9848,-2.9577,-3.0537,-3.1341,-3.1933,-3.1796,-3.1536,-3.0977,-2.8385,-2.612,-2.3962,-2.1752,0.0,-2.0835,-2.1495,-2.2092,-2.2657,-2.3262,-2.3634,-2.3578,-2.3578,-2.3562,-2.3336,-2.1589,-2.0741,-2.0634,-1.8781,-1.7735,-1.7399,-1.5516,-1.4584,-1.4662,-1.497,-1.557,-1.6477,-1.6813,-1.7106,-1.7355,-1.7033,-1.6843,-1.6799,-1.5599,-1.5006,-1.5093,-1.4291,-1.3863,-1.3809,-1.3551,-1.2821,-1.1646,0.0,0.0,0.0,0.0,0.0,0.0,0.0,0.0,0.0,0.0,0.0,0.0,0.0,0.0,0.0,-0.8408,0.0,-0.7948,-0.8494,0.0,0.0,0.0,-0.842,-0.8258,-0.8238,-0.8271,-0.8361,0.0,0.0,-0.8401,-0.859,-0.8637,-0.8448,-0.8581,-0.8627,-0.8408,-0.8313,-0.8169,-0.754,-0.7249,-0.7019,-0.6451,-0.6143,-0.5829,-0.5449,-0.4696,-0.4077,-0.3761,-0.3214,-0.2666,-0.2275,-0.2042,-0.1885,-0.1651,-0.1489,-0.1249,-0.1144,-0.1159,-0.1177,-0.1018,-0.0391,-0.0,-3.9783,-3.9134,-3.795,-3.5665,-3.295,-3.4033,-3.4398,-3.4302,-3.4077,-3.3759,-3.3075,-3.1406,-2.8621,-2.5111,-2.3928,-2.3217,-2.2836,-2.3508,-2.3694,-2.365,-2.4347,-2.4472,-2.3943,-2.3927,-2.3657,-2.2988,-2.1713,-2.0849,-2.0559,-1.9256,-1.8525,-1.8408,-1.7662,-1.6945,-1.6419,-1.6608,-1.7004,-1.7457,-1.7794,-1.7867,-1.7691,-1.715,-1.6831,-1.6491,-1.5482,-1.4903,-1.481,-1.432,-1.4099,-1.4221,-1.4049,-1.3407,-1.2361,-1.1312,0.0,0.0,0.0,0.0,0.0,0.0,0.0,0.0,0.0,-0.6588,-0.7327,0.0,-0.8235,0.0,-0.847,-0.876,-0.8676,-0.8947,0.0,0.0,-0.85,-0.8541,-0.849,-0.8531,-0.8514,-0.8581,-0.8587,-0.8621,-0.8609,-0.8675,-0.8685,-0.8637,-0.8523,-0.8408,-0.8178,-0.8016,-0.771,-0.7173,-0.6865,-0.6486,-0.5705,-0.5162,-0.4768,-0.4535,-0.4151,-0.3765,-0.3295,-0.3061,-0.2666,-0.2275,-0.2196,-0.2042,-0.1885,-0.1573,-0.1177,-0.078,-0.0548,-0.0236,0.0079,0.0629,0.0864,-4.1325,-4.0772,-4.0446,-3.8585,-3.5818,-3.6182,-3.6214,-3.5972,-3.5411,-3.508,-3.4604,-3.2152,-2.9346,-2.6436,-2.5827,-2.5324,-2.4891,-2.5394,-2.5411,-2.4956,-2.5348,-2.5108,-2.4277,-2.4118,-2.3769,-2.3228,-2.2087,-2.1263,-2.0803,-1.9882,-1.9258,-1.9008,-1.8818,-1.8467,-1.7955,-1.7823,-1.7852,-1.8028,-1.8057,-1.7999,-1.7808,-1.7194,-1.6696,-1.636,-1.5521,-1.4939,-1.4847,-1.4423,-1.4283,-1.4269,-1.415,-1.3648,-1.2677,-1.1853,-1.0846,0.0,0.0,0.0,0.0,0.0,0.0,0.0,0.0,0.0,0.0,0.0,-0.8835,-0.8634,-0.8792,-0.9023,-0.9186,-0.9311,-0.9311,-0.9089,-0.9015,-0.8975,-0.8895,-0.8891,-0.8926,-0.8959,-0.898,-0.8923,-0.8968,-0.8978,-0.894,-0.8864,-0.8613,-0.8267,-0.7957,-0.771,-0.7249,-0.6556,-0.6093,-0.5628,-0.4774,-0.4229,-0.3917,-0.3839,-0.3604,-0.3295,-0.2982,-0.2826,-0.2588,-0.2353,-0.2275,-0.2196,-0.2042,-0.1806,-0.1494,-0.1021,-0.0629,-0.0079,0.0707,0.1257,0.1494,-4.2257,-4.163,-4.1122,-3.9827,-3.7967,-3.7285,-3.6944,-3.6924,-3.6216,-3.5759,-3.5052,-3.1652,-2.9344,-2.7781,-2.7252,-2.6977,-2.6727,-2.6962,-2.6638,-2.6133,-2.61,-2.5505,-2.4499,-2.4198,-2.3848,-2.3467,-2.2479,-2.179,-2.1263,-2.0574,-1.9925,-1.9449,-1.9405,-1.9272,-1.9257,-1.8716,-1.8452,-1.8482,-1.8086,-1.7882,-1.7867,-1.7208,-1.6696,-1.6448,-1.559,-1.5162,-1.4987,-1.4646,-1.4364,-1.4204,-1.4172,-1.3727,-1.2821,-1.2393,-1.1715,0.0,-1.0146,0.0,0.0,0.0,0.0,0.0,0.0,0.0,0.0,-0.9141,-0.9352,-0.9341,-0.9322,-0.9316,-0.9577,-0.9607,-0.9607,-0.9607,-0.9528,-0.9458,-0.9366,-0.934,-0.9291,-0.93,-0.9294,-0.9318,-0.9308,-0.9318,-0.9252,-0.9091,-0.8699,-0.8313,-0.7863,-0.7427,-0.6802,-0.5964,-0.528,-0.4678,-0.4029,-0.3628,-0.3385,-0.3374,-0.3136,-0.2826,-0.2747,-0.2588,-0.251,-0.251,-0.2353,-0.2275,-0.2196,-0.2199,-0.1965,-0.1571,-0.1178,-0.0393,0.0786,0.1415,0.1808,-4.2644,-4.2116,-4.1481,-4.0193,-3.8644,-3.7144,-3.6519,-3.6248,-3.6723,-3.5059,-3.2189,-3.0609,-2.9258,-2.8129,-2.7371,-2.7111,-2.7084,-2.6826,-2.6513,-2.6124,-2.5847,-2.5133,-2.4284,-2.4086,-2.3721,-2.3117,-2.2354,-2.2025,-2.1947,-2.0787,-2.0151,-1.997,-1.9508,-1.9272,-1.9272,0.0,0.0,0.0,-1.8642,-1.8203,-1.8174,-1.7326,-1.6696,-1.636,-1.559,0.0,-1.4972,-1.4572,-1.4474,-1.4466,-1.4466,0.0,0.0,0.0,0.0,0.0,0.0,0.0,0.0,0.0,0.0,0.0,-1.0079,-0.9491,-0.8722,-0.902,-0.9392,-0.9719,-0.9571,-0.9546,-0.9575,-0.9604,-0.9514,-0.9342,-0.9342,-0.9333,-0.9294,-0.9323,-0.9352,-0.9352,-0.9299,-0.9327,-0.9337,-0.9318,-0.9318,-0.9189,-0.8889,-0.8462,-0.8102,-0.7344,-0.6457,-0.5695,-0.4819,-0.4112,-0.3722,-0.3465,-0.3197,-0.2999,-0.2901,-0.2744,-0.2588,-0.251,-0.251,-0.251,-0.2431,-0.2431,-0.2431,-0.2275,-0.2196,-0.2275,-0.1649,-0.0786,0.0471,0.0864,0.1178,-4.274,0.0,-4.1079,-3.9909,0.0,-3.7104,-3.6248,-3.5937,-3.5605,-3.4051,-3.165,-3.0771,-2.9777,-2.8774,-2.8143,-2.7718,-2.7182,-2.714,-2.6919,-2.6346,-2.6126,-2.5682,-2.4801,-2.4488,-2.4017,-2.3488,-2.2911,-2.2434,-2.2025,-2.1093,-2.0437,-2.0166,-1.9642,-1.9272,-1.9272,-1.9376,-1.9568,-1.952,-1.8877,-1.8467,-1.8277,-1.7516,-1.6948,-1.6551,-1.592,0.0,0.0,0.0,0.0,0.0,0.0,0.0,0.0,0.0,0.0,-1.3616,-1.3384,-1.3126,-1.2868,-1.247,-1.1911,-1.1351,-1.0564,-0.9841,-0.9249,-0.9383,-0.9536,-0.9776,-0.9735,-0.9659,-0.9788,-0.9808,-0.9685,-0.9497,-0.9478,-0.945,-0.9356,-0.9422,-0.9478,-0.9497,-0.9573,-0.963,-0.9639,-0.9639,-0.9592,-0.9488,-0.9145,-0.8738,-0.8242,-0.7517,-0.6648,-0.5496,-0.4582,-0.3918,-0.3509,-0.341,-0.3221,-0.2923,-0.2826,-0.2744,-0.251,-0.251,-0.251,-0.251,-0.251,-0.251,-0.251,-0.2431,-0.2353,-0.2353,-0.204,-0.1571,-0.0786,-0.0314,0.0236,-4.2762,-4.1848,-4.0805,-3.9636,-3.852,-3.7395,-3.6614,-3.6091,0.0,0.0,0.0,-3.1192,-3.016,-2.9168,-2.8723,-2.8015,-2.7182,-2.7466,-2.721,-2.6612,-2.6494,-2.6144,-2.5555,-2.494,-2.4463,-2.3974,-2.3408,-2.2751,-2.2245,-2.151,-2.0956,-2.0468,-1.9777,-1.948,-1.948,-1.9687,-1.9672,-1.9465,-1.9154,-1.8743,-1.8405,-1.7757,-1.7231,-1.6817,-1.6369,-1.6032,-1.5997,-1.5826,-1.5554,-1.5284,-1.5268,-1.5141,-1.4839,-1.4887,-1.4951,-1.4925,-1.4914,-1.468,-1.4351,-1.3914,-1.3051,-1.171,-1.0712,-1.0009,-0.9787,-0.9735,-0.9766,-0.9931,-0.9781,-0.9771,-1.0019,-1.0038,-0.9885,-0.9715,-0.9705,-0.963,-0.9478,-0.9582,-0.9696,-0.9715,-0.9838,-1.0038,-1.0019,-1.0019,-0.9894,-0.9715,-0.935,-0.8982,-0.8488,-0.7797,-0.6789,-0.5581,-0.4821,-0.4223,-0.3702,-0.3516,-0.3311,-0.292,-0.2826,-0.2747,-0.2588,-0.251,-0.251,-0.251,-0.251,-0.251,-0.251,-0.251,-0.2431,-0.2275,-0.2275,-0.2275,-0.2123,-0.1492,-0.0943,-4.2879,-4.2239,-4.1374,-4.0473,-3.958,-3.8716,-3.7922,-3.7115,-3.5073,-3.3595,-3.2767,-3.0809,-2.9508,-2.874,-2.7802,-2.7377,-2.7182,-2.6954,-2.6706,-2.6612,-2.6248,-2.6006,-2.5555,-2.5175,-2.4563,-2.3974,-2.3634,-2.3215,-2.2767,-2.1947,-2.1511,-2.1279,-2.0496,-1.9983,-1.9983,-1.9983,-1.9983,-1.9968,-1.9664,-1.9345,-1.8996,-1.8343,-1.7811,-1.7491,-1.6746,-1.6386,-1.6324,-1.5953,-1.5666,-1.5618,-1.5602,-1.5586,-1.5554,-1.5825,-1.6126,-1.6348,-1.6468,-1.6514,-1.6279,-1.5706,-1.4369,-1.2227,-1.1305,-1.0539,-0.9917,-0.9913,-0.9962,-0.999,-0.999,-0.9913,-1.0038,-1.0038,-1.0028,-0.9904,-0.9904,-0.9894,-0.9924,-0.9952,-0.9894,-0.9894,-0.9932,-1.0038,-1.0038,-1.0038,-1.0028,-0.9875,-0.9611,-0.935,-0.8837,-0.7812,-0.6833,-0.5972,-0.5631,-0.5129,-0.4369,-0.4255,-0.385,-0.3159,-0.3061,-0.2904,-0.2588,-0.251,-0.251,-0.251,-0.251,-0.251,-0.251,-0.251,-0.251,-0.2431,-0.2431,-0.2431,-0.2431,-0.2196,-0.2199,-4.2718,-4.242,-4.1769,-4.1115,-4.0137,-3.9269,-3.8687,-3.8062,-3.6426,-3.4949,-3.3398,-3.1083,-2.9648,-2.9003,-2.7997,-2.7328,-2.7182,-2.7013,-2.6919,-2.686,-2.6756,-2.6608,-2.6318,-2.5813,-2.521,-2.4498,-2.404,-2.3537,-2.2974,-2.2277,-2.1822,-2.1511,-2.0631,-2.0086,-2.0086,-2.0189,-2.0308,-2.0308,-2.0036,-1.9704,-1.9369,-1.8895,-1.8486,-1.8072,-1.7482,-1.7141,-1.6865,-1.6714,-1.6555,-1.654,-1.654,-1.6619,-1.681,-1.6969,-1.7127,-1.7286,-1.736,-1.7345,-1.7167,-1.6006,-1.4526,-1.2608,-1.1779,-1.0998,-1.0173,-1.0047,-1.0038,-1.0038,-1.0038,-1.0038,-1.0038,-1.0038,-1.0038,-1.0038,-1.0038,-1.0038,-1.0038,-1.0038,-1.0038,-1.0038,-1.0038,-1.0038,-1.0038,-1.0038,-1.0038,-0.9932,-0.9695,-0.9321,-0.9037,-0.8345,-0.7522,-0.6702,-0.6045,-0.5357,-0.4646,-0.4371,-0.3984,-0.3392,-0.3217,-0.2982,-0.2666,-0.2588,-0.251,-0.251,-0.251,-0.251,-0.251,-0.251,-0.251,-0.251,-0.251,-0.251,-0.251,-0.251,-0.2523,-4.2354,-4.2283,-4.2007,-4.1467,-4.058,-3.9926,-3.9316,-3.8772,-3.7522,-3.5952,-3.405,-3.1523,-3.0022,-2.9265,-2.8127,-2.7539,-2.7262,-2.7177,-2.7075,-2.7221,-2.7193,-2.7194,-2.7142,-2.6542,-2.5814,-2.4994,-2.4384,-2.3698,-2.3006,-2.245,-2.1979,-2.1603,-2.0814,-2.04,-2.0416,-2.0545,-2.0617,-2.0617,-2.0395,-2.0138,-1.9814,-1.9537,-1.9186,-1.8722,-1.8347,-1.7951,-1.7556,-1.7429,-1.7397,-1.7397,-1.7397,-1.7509,-1.7747,-1.7858,-1.789,-1.789,-1.7969,-1.7929,-1.7486,-1.6059,-1.4579,-1.3226,-1.2253,-1.1415,-1.0629,-1.0365,-1.0133,-1.0057,-1.0038,-1.0038,-1.0038,-1.0038,-1.0038,-1.0038,-1.0038,-1.0038,-1.0038,-1.0038,-1.0038,-1.0038,-1.0038,-1.0038,-1.0038,-0.9951,-0.9864,-0.9758,-0.9438,-0.9163,-0.9018,-0.879,-0.8263,-0.7447,-0.6549,-0.5782,-0.5007,-0.4589,-0.421,-0.3706,-0.3295,-0.3061,-0.2826,-0.2666,-0.251,-0.251,-0.251,-0.251,-0.251,-0.2588,-0.2588,-0.2588,-0.2666,-0.2666,-0.2666,-0.2588,-0.254,-4.1615,-4.1869,-4.1891,-4.1488,-4.0933,-4.0824,-4.0277,-3.9473,-3.7785,-3.6133,-3.4459,-3.2074,-3.0399,-2.9151,-2.7883,-2.7424,-2.7621,-2.7327,-2.7204,-2.7505,-2.7418,-2.7401,-2.7383,-2.7036,-2.6184,-2.5127,-2.4647,-2.3959,-2.3038,-2.2672,-2.2307,-2.1957,-2.147,-2.1296,-2.1265,-2.098,-2.0822,-2.0822,-2.0822,-2.0648,-2.0316,-2.0269,-1.9921,-1.9352,-1.8877,-1.8605,-1.8208,-1.789,-1.7731,-1.7731,-1.7731,-1.7747,-1.7811,-1.8081,-1.8255,-1.8271,-1.8541,-1.8456,-1.7702,-1.6515,-1.5153,-1.4019,-1.2721,-1.1784,-1.1293,-1.1079,-1.0619,-1.024,-1.0047,-1.0047,-1.0038,-1.0038,-1.0038,-1.0038,-1.0038,-1.0038,-1.0038,-1.0038,-1.0038,-1.0038,-1.0038,-1.0038,-0.9951,-0.9777,-0.9602,-0.9437,-0.9198,-0.8989,-0.8937,-0.8796,-0.8561,-0.7982,-0.756,-0.681,-0.5865,-0.5261,-0.4666,-0.3959,-0.3374,-0.3061,-0.2904,-0.2666,-0.251,-0.251,-0.251,-0.251,-0.2588,-0.2666,-0.2747,-0.2826,-0.2904,-0.3061,-0.3061,-0.2904,-0.2789,-4.1177,-4.1615,-4.1893,-4.1636,-4.113,-4.0839,-4.0206,-3.946,-3.8179,-3.6668,-3.4774,-3.2763,-3.1043,-2.9299,-2.8274,-2.8006,-2.8222,-2.8117,-2.8112,-2.8114,-2.8114,-2.799,-2.7659,-2.7382,-2.69,-2.6219,-2.5211,-2.4351,-2.3618,-2.2863,-2.2418,-2.2243,-2.1926,-2.1751,-2.1719,-2.1401,-2.1227,-2.1227,-2.102,-2.0845,-2.0702,-2.0496,-2.0273,-1.9955,-1.9447,-1.8986,-1.8621,-1.8271,-1.8081,-1.8081,-1.8081,-1.8176,-1.8383,-1.8526,-1.8605,-1.8621,-1.8564,-1.8288,-1.7355,-1.6462,-1.5444,-1.4028,-1.3188,-1.232,-1.1619,-1.1515,-1.1281,-1.091,-1.0573,-1.0357,-1.0241,-1.0125,-1.0038,-1.0038,-1.0038,-1.0038,-1.0038,-1.0038,-1.0038,-1.0038,-1.0038,-1.0038,-0.9951,-0.9777,-0.9515,-0.934,-0.9087,-0.8957,-0.8862,-0.8887,-0.8742,-0.8556,-0.8402,-0.7697,-0.6396,-0.5547,-0.4895,-0.4259,-0.3636,-0.3295,-0.2982,-0.2826,-0.2666,-0.251,-0.251,-0.2588,-0.2666,-0.2744,-0.2826,-0.2982,-0.3061,-0.3217,-0.3139,-0.3139,-0.3044,-4.0709,-4.1071,-4.1741,-4.1741,-4.1252,-4.0843,-4.0146,-3.9353,-3.846,-3.7052,-3.5198,-3.3669,-3.2084,-3.0364,-2.9137,-2.8734,-2.8939,-2.8846,-2.8906,-2.8888,-2.887,-2.8569,-2.8129,-2.7938,-2.7486,-2.7019,-2.5915,-2.4895,-2.4089,-2.3488,-2.2942,-2.2814,-2.2493,-2.2317,-2.2177,-2.1873,-2.1544,-2.1433,-2.1195,-2.102,-2.0909,-2.067,-2.0496,-2.0353,-1.9908,-1.9479,-1.9129,-1.878,-1.8589,-1.8589,-1.8494,-1.8557,-1.8812,-1.8827,-1.8735,-1.8735,-1.8566,-1.8009,-1.7073,-1.648,-1.5534,-1.4292,-1.3534,-1.2791,-1.2268,-1.1939,-1.1836,-1.1703,-1.1263,-1.098,-1.0436,-1.0299,-1.0192,-1.0047,-1.0038,-1.0038,-1.0038,-1.0038,-1.0038,-1.0038,-1.0038,-0.9951,-0.9777,-0.9611,-0.9437,-0.9087,-0.8999,-0.8911,-0.899,-0.8966,-0.9095,-0.9052,-0.9035,-0.8462,-0.6951,-0.6127,-0.5443,-0.4693,-0.4152,-0.3482,-0.3224,-0.2982,-0.2826,-0.2666,-0.2588,-0.2666,-0.2826,-0.2904,-0.3142,-0.3295,-0.3381,-0.3474,-0.3493,-0.341,-0.3318,-3.9833,-4.0393,-4.1495,-4.1763,-4.1295,-4.1231,-4.0583,-3.9344,-3.8677,-3.7355,-3.5984,-3.4758,-3.386,-3.2821,-3.0602,-2.9555,-2.974,-2.9456,-2.9368,-2.9653,-2.9653,-2.9472,-2.9044,-2.8709,-2.799,-2.7123,-2.6406,-2.5478,-2.4499,-2.4416,-2.4234,-2.3776,-2.3431,-2.3124,-2.2857,-2.2549,-2.1996,-2.1513,-2.1312,-2.1258,-2.0972,-2.0893,-2.0718,-2.0448,-2.0353,-2.013,-1.9812,-1.9495,-1.9304,-1.932,-1.8986,-1.8812,-1.8827,-1.8827,-1.8735,-1.8473,-1.8288,-1.7792,-1.7044,-1.6197,-1.5452,-1.4688,-1.3727,-1.305,-1.2909,-1.2522,-1.2331,-1.2331,-1.2089,-1.1621,-1.089,-1.0602,-1.0425,-1.0086,-1.0047,-1.0038,-1.0038,-1.0038,-1.0038,-1.0038,-1.0038,-0.9864,-0.9428,-0.9349,-0.9174,-0.8911,-0.8823,-0.8911,-0.8999,-0.9323,-0.941,-0.9331,-0.9314,-0.9165,-0.8052,-0.7007,-0.6312,-0.5536,-0.4646,-0.3782,-0.3486,-0.3136,-0.2982,-0.2826,-0.2826,-0.2904,-0.3061,-0.3299,-0.362,-0.3785,-0.3801,-0.3901,-0.3883,-0.373,-0.3549,-4.0137,-4.0688,-4.1163,-4.1205,-4.1038,-4.1025,-4.057,-3.982,-3.8966,-3.8262,-3.7334,-3.6276,-3.5387,-3.4793,-3.3405,-3.2171,-3.1283,-3.0879,-3.0555,-3.0374,-3.0445,-3.0138,-2.981,-2.8993,-2.8079,-2.7141,-2.6457,-2.5645,-2.4862,-2.4796,-2.4614,-2.43,-2.4119,-2.3842,-2.3357,-2.2905,-2.2441,-2.1783,-2.1576,-2.1274,-2.0972,-2.0925,-2.0861,-2.0734,-2.0512,-2.0337,-2.021,-1.9876,-1.959,-1.9383,-1.9241,-1.9066,-1.8859,-1.8827,-1.8643,-1.8272,-1.7994,-1.7434,-1.6574,-1.59,-1.5248,-1.4496,-1.3823,-1.3255,-1.305,-1.2856,-1.263,-1.2651,-1.2641,-1.2194,-1.1455,-1.099,-1.0602,-1.0248,-1.0124,-1.0047,-1.0038,-1.0038,-1.0038,-1.0038,-1.0038,-0.9864,-0.9602,-0.9515,-0.934,-0.9087,-0.9087,-0.9174,-0.9174,-0.9428,-0.9602,-0.9515,-0.9689,-0.9662,-0.9174,-0.7905,-0.6851,-0.6074,-0.5157,-0.4408,-0.3854,-0.3478,-0.3231,-0.3074,-0.2992,-0.3146,-0.3385,-0.3754,-0.4073,-0.417,-0.4188,-0.4232,-0.4307,-0.4146,-0.3874,-4.0489,-4.0841,-4.0882,-4.0882,-4.082,-4.0667,-4.0256,-3.9909,-3.9176,-3.8543,-3.8027,-3.736,-3.6831,-3.6395,-3.5838,-3.4731,-3.3143,-3.2243,-3.1577,-3.1194,-3.1047,-3.0809,-3.0516,-2.9653,-2.873,-2.7868,-2.7245,-2.6474,-2.5914,-2.5646,-2.5444,-2.5091,-2.4973,-2.4447,-2.3844,-2.3389,-2.2921,-2.2257,-2.191,-2.1624,-2.129,-2.1147,-2.1099,-2.1036,-2.075,-2.0559,-2.0559,-2.0226,-1.994,-1.9717,-1.9495,-1.9209,-1.8875,-1.8827,-1.855,-1.8087,-1.7714,-1.7059,-1.6197,-1.5534,-1.4962,-1.4388,-1.3919,-1.3545,-1.3352,-1.305,-1.2953,-1.2856,-1.2856,-1.249,-1.1929,-1.1331,-1.0879,-1.0391,-1.014,-1.0114,-1.0047,-1.0038,-1.0038,-1.0038,-1.0038,-0.9864,-0.9689,-0.9602,-0.9515,-0.9349,-0.934,-0.9428,-0.9428,-0.9602,-0.9689,-0.9777,-0.9864,-0.9864,-0.9575,-0.8611,-0.764,-0.6851,-0.5689,-0.4831,-0.425,-0.3854,-0.3493,-0.3331,-0.3324,-0.3474,-0.3738,-0.4125,-0.4326,-0.4508,-0.4536,-0.449,-0.4545,-0.4498,-0.4132,-4.0489,-4.0862,-4.0882,-4.0882,-4.082,-4.0448,-3.9992,-3.9578,-3.9,-3.8591,-3.8277,-3.7963,-3.7812,-3.7398,-3.7023,-3.6356,-3.5082,-3.3501,-3.245,-3.2003,-3.1543,-3.1377,-3.1246,-3.052,-2.9708,-2.8994,-2.8764,-2.8179,-2.7388,-2.7016,-2.6707,-2.629,-2.5697,-2.5053,-2.4433,-2.3924,-2.3373,-2.2624,-2.2386,-2.2243,-2.1957,-2.1608,-2.1433,-2.1385,-2.1084,-2.0909,-2.0893,-2.0575,-2.0369,-2.0273,-1.9765,-1.9241,-1.8939,-1.8843,-1.8643,-1.8087,-1.7419,-1.6669,-1.5832,-1.5166,-1.4688,-1.4292,-1.4016,-1.3835,-1.3738,-1.334,-1.305,-1.305,-1.2856,-1.2554,-1.2027,-1.1758,-1.1288,-1.0457,-1.0301,-1.0197,-1.0114,-1.0038,-1.0038,-1.0038,-1.0038,-0.9864,-0.9689,-0.9689,-0.9602,-0.9515,-0.9515,-0.9602,-0.9602,-0.9777,-0.9951,-0.9951,-0.9951,-0.9951,-0.9689,-0.9323,-0.8611,-0.7733,-0.6386,-0.5289,-0.4699,-0.4207,-0.383,-0.3572,-0.3626,-0.3782,-0.4142,-0.4454,-0.4758,-0.487,-0.4816,-0.4765,-0.4732,-0.4606,-0.4202,-4.0758,-4.0862,-4.0882,-4.0882,-4.0862,-4.0737,-4.0572,-4.0365,-3.9633,-3.926,-3.9242,-3.9014,-3.8696,-3.8396,-3.8055,-3.738,-3.6415,-3.4662,-3.3331,-3.2468,-3.2003,-3.1598,-3.1267,-3.0701,-2.996,-2.9243,-2.9084,-2.8624,-2.8078,-2.773,-2.7331,-2.6471,-2.5943,-2.5273,-2.4563,-2.4102,-2.3406,-2.264,-2.2482,-2.2323,-2.1989,-2.1862,-2.1703,-2.1465,-2.1338,-2.1179,-2.0941,-2.0813,-2.0639,-2.0416,-2.0194,-1.9812,-1.9288,-1.897,-1.855,-1.8087,-1.7419,-1.6669,-1.5832,-1.5166,-1.4592,-1.4304,-1.4027,-1.3835,-1.3642,-1.334,-1.305,-1.2953,-1.2856,-1.2565,-1.2155,-1.193,-1.1547,-1.082,-1.0565,-1.0405,-1.0206,-1.0045,-1.0047,-1.0038,-1.0038,-0.9951,-0.9864,-0.9864,-0.9864,-0.9777,-0.9777,-0.9864,-0.9864,-0.9951,-0.9951,-1.0038,-1.0038,-1.0038,-0.9777,-0.9515,-0.8852,-0.7989,-0.6814,-0.5751,-0.5064,-0.448,-0.4093,-0.3973,-0.4026,-0.4203,-0.4573,-0.4801,-0.5034,-0.5175,-0.5211,-0.5165,-0.4951,-0.4705,-0.436,-4.0882,-4.0882,-4.0882,-4.0882,-4.0862,-4.0717,-4.0634,-4.051,-3.982,-3.9344,-3.929,-3.9213,-3.8852,-3.8359,-3.8136,-3.7483,-3.6529,-3.5181,-3.3918,-3.2805,-3.2187,-3.1836,-3.1413,-3.0938,-3.0302,-2.969,-2.9511,-2.8995,-2.8254,-2.7957,-2.7522,-2.6935,-2.6182,-2.536,-2.4729,-2.4055,-2.3391,-2.2863,-2.2768,-2.2641,-2.2513,-2.2291,-2.2053,-2.183,-2.1592,-2.1354,-2.1115,-2.1004,-2.0829,-2.0607,-2.048,-2.0067,-1.9431,-1.9145,-1.8784,-1.8102,-1.7326,-1.648,-1.5832,-1.507,-1.4496,-1.4304,-1.4027,-1.3835,-1.3642,-1.334,-1.305,-1.2953,-1.2759,-1.2467,-1.2078,-1.1883,-1.1619,-1.1125,-1.082,-1.0612,-1.0405,-1.0197,-1.0093,-1.0064,-1.0095,-1.0047,-1.0038,-1.0038,-1.0038,-1.0038,-1.0038,-1.0038,-1.0038,-1.0038,-1.0038,-1.0038,-1.0038,-0.9951,-0.9951,-0.9515,-0.899,-0.8154,-0.7149,-0.6256,-0.5513,-0.4908,-0.4422,-0.4466,-0.4435,-0.4639,-0.4939,-0.5196,-0.5441,-0.5489,-0.5499,-0.5333,-0.5171,-0.4994,-0.4648,-4.0903,-4.0882,-4.0882,-4.0882,-4.0841,-4.0489,-4.0365,-4.0179,-3.9687,-3.9122,-3.876,-3.9002,-3.8402,-3.7466,-3.7653,-3.7053,-3.5845,-3.5006,-3.3993,-3.3047,-3.2335,-3.1778,-3.1447,-3.1303,-3.0883,-3.032,-2.9941,-2.9297,-2.8588,-2.7974,-2.7539,-2.7177,-2.6067,-2.5361,-2.4812,-2.3926,-2.3489,-2.3292,-2.3149,-2.3181,-2.334,-2.2895,-2.2498,-2.2418,-2.1894,-2.1528,-2.137,-2.1099,-2.0925,-2.0861,-2.0575,-2.013,-1.959,-1.9415,-1.8989,-1.8256,-1.7167,-1.648,-1.5724,-1.4962,-1.4388,-1.4304,-1.4027,-1.3835,-1.3738,-1.3352,-1.305,-1.2953,-1.2662,-1.2273,-1.198,-1.1785,-1.1482,-1.1268,-1.0981,-1.0783,-1.0612,-1.0414,-1.0301,-1.0253,-1.0112,-1.0057,-1.0076,-1.0067,-1.0038,-1.0038,-1.0038,-1.0038,-1.0038,-1.0038,-1.0038,-1.0038,-1.0038,-1.0038,-0.9951,-0.9428,-0.8903,-0.8097,-0.7183,-0.648,-0.5769,-0.517,-0.4865,-0.4822,-0.4879,-0.5094,-0.5231,-0.5478,-0.5609,-0.562,-0.5536,-0.5458,-0.528,-0.5102,-0.4656,-4.1193,-4.0882,-4.0882,-4.0882,-4.0862,-4.0737,-4.0696,-4.0634,-4.0116,-3.9583,-3.9235,-3.9188,-3.8357,-3.7318,-3.7103,-3.6322,-3.5126,-3.4335,-3.3519,-3.2818,-3.2203,-3.1818,-3.1431,-3.1433,-3.1212,-3.0645,-3.0284,-2.9672,-2.8657,-2.8114,-2.7557,-2.6779,-2.5982,-2.5244,-2.4662,-2.3959,-2.3424,-2.3181,-2.3356,-2.3292,-2.3213,-2.3276,-2.3006,-2.2498,-2.2307,-2.1941,-2.1497,-2.1099,-2.0925,-2.0893,-2.0591,-2.0337,-2.0067,-1.9669,-1.9257,-1.8612,-1.7646,-1.6669,-1.6008,-1.5153,-1.4592,-1.4292,-1.4027,-1.3835,-1.3642,-1.334,-1.2953,-1.2662,-1.2467,-1.2175,-1.1785,-1.159,-1.1492,-1.1268,-1.1028,-1.0886,-1.0792,-1.0631,-1.0499,-1.0471,-1.031,-1.0206,-1.0159,-1.0074,-0.9989,-0.997,-0.997,-0.9951,-0.996,-1.0038,-1.0038,-1.0038,-1.0038,-1.0038,-0.9864,-0.934,-0.8727,-0.8017,-0.721,-0.6511,-0.5885,-0.5328,-0.5137,-0.5215,-0.5175,-0.5375,-0.5489,-0.5625,-0.573,-0.5735,-0.5646,-0.5552,-0.5191,-0.5008,-0.4567,-4.111,-4.0882,-4.0882,-4.0882,-4.0882,-4.0882,-4.0882,-4.0841,-4.0613,-4.0111,-3.9574,-3.9319,-3.8477,-3.7103,-3.6676,-3.563,-3.4192,-3.3669,-3.3011,-3.2144,-3.1909,-3.1598,-3.1414,-3.1377,-3.112,-3.0696,-3.0227,-2.9436,-2.842,-2.7916,-2.717,-2.6415,-2.5641,-2.5058,-2.4626,-2.3892,-2.3358,-2.3244,-2.334,-2.3324,-2.3467,-2.3499,-2.334,-2.2942,-2.2784,-2.2339,-2.1576,-2.1258,-2.1084,-2.0925,-2.0718,-2.0543,-2.0369,-2.0035,-1.9573,-1.9018,-1.8013,-1.7013,-1.6211,-1.5356,-1.4688,-1.4304,-1.4027,-1.3738,-1.3437,-1.305,-1.2662,-1.2467,-1.2175,-1.1883,-1.1688,-1.1482,-1.1385,-1.1179,-1.1094,-1.1019,-1.1019,-1.083,-1.0726,-1.066,-1.0537,-1.0395,-1.0304,-1.0192,-1.0009,-0.9855,-0.9925,-0.987,-0.9892,-0.996,-1.0038,-0.9951,-0.9951,-1.0038,-0.9873,-0.9446,-0.8584,-0.7863,-0.6871,-0.6263,-0.5902,-0.5458,-0.5453,-0.5447,-0.5547,-0.5552,-0.5646,-0.5735,-0.5735,-0.5735,-0.5735,-0.5552,-0.5191,-0.4924,-0.4478,-4.0882,-4.0882,-4.0882,-4.0882,-4.0882,-4.0882,-4.0882,-4.0882,-4.0841,-4.0506,-4.0013,-3.9469,-3.8395,-3.682,-3.6269,-3.4953,-3.3047,-3.2879,-3.2339,-3.1705,-3.1486,-3.1396,-3.1396,-3.1377,-3.1009,-3.0437,-2.997,-2.9107,-2.8128,-2.7361,-2.6851,-2.6133,-2.5512,-2.4914,-2.4521,-2.3901,-2.361,-2.3562,-2.3483,-2.3546,-2.3785,-2.3769,-2.3657,-2.3403,-2.3085,-2.2672,-2.1985,-2.1497,-2.1306,-2.1004,-2.0956,-2.075,-2.048,-2.0432,-2.0016,-1.9252,-1.8505,-1.7558,-1.6566,-1.5813,-1.5017,-1.4546,-1.3928,-1.3482,-1.3397,-1.2899,-1.2467,-1.2273,-1.1883,-1.1688,-1.1492,-1.1287,-1.1287,-1.1189,-1.1179,-1.1189,-1.1161,-1.1038,-1.0934,-1.0915,-1.0735,-1.0529,-1.0324,-1.0204,-1.0039,-0.9768,-0.9813,-0.9705,-0.9712,-0.9823,-0.9883,-0.9864,-0.9951,-0.9951,-0.9795,-0.9463,-0.8601,-0.7723,-0.6536,-0.5908,-0.5908,-0.5641,-0.5641,-0.5646,-0.5641,-0.5641,-0.5646,-0.5735,-0.5735,-0.5646,-0.5646,-0.5374,-0.5102,-0.4924,-0.4567,-4.0882,-4.0882,-4.0882,-4.0882,-4.0882,-4.0882,-4.0882,-4.0882,-4.0882,-4.0551,-4.0111,-3.9615,-3.846,-3.6963,-3.5881,-3.4398,-3.2711,-3.2079,-3.1524,-3.1117,-3.1322,-3.1377,-3.1377,-3.112,-3.075,-3.029,-2.9713,-2.8973,-2.8094,-2.7386,-2.672,-2.6059,-2.5481,-2.4924,-2.454,-2.4268,-2.3943,-2.3975,-2.4086,-2.3943,-2.3848,-2.4134,-2.407,-2.3642,-2.3244,-2.2943,-2.2557,-2.1873,-2.1449,-2.1306,-2.1099,-2.0909,-2.075,-2.0543,-2.0321,-1.9917,-1.9079,-1.8243,-1.7499,-1.6558,-1.5719,-1.5083,-1.4319,-1.3732,-1.3303,-1.2758,-1.2294,-1.2078,-1.1785,-1.1492,-1.1296,-1.1189,-1.1189,-1.1189,-1.1189,-1.1189,-1.1189,-1.1151,-1.1113,-1.1075,-1.0953,-1.0735,-1.0441,-1.022,-1.0036,-0.9771,-0.9675,-0.956,-0.9553,-0.9641,-0.9703,-0.9781,-0.9995,-1.0004,-0.9623,-0.9216,-0.8364,-0.7534,-0.6412,-0.5735,-0.5735,-0.5735,-0.5735,-0.5735,-0.5735,-0.5735,-0.5735,-0.5735,-0.5735,-0.5646,-0.5552,-0.5369,-0.5102,-0.4924,-0.4683,-4.0261,-4.0261,-4.0468,-4.0572,-4.0613,-4.0779,-4.0882,-4.0882,-4.0882,-4.0634,-4.0158,-3.9592,-3.8397,-3.6737,-3.5571,-3.4199,-3.2504,-3.1506,-3.1138,-3.1009,-3.1249,-3.1377,-3.1249,-3.0879,-3.049,-3.0343,-2.9777,-2.9069,-2.8135,-2.7577,-2.6849,-2.5911,-2.5622,-2.5285,-2.469,-2.4531,-2.4356,-2.4102,-2.4229,-2.4198,-2.415,-2.4356,-2.4484,-2.3991,-2.3546,-2.323,-2.2863,-2.2368,-2.1814,-2.1634,-2.129,-2.1084,-2.0941,-2.075,-2.0575,-2.0269,-1.966,-1.8721,-1.7938,-1.6887,-1.5985,-1.534,-1.4364,-1.3836,-1.3325,-1.2787,-1.2288,-1.2011,-1.1688,-1.1296,-1.1198,-1.1189,-1.1189,-1.1189,-1.1189,-1.1189,-1.1189,-1.1189,-1.1189,-1.1179,-1.0997,-1.0757,-1.05,-1.0287,-0.994,-0.9613,-0.9656,-0.9638,-0.9518,-0.9613,-0.9606,-0.9777,-0.9984,-0.9894,-0.9481,-0.8878,-0.8048,-0.7184,-0.6394,-0.588,-0.5746,-0.5741,-0.5735,-0.5735,-0.5741,-0.5735,-0.5735,-0.5735,-0.5752,-0.5652,-0.5563,-0.5285,-0.5107,-0.4853,-0.4624,-3.9578,-3.9661,-3.9992,-4.0158,-4.0282,-4.053,-4.0613,-4.0634,-4.0593,-4.022,-3.993,-3.9337,-3.7975,-3.6495,-3.5329,-3.3733,-3.2078,-3.1138,-3.075,-3.0879,-3.112,-3.1322,-3.1358,-3.0822,-3.0431,-3.0431,-2.9935,-2.8963,-2.8127,-2.7685,-2.7033,-2.5977,-2.5882,-2.5516,-2.4976,-2.4913,-2.4865,-2.4515,-2.442,-2.4372,-2.4499,-2.4611,-2.4642,-2.4404,-2.4055,-2.353,-2.3149,-2.2704,-2.2243,-2.1714,-2.1497,-2.1258,-2.102,-2.0909,-2.0813,-2.0496,-1.9891,-1.9063,-1.8196,-1.7089,-1.6075,-1.5221,-1.4458,-1.3857,-1.3398,-1.2746,-1.2213,-1.1905,-1.1531,-1.1198,-1.1189,-1.1189,-1.1189,-1.1189,-1.1189,-1.1189,-1.1189,-1.1189,-1.1189,-1.1189,-1.1063,-1.0849,-1.0565,-1.0219,-0.9875,-0.9526,-0.9669,-0.9602,-0.9571,-0.9545,-0.9526,-0.9648,-0.9949,-0.9855,-0.946,-0.8643,-0.7695,-0.7131,-0.6409,-0.6042,-0.5784,-0.5746,-0.5741,-0.5746,-0.5746,-0.5757,-0.5795,-0.5839,-0.5833,-0.5695,-0.5536,-0.5314,-0.5113,-0.489,-0.4584,-3.9765,-4.0096,-3.9785,-3.9868,-4.0137,-3.9909,-3.9806,-3.9702,-3.9433,-3.9164,-3.8842,-3.7965,-3.7136,-3.6082,-3.4512,-3.2747,-3.1081,-3.062,-3.049,-3.0638,-3.0915,-3.1302,-3.1632,-3.0947,-3.0704,-3.0548,-3.0014,-2.8986,-2.8196,-2.785,-2.7117,-2.6216,-2.5898,-2.5596,-2.5373,-2.5278,-2.5246,-2.5087,-2.4944,-2.4833,-2.4706,-2.4833,-2.4865,-2.4658,-2.4388,-2.4039,-2.353,-2.3117,-2.2609,-2.1941,-2.1608,-2.129,-2.0933,-2.0941,-2.0877,-2.0609,-2.0066,-1.9273,-1.848,-1.7264,-1.6256,-1.5376,-1.45,-1.3865,-1.3288,-1.2649,-1.2274,-1.1834,-1.15,-1.1208,-1.1198,-1.1189,-1.1189,-1.1189,-1.1189,-1.1189,-1.1189,-1.1189,-1.1189,-1.1189,-1.11,-1.0904,-1.0609,-1.0216,-0.9968,-0.9608,-0.9559,-0.9614,-0.954,-0.951,-0.9486,-0.963,-0.9899,-0.9733,-0.944,-0.8487,-0.7523,-0.707,-0.6538,-0.6138,-0.5871,-0.5784,-0.5757,-0.5812,-0.5839,-0.5855,-0.5899,-0.5942,-0.5964,-0.5942,-0.5609,-0.5359,-0.5227,-0.5009,-0.481,-3.8957,-3.9164,-3.9164,-3.9309,-3.9495,-3.9537,-3.9392,-3.9164,-3.8664,-3.8294,-3.7729,-3.7014,-3.6153,-3.506,-3.4037,-3.2153,-3.0562,-3.0378,-3.0378,-3.0526,-3.0965,-3.1538,-3.187,-3.1258,-3.105,-3.0786,-3.0031,-2.9036,-2.8378,-2.8097,-2.7296,-2.652,-2.612,-2.5929,-2.5548,-2.5423,-2.5344,-2.5328,-2.5201,-2.5059,-2.4881,-2.5056,-2.4976,-2.4881,-2.4674,-2.4404,-2.4102,-2.353,-2.307,-2.2529,-2.2005,-2.1454,-2.1034,-2.0814,-2.0719,-2.0617,-2.0101,-1.9257,-1.8408,-1.7041,-1.5861,-1.4995,-1.4265,-1.3731,-1.3182,-1.2779,-1.2362,-1.1851,-1.1554,-1.1312,-1.1208,-1.1198,-1.1189,-1.1189,-1.1189,-1.1189,-1.1189,-1.1189,-1.1189,-1.1189,-1.1002,-1.0806,-1.0511,-1.0216,-1.0019,-0.9788,-0.9535,-0.9502,-0.9575,-0.9589,-0.9664,-0.9811,-0.9991,-0.9689,-0.9413,-0.8497,-0.7548,-0.7081,-0.6661,-0.6161,-0.5996,-0.592,-0.5915,-0.5953,-0.5964,-0.5964,-0.5991,-0.6034,-0.6067,-0.61,-0.58,-0.5511,-0.5417,-0.5246,-0.4932,-3.8191,-3.8212,-3.8326,-3.845,-3.8491,-3.8582,-3.8479,-3.8192,-3.7913,-3.7177,-3.6496,-3.5861,-3.4922,-3.3805,-3.2728,-3.1393,-2.9691,-2.997,-3.0118,-3.0414,-3.0889,-3.1498,-3.172,-3.1534,-3.1235,-3.0857,-3.0145,-2.9299,-2.8527,-2.8362,-2.7573,-2.6761,-2.6567,-2.6168,-2.5516,-2.5392,-2.5423,-2.5423,-2.5172,-2.514,-2.5059,-2.5103,-2.5056,-2.5024,-2.4785,-2.4627,-2.4309,-2.4039,-2.3499,-2.2958,-2.2292,-2.1648,-2.1028,-2.0581,-2.0426,-2.0205,-1.9776,-1.8945,-1.7989,-1.6736,-1.5672,-1.4815,-1.3964,-1.3429,-1.3103,-1.276,-1.2402,-1.1773,-1.151,-1.1444,-1.1312,-1.1227,-1.1198,-1.1189,-1.1189,-1.1189,-1.1189,-1.1189,-1.1189,-1.11,-1.1002,-1.0806,-1.0609,-1.0511,-1.0314,-1.0117,-0.9968,-0.987,-0.9951,-0.996,-1.0078,-1.0018,-1.0009,-0.9769,-0.9339,-0.8576,-0.7818,-0.7192,-0.6657,-0.6277,-0.6127,-0.6078,-0.6083,-0.6078,-0.6072,-0.6072,-0.61,-0.6143,-0.6208,-0.6128,-0.5888,-0.5787,-0.564,-0.5359,-0.5099,-3.8191,-3.815,-3.7534,-3.7258,-3.7085,-3.6577,-3.6224,-3.6163,-3.6071,-3.5578,-3.4754,-3.372,-3.3014,-3.226,-3.0952,-2.9987,-2.9447,-2.9185,-2.9447,-2.9987,-3.0372,-3.0978,-3.1498,-3.1208,-3.1145,-3.0822,-3.0276,-2.9464,-2.879,-2.8411,-2.7752,-2.6842,-2.6296,-2.5961,-2.5532,-2.536,-2.5502,-2.5755,-2.5439,-2.5172,-2.5059,-2.5119,-2.4944,-2.4801,-2.4817,-2.4706,-2.4293,-2.415,-2.3927,-2.2988,-2.245,-2.1791,-2.109,-2.0462,-1.991,-1.948,-1.9049,-1.8527,-1.7569,-1.6524,-1.5577,-1.4815,-1.3964,-1.3393,-1.2999,-1.2666,-1.2183,-1.1822,-1.1652,-1.152,-1.1435,-1.1312,-1.1227,-1.1189,-1.1189,-1.1189,-1.1189,-1.1189,-1.1189,-1.1189,-1.11,-1.1002,-1.0806,-1.0708,-1.0609,-1.0413,-1.0314,-1.0314,-1.0314,-1.0314,-1.0413,-1.0431,-1.0104,-0.9951,-0.9379,-0.8627,-0.7819,-0.7186,-0.6738,-0.6285,-0.6252,-0.6214,-0.6198,-0.6192,-0.6187,-0.6198,-0.623,-0.6285,-0.6361,-0.6158,-0.5914,-0.5945,-0.6006,-0.5603,-0.5174,-3.6917,-3.7123,-3.6787,-3.6445,-3.6032,-3.5701,-3.5221,-3.4893,-3.4834,-3.432,-3.3328,-3.2094,-3.123,-3.0584,-2.9561,-2.9168,-2.9053,-2.8807,-2.9185,-2.9761,-3.0162,-3.0751,-3.1384,-3.1312,-3.1235,-3.0751,-3.046,-2.9839,-2.9185,-2.846,-2.7769,-2.6777,-2.6376,-2.5866,-2.55,-2.5125,-2.5408,-2.5613,-2.5549,-2.5423,-2.5265,-2.5199,-2.4944,-2.4611,-2.4738,-2.4515,-2.4245,-2.415,-2.3873,-2.3111,-2.2652,-2.1914,-2.0986,-2.0363,-1.9792,-1.884,-1.8632,-1.8108,-1.7147,-1.6205,-1.5458,-1.4611,-1.3856,-1.3207,-1.2861,-1.2469,-1.2219,-1.202,-1.1926,-1.1784,-1.1586,-1.1435,-1.1321,-1.1246,-1.1208,-1.1189,-1.1189,-1.1189,-1.1189,-1.1189,-1.1198,-1.11,-1.1002,-1.0904,-1.0708,-1.0609,-1.0413,-1.0413,-1.0413,-1.0511,-1.0708,-1.0984,-1.0485,-1.0002,-0.9312,-0.8528,-0.7739,-0.7117,-0.6714,-0.6372,-0.6366,-0.6339,-0.6312,-0.6317,-0.6333,-0.635,-0.6366,-0.6278,-0.6211,-0.6022,-0.5937,-0.5937,-0.5842,-0.5536,-0.5114,-3.5285,-3.5234,-3.5356,-3.514,-3.4497,-3.4238,-3.3843,-3.3302,-3.3249,-3.28,-3.1709,-3.0696,-2.9674,-2.9036,-2.8642,-2.851,-2.8527,-2.8659,-2.9053,-2.955,-3.0083,-3.0469,-3.0864,-3.1014,-3.1032,-3.0672,-3.052,-2.9987,-2.9316,-2.8592,-2.7802,-2.6937,-2.6456,-2.585,-2.5344,-2.5203,-2.5266,-2.5676,-2.5692,-2.5486,-2.5329,-2.489,-2.4561,-2.4327,-2.4306,-2.418,-2.4016,-2.3944,-2.3685,-2.3356,-2.2651,-2.1933,-2.0993,-2.0267,-1.9473,-1.8611,-1.8318,-1.7687,-1.6842,-1.5992,-1.5232,-1.4493,-1.365,-1.3108,-1.2545,-1.2436,-1.2398,-1.2219,-1.2124,-1.1945,-1.1746,-1.1605,-1.1435,-1.1321,-1.1236,-1.1217,-1.1198,-1.1217,-1.1208,-1.1189,-1.1189,-1.1189,-1.11,-1.1002,-1.0806,-1.0708,-1.0609,-1.0609,-1.0708,-1.0708,-1.0904,-1.11,-1.0511,-1.0019,-0.932,-0.8528,-0.7733,-0.7042,-0.6637,-0.6431,-0.641,-0.641,-0.6399,-0.642,-0.6437,-0.6426,-0.6399,-0.6221,-0.6042,-0.5942,-0.5937,-0.5837,-0.5636,-0.534,-0.5039,-3.3638,-3.2485,-3.3001,-3.293,-3.2488,-3.1552,-3.1121,-3.1102,-3.1045,-3.0638,-2.9882,-2.9299,-2.8625,-2.7965,-2.7849,-2.7849,-2.7849,-2.8114,-2.8527,-2.9053,-2.9464,-2.9909,-3.0206,-3.0467,-3.058,-3.0171,-3.0118,-2.997,-2.9316,-2.8659,-2.8146,-2.7555,-2.6697,-2.6088,-2.5549,-2.5297,-2.5329,-2.5628,-2.561,-2.5373,-2.4872,-2.4314,-2.3731,-2.3566,-2.346,-2.3338,-2.3645,-2.3561,-2.3411,-2.3207,-2.261,-2.181,-2.0959,-2.0099,-1.9249,-1.8485,-1.7911,-1.7279,-1.6418,-1.5885,-1.5458,-1.4815,-1.3964,-1.2989,-1.2436,-1.2436,-1.2417,-1.238,-1.2266,-1.2153,-1.1964,-1.1794,-1.1614,-1.1491,-1.1416,-1.1368,-1.1331,-1.1264,-1.1255,-1.1208,-1.1189,-1.1189,-1.1189,-1.1091,-1.1091,-1.0904,-1.0904,-1.0904,-1.1002,-1.1002,-1.11,-1.1002,-1.0413,-0.9821,-0.9221,-0.8428,-0.7534,-0.6936,-0.6537,-0.6437,-0.6431,-0.6437,-0.6437,-0.6437,-0.6437,-0.6437,-0.6337,-0.6137,-0.5942,-0.5942,-0.5842,-0.5536,-0.5336,-0.5035,-0.4738,-3.2135,-3.1498,-3.0558,-3.0437,-3.0655,-3.0156,-2.9618,-2.9235,-2.9015,-2.8476,-2.7866,-2.7966,-2.7849,-2.7451,-2.7451,-2.7451,-2.77,-2.7849,-2.8263,-2.8659,-2.9053,-2.943,-2.9691,-2.9952,-3.0083,-2.9822,-2.9952,-2.9839,-2.9316,-2.8659,-2.8345,-2.7785,-2.681,-2.612,-2.5613,-2.5518,-2.5597,-2.5454,-2.537,-2.5083,-2.4396,-2.3725,-2.3024,-2.2667,-2.2623,-2.2586,-2.2719,-2.29,-2.2691,-2.2468,-2.2186,-2.1569,-2.0759,-1.9906,-1.9097,-1.8224,-1.7623,-1.6868,-1.6099,-1.5577,-1.5041,-1.4191,-1.3434,-1.2881,-1.2436,-1.2436,-1.2436,-1.2408,-1.237,-1.2276,-1.2106,-1.1992,-1.1879,-1.1737,-1.1633,-1.1557,-1.1501,-1.1435,-1.1397,-1.1397,-1.1283,-1.1189,-1.1189,-1.1189,-1.1189,-1.1198,-1.1189,-1.1189,-1.1189,-1.1189,-1.1189,-1.1002,-1.0413,-0.9723,-0.9122,-0.823,-0.7335,-0.6936,-0.6537,-0.6437,-0.6437,-0.6437,-0.6437,-0.6437,-0.6337,-0.6337,-0.6237,-0.5937,-0.5837,-0.5737,-0.5436,-0.5035,-0.4834,-0.4634,-0.4437,-3.093,-3.02,-2.8828,-2.8635,-2.9101,-2.8746,-2.8191,-2.779,-2.7587,-2.7098,-2.6613,-2.7178,-2.737,-2.7169,-2.72,-2.7334,-2.7451,-2.7716,-2.7981,-2.8395,-2.8659,-2.9053,-2.943,-2.9691,-2.9805,-2.9691,-2.9822,-2.9691,-2.9316,-2.8659,-2.8378,-2.7884,-2.6907,-2.6184,-2.5882,-2.5786,-2.566,-2.5358,-2.5046,-2.456,-2.3779,-2.2694,-2.2215,-2.1714,-2.1465,-2.1488,-2.1675,-2.1824,-2.1675,-2.1618,-2.1455,-2.1061,-2.033,-1.9557,-1.887,-1.7948,-1.7041,-1.6316,-1.5589,-1.5041,-1.4396,-1.3552,-1.3217,-1.2772,-1.2545,-1.2436,-1.2436,-1.2436,-1.2427,-1.238,-1.2209,-1.2143,-1.2058,-1.1907,-1.1784,-1.1699,-1.169,-1.1642,-1.1624,-1.1605,-1.1453,-1.1312,-1.1274,-1.1264,-1.1189,-1.1189,-1.1189,-1.1189,-1.1189,-1.1189,-1.1189,-1.0895,-1.0511,-0.9813,-0.9023,-0.823,-0.7434,-0.6942,-0.6542,-0.6437,-0.6437,-0.6437,-0.6437,-0.6437,-0.6337,-0.6337,-0.6037,-0.5737,-0.5636,-0.5636,-0.5135,-0.4634,-0.4537,-0.4437,-0.4135,-3.0062,-2.8498,-2.7762,-2.7748,-2.7991,-2.7125,-2.6684,-2.6661,-2.6487,-2.6408,-2.6533,-2.6676,-2.6899,-2.7105,-2.7153,-2.72,-2.72,-2.7451,-2.7716,-2.7849,-2.813,-2.8675,-2.8922,-2.9168,-2.9168,-2.943,-2.9299,-2.9299,-2.9168,-2.851,-2.8263,-2.7802,-2.6923,-2.6057,-2.6104,-2.612,-2.5736,-2.5138,-2.4597,-2.3882,-2.28,-2.1527,-2.1031,-2.0803,-2.0328,-2.027,-2.074,-2.051,-2.0537,-2.0686,-2.0389,-2.0053,-1.9745,-1.8813,-1.8083,-1.7403,-1.6208,-1.5292,-1.4633,-1.4396,-1.3748,-1.3108,-1.2772,-1.2663,-1.2436,-1.2436,-1.2436,-1.2436,-1.2436,-1.2436,-1.2351,-1.2276,-1.2181,-1.2106,-1.1983,-1.1935,-1.1926,-1.186,-1.1831,-1.1794,-1.1642,-1.1501,-1.1425,-1.135,-1.1236,-1.1189,-1.1189,-1.1189,-1.1189,-1.1189,-1.1189,-1.1002,-1.0609,-0.9912,-0.9122,-0.823,-0.7434,-0.6942,-0.6542,-0.6342,-0.6337,-0.6337,-0.6337,-0.6337,-0.6237,-0.6142,-0.5842,-0.5541,-0.5441,-0.5236,-0.4738,-0.4336,-0.434,-0.4138,-0.3833,-2.8727,-2.7762,-2.6918,-2.6516,-2.6388,-2.6035,-2.5853,-2.5734,-2.5691,-2.5739,-2.5785,-2.6277,-2.6724,-2.6883,-2.6956,-2.7051,-2.6934,-2.6918,-2.7051,-2.7051,-2.7334,-2.7467,-2.7733,-2.7998,-2.8246,-2.8246,-2.8362,-2.8642,-2.8659,-2.8114,-2.7981,-2.7538,-2.6581,-2.5659,-2.5266,-2.5124,-2.4772,-2.4109,-2.3505,-2.2855,-2.1777,-2.0704,-2.003,-1.9876,-1.923,-1.9222,-1.9687,-1.9309,-1.9322,-1.9473,-1.9038,-1.8717,-1.8532,-1.7741,-1.7173,-1.6391,-1.5343,-1.4568,-1.3873,-1.3305,-1.3098,-1.2782,-1.2555,-1.2555,-1.2436,-1.2436,-1.2436,-1.2436,-1.2436,-1.2436,-1.2398,-1.2389,-1.2332,-1.2342,-1.2276,-1.2266,-1.2238,-1.2106,-1.203,-1.1973,-1.186,-1.1642,-1.152,-1.1397,-1.1283,-1.1198,-1.1189,-1.1189,-1.1189,-1.1189,-1.1189,-1.1002,-1.0708,-1.001,-0.9213,-0.8329,-0.7434,-0.6842,-0.6442,-0.6142,-0.6142,-0.6137,-0.6137,-0.6137,-0.6042,-0.5942,-0.5541,-0.524,-0.5039,-0.4738,-0.444,-0.4138,-0.4038,-0.3836,-0.3433,-2.7642,-2.6796,-2.5945,-2.5333,-2.498,-2.5242,-2.5226,-2.5151,-2.5357,-2.5235,-2.5297,-2.5848,-2.634,-2.6399,-2.6487,-2.647,-2.6249,-2.6115,-2.6115,-2.6115,-2.6249,-2.6517,-2.6651,-2.6784,-2.7185,-2.7302,-2.7435,-2.7716,-2.8114,-2.7849,-2.7584,-2.7057,-2.6346,-2.5436,-2.4811,-2.4351,-2.4065,-2.3335,-2.275,-2.2257,-2.1142,-2.017,-1.9376,-1.9054,-1.8594,-1.8221,-1.8415,-1.8387,-1.8155,-1.7987,-1.7644,-1.7326,-1.7178,-1.6908,-1.6442,-1.5774,-1.4835,-1.4065,-1.3335,-1.2918,-1.2817,-1.2688,-1.2493,-1.2446,-1.2436,-1.2436,-1.2436,-1.2436,-1.2436,-1.2436,-1.2436,-1.2436,-1.2436,-1.2436,-1.2427,-1.2417,-1.2389,-1.2247,-1.2219,-1.2162,-1.2039,-1.1813,-1.1586,-1.1453,-1.1321,-1.1255,-1.1189,-1.1189,-1.1189,-1.1189,-1.1189,-1.1002,-1.0708,-1.0109,-0.932,-0.8535,-0.764,-0.6642,-0.6242,-0.5942,-0.5842,-0.5837,-0.5837,-0.5842,-0.5741,-0.5541,-0.5236,-0.4939,-0.4738,-0.4437,-0.4138,-0.3937,-0.3934,-0.3635,-0.3232,-2.6675,-2.5578,-2.4841,-2.4115,-2.3743,-2.4487,-2.4873,-2.4996,-2.4996,-2.4906,-2.5046,-2.4998,-2.5257,-2.5766,-2.5363,-2.5175,-2.5278,-2.5037,-2.4902,-2.5037,-2.5172,-2.5292,-2.5427,-2.5697,-2.5831,-2.6368,-2.6635,-2.6635,-2.7451,-2.7318,-2.6918,-2.6486,-2.5798,-2.4834,-2.4072,-2.352,-2.3173,-2.2535,-2.2163,-2.1577,-2.0699,-1.9586,-1.9096,-1.8684,-1.7956,-1.7444,-1.7418,-1.7285,-1.7052,-1.6732,-1.6024,-1.6266,-1.6287,-1.6171,-1.5899,-1.534,-1.4361,-1.3635,-1.3127,-1.2936,-1.2739,-1.2682,-1.254,-1.2474,-1.2436,-1.2436,-1.2436,-1.2436,-1.2436,-1.2436,-1.2436,-1.2436,-1.2436,-1.2436,-1.2436,-1.2436,-1.2436,-1.2398,-1.2398,-1.2323,-1.2191,-1.1983,-1.1728,-1.1557,-1.1425,-1.1321,-1.1255,-1.1189,-1.1189,-1.1189,-1.1189,-1.1002,-1.0708,-1.0117,-0.9426,-0.8435,-0.754,-0.6537,-0.6042,-0.5741,-0.5636,-0.5541,-0.5536,-0.5541,-0.534,-0.514,-0.4839,-0.4638,-0.4336,-0.4034,-0.3836,-0.3836,-0.3736,-0.3534,-0.3232,-2.5194,-2.41,-2.3479,-2.2856,-2.262,-2.2856,-2.3678,-2.4922,-2.4176,-2.3678,-2.3738,-2.3881,-2.4065,-2.4203,-2.432,-2.4195,-2.4111,-2.3952,-2.3679,-2.3679,-2.3816,-2.3679,-2.3816,-2.3938,-2.4074,-2.4345,-2.4752,-2.5292,-2.5712,-2.5981,-2.5981,-2.5427,-2.4785,-2.3792,-2.3144,-2.2338,-2.2044,-2.1693,-2.1607,-2.1146,-2.0488,-1.9504,-1.909,-1.8415,-1.7445,-1.7053,-1.6774,-1.6444,-1.6198,-1.5853,-1.5266,-1.5276,-1.5365,-1.5189,-1.4848,-1.444,-1.3885,-1.3403,-1.3088,-1.289,-1.2786,-1.2637,-1.2468,-1.2465,-1.2436,-1.2436,-1.2446,-1.2474,-1.2484,-1.2493,-1.2502,-1.2493,-1.2465,-1.2446,-1.2446,-1.2436,-1.2436,-1.2436,-1.2436,-1.2398,-1.2266,-1.2143,-1.1879,-1.168,-1.1557,-1.1435,-1.134,-1.1283,-1.1217,-1.1217,-1.1002,-1.0904,-1.0502,-0.9912,-0.9122,-0.823,-0.7235,-0.6437,-0.5937,-0.5445,-0.5258,-0.5258,-0.5244,-0.5144,-0.4947,-0.4746,-0.4541,-0.4239,-0.4038,-0.3836,-0.3635,-0.3635,-0.3534,-0.3332,-0.3232,-2.3713,-2.2745,-2.223,-2.174,-2.1362,-2.1362,-2.2048,-2.286,-2.2774,-2.2591,-2.2341,-2.2665,-2.2808,-2.299,-2.289,-2.2928,-2.2795,-2.2806,-2.2722,-2.2585,-2.2448,-2.2598,-2.2598,-2.2448,-2.2559,-2.2832,-2.3243,-2.4088,-2.4481,-2.4931,-2.4946,-2.4559,-2.3774,-2.3052,-2.2506,-2.1984,-2.1483,-2.1196,-2.0958,-2.0671,-2.0185,-1.9507,-1.8958,-1.8351,-1.7385,-1.6633,-1.6367,-1.5893,-1.5485,-1.5284,-1.4836,-1.4856,-1.4884,-1.4799,-1.4563,-1.4203,-1.3977,-1.3646,-1.34,-1.3164,-1.2889,-1.273,-1.2571,-1.255,-1.2465,-1.2436,-1.2502,-1.2559,-1.2569,-1.2578,-1.2578,-1.2559,-1.2502,-1.2455,-1.2446,-1.2436,-1.2436,-1.2436,-1.2427,-1.2417,-1.2342,-1.2238,-1.2068,-1.186,-1.1718,-1.1642,-1.1595,-1.1557,-1.1425,-1.1293,-1.0941,-1.0708,-1.0207,-0.9608,-0.8825,-0.7839,-0.6936,-0.6037,-0.5436,-0.5048,-0.4867,-0.479,-0.4696,-0.4579,-0.4459,-0.4351,-0.4239,-0.4038,-0.3736,-0.3635,-0.3534,-0.3433,-0.3433,-0.3332,-0.3232,-2.2355,-2.1488,-2.1109,-2.0602,-2.0106,-2.0106,-2.0094,-1.9954,-2.1222,-2.156,-2.1155,-2.1335,-2.1679,-2.176,-2.1661,-2.1671,-2.1687,-2.1782,-2.176,-2.1772,-2.1772,-2.1772,-2.1772,-2.1747,-2.1632,-2.1645,-2.2167,-2.2781,-2.361,-2.3938,-2.3941,-2.3678,-2.318,-2.2519,-2.1925,-2.1533,-2.1143,-2.0906,-2.0629,-2.0491,-2.0027,-1.9485,-1.9039,-1.838,-1.7421,-1.6328,-1.6125,-1.56,-1.4931,-1.4865,-1.4928,-1.4871,-1.4808,-1.4855,-1.4619,-1.4402,-1.4166,-1.392,-1.3636,-1.3391,-1.3365,-1.3088,-1.2909,-1.2748,-1.2654,-1.255,-1.2606,-1.2691,-1.271,-1.271,-1.2701,-1.2663,-1.2616,-1.2512,-1.2446,-1.2436,-1.2436,-1.2436,-1.2436,-1.2427,-1.2408,-1.2313,-1.2238,-1.2039,-1.1917,-1.186,-1.1775,-1.1746,-1.1569,-1.1372,-1.1116,-1.0635,-1.0095,-0.9498,-0.8478,-0.7478,-0.6542,-0.5741,-0.5153,-0.4778,-0.4614,-0.4431,-0.4143,-0.4215,-0.4278,-0.4048,-0.3937,-0.3836,-0.3736,-0.3534,-0.3433,-0.3332,-0.3232,-0.3232,-0.3232,-2.1096,-2.0462,-1.9839,-1.9456,-1.934,-1.934,-1.9328,-1.9328,-1.9584,-1.9954,-2.0182,-2.0361,-2.0503,-2.0501,-2.0636,-2.0781,-2.0798,-2.1021,-2.0906,-2.1081,-2.1081,-2.1183,-2.1032,-2.1034,-2.0661,-2.0551,-2.0896,-2.1597,-2.2308,-2.2603,-2.2735,-2.2276,-2.2025,-2.1634,-2.1217,-2.1077,-2.0877,-2.0665,-2.0388,-2.0249,-1.9947,-1.9623,-1.9243,-1.8353,-1.7381,-1.6614,-1.6082,-1.5458,-1.4969,-1.4903,-1.4871,-1.4823,-1.4695,-1.4714,-1.4572,-1.4345,-1.4299,-1.408,-1.387,-1.3651,-1.3508,-1.3403,-1.325,-1.3136,-1.2899,-1.2767,-1.2739,-1.2814,-1.2862,-1.2862,-1.2824,-1.2776,-1.2691,-1.2559,-1.2436,-1.2436,-1.2436,-1.2436,-1.2436,-1.2436,-1.2436,-1.2398,-1.2332,-1.2257,-1.2143,-1.2011,-1.1869,-1.1709,-1.1634,-1.1438,-1.125,-1.0852,-1.018,-0.9431,-0.8282,-0.7351,-0.6433,-0.5616,-0.5018,-0.4743,-0.4361,-0.4368,-0.4275,-0.4233,-0.43,-0.4159,-0.4135,-0.4034,-0.3833,-0.3732,-0.3433,-0.3433,-0.3332,-0.3232,-0.3232,-1.9444,-1.8932,-1.8944,-1.8828,-1.8956,-1.9084,-1.9072,-1.9072,-1.9072,-1.92,-1.9444,-1.9596,-1.9683,-1.9597,-1.9842,-2.0111,-2.0122,-2.0376,-2.0683,-2.0629,-2.0617,-2.0719,-2.0622,-2.0464,-2.0047,-1.9927,-2.038,-2.0994,-2.1205,-2.1607,-2.1622,-2.1333,-2.1057,-2.0918,-2.0653,-2.0653,-2.0653,-2.0665,-2.0237,-1.997,-1.982,-1.9518,-1.8938,-1.8175,-1.7444,-1.6807,-1.6191,-1.5565,-1.5288,-1.5211,-1.5475,-1.5228,-1.5199,-1.516,-1.4974,-1.4739,-1.4544,-1.4397,-1.4081,-1.3946,-1.3829,-1.3732,-1.3664,-1.3423,-1.3184,-1.3079,-1.3069,-1.3145,-1.3154,-1.3154,-1.3003,-1.2928,-1.272,-1.255,-1.2474,-1.2436,-1.2436,-1.2436,-1.2436,-1.2436,-1.2436,-1.2427,-1.238,-1.238,-1.2285,-1.2168,-1.2009,-1.1856,-1.1645,-1.1379,-1.1292,-1.0949,-1.0248,-0.9308,-0.8137,-0.7188,-0.6442,-0.5719,-0.5093,-0.4631,-0.4355,-0.4425,-0.44,-0.459,-0.4747,-0.4657,-0.4638,-0.4541,-0.4437,-0.4336,-0.4034,-0.3732,-0.3534,-0.3338,-0.324,-1.7647,-1.7529,-1.8185,-1.8571,-1.8699,-1.8944,-1.9072,-1.9072,-1.9072,-1.9072,-1.92,-1.92,-1.9072,-1.9157,-1.935,-1.9591,-1.9845,-2.011,-2.0352,-2.046,-2.0496,-2.0525,-2.0539,-2.0294,-1.9783,-1.9723,-2.0051,-2.0136,-2.0343,-2.0724,-2.0872,-2.0695,-2.0569,-2.0557,-2.0581,-2.0593,-2.0557,-2.0395,-1.998,-1.9773,-1.9518,-1.9111,-1.8681,-1.8047,-1.7354,-1.6864,-1.636,-1.5874,-1.5517,-1.5652,-1.5814,-1.5693,-1.5543,-1.5326,-1.5212,-1.4981,-1.4821,-1.4691,-1.457,-1.4391,-1.4153,-1.3947,-1.4015,-1.383,-1.3471,-1.3384,-1.3381,-1.341,-1.3419,-1.3343,-1.3192,-1.3003,-1.2786,-1.2578,-1.2512,-1.2436,-1.2436,-1.2436,-1.2436,-1.2436,-1.2436,-1.2436,-1.2327,-1.2327,-1.2327,-1.2327,-1.211,-1.2001,-1.1746,-1.1432,-1.1173,-1.0816,-1.0289,-0.9133,-0.8098,-0.7515,-0.6851,-0.6123,-0.5606,-0.484,-0.4449,-0.4729,-0.5014,-0.5092,-0.5235,-0.5426,-0.5464,-0.5358,-0.5253,-0.4947,-0.4533,-0.4038,-0.3567,-0.3366,-0.3256,-1.6602,-1.713,-1.7776,-1.8302,-1.8571,-1.8944,-1.9072,-1.9072,-1.9072,-1.9072,-1.9072,-1.9072,-1.9072,-1.9096,-1.935,-1.9543,-1.9627,-1.9857,-1.9941,-2.0026,-2.0134,-2.0356,-2.0367,-1.9929,-1.9483,-1.9483,-1.9579,-1.9627,-1.9869,-2.0148,-2.0184,-2.0086,-2.0074,-2.0074,-2.0098,-2.0158,-2.0143,-1.9858,-1.9611,-1.945,-1.9082,-1.871,-1.8552,-1.7907,-1.7364,-1.7001,-1.6506,-1.6161,-1.5942,-1.5914,-1.6084,-1.5971,-1.5926,-1.5741,-1.5504,-1.5401,-1.5104,-1.4991,-1.4898,-1.4769,-1.4559,-1.4203,-1.4183,-1.3936,-1.375,-1.3523,-1.3589,-1.3589,-1.357,-1.3485,-1.3334,-1.3126,-1.2909,-1.2682,-1.2559,-1.2484,-1.2436,-1.2436,-1.2436,-1.2436,-1.2436,-1.2327,-1.2327,-1.2219,-1.211,-1.201,-1.1782,-1.1673,-1.1455,-1.1236,-1.1025,-1.0639,-1.0256,-0.9761,-0.9012,-0.8255,-0.7575,-0.6844,-0.6129,-0.5669,-0.5377,-0.5469,-0.5651,-0.6027,-0.6132,-0.6308,-0.6256,-0.6428,-0.5891,-0.5583,-0.5048,-0.4549,-0.399,-0.3509,-0.3406]},{"header":{"parameterUnit":"m.s-1","parameterCategory":1,"la1":31.0,"la2":29.5877,"lo1":-88.7671,"lo2":-86.6584,"dy":0.0162,"dx":0.0185,"nx":115,"ny":88,"refTime":"2023-08-05T00:00:00:Z","depth":0,"parameterNumber":3,"parameterNumberName":"V-component_of_WINDS"},"data":[0.0,0.0,0.0,0.0,0.0,0.0,0.0,0.0,0.0,0.0,0.0,0.0,0.0,0.0,0.0,0.0,0.0,0.0,0.0,0.0,0.0,0.0,0.0,0.0,0.0,0.0,0.0,0.0,0.0,0.0,0.0,0.0,0.0,0.0,0.0,0.0,0.0,0.0,0.0,0.0,0.0,0.0,0.0,0.0,0.0,0.0,0.0,0.0,0.0,0.0,0.0,0.0,0.0,0.0,0.0,0.0,0.0,0.0,0.0,0.0,0.0,0.0,0.0,0.0,0.0,0.0,0.0,0.0,0.0,0.0,0.0,0.0,0.0,0.0,0.0,0.0,0.0,0.0,0.0,0.0,0.0,0.0,0.0,0.0,0.0,0.0,0.0,0.0,0.0,0.0,0.0,0.0,0.0,0.0,0.0,0.0,0.0,0.0,0.0,0.0,0.0,0.0,0.0,0.0,0.0,0.0,0.0,0.0,0.0,0.0,0.0,0.0,0.0,0.0,0.0,0.0,0.0,0.0,0.0,0.0,0.0,0.0,0.0,0.0,0.0,0.0,0.0,0.0,0.0,0.0,0.0,0.0,0.0,0.0,0.0,0.0,0.0,0.0,0.0,0.0,0.0,0.0,0.0,0.0,0.0,0.0,0.0,0.0,0.0,0.0,0.0,0.0,0.0,0.0,0.0,0.0,0.0,0.0,0.0,0.0,0.0,0.0,0.0,0.0,0.0,0.0,0.0,0.0,0.0,0.0,0.0,0.0,0.0,0.0,0.0,0.0,0.0,0.0,0.0,0.0,0.0,0.0,0.0,0.0,0.0,0.0,0.0,0.0,0.0,0.0,0.0,0.0,0.0,0.0,0.0,0.0,0.0,0.0,0.0,0.0,0.0,0.0,0.0,0.0,0.0,0.0,0.0,0.0,0.0,0.0,0.0,0.0,0.0,0.0,0.0,0.0,0.0,0.0,0.0,0.0,0.0,0.0,0.0,0.0,0.0,0.0,0.0,0.0,0.0,0.0,0.0,0.0,0.0,0.0,0.0,0.0,0.0,0.0,0.0,0.0,0.0,0.0,0.0,0.0,0.0,0.0,0.0,0.0,0.0,0.0,0.0,0.0,0.0,0.0,0.0,0.0,0.0,0.0,0.0,0.0,0.0,0.0,0.0,0.0,0.0,0.0,0.0,0.0,0.0,0.0,0.0,0.0,0.0,0.0,0.0,0.0,0.0,0.0,0.0,0.0,0.0,0.0,0.0,0.0,0.0,0.0,0.0,0.0,0.0,0.0,0.0,0.0,0.0,0.0,0.0,0.0,0.0,0.0,0.0,0.0,0.0,0.0,0.0,0.0,0.0,0.0,0.0,0.0,0.0,0.0,0.0,0.0,0.0,0.0,0.0,0.0,0.0,0.0,0.0,0.0,0.0,0.0,0.0,0.0,0.0,0.0,0.0,0.0,0.0,0.0,0.0,0.0,0.0,0.0,0.0,0.0,0.0,0.0,0.0,0.0,0.0,0.0,0.0,0.0,0.0,0.0,0.0,0.0,0.0,0.0,0.0,0.0,0.0,0.0,0.0,0.0,0.0,0.0,0.0,0.0,0.0,0.0,0.0,0.0,0.0,0.0,0.0,0.0,0.0,0.0,0.0,0.0,0.0,0.0,0.0,0.0,0.0,0.0,0.0,0.0,0.0,0.0,0.0,0.0,0.0,0.0,0.0,0.0,0.0,0.0,0.0,0.0,0.0,0.0,0.0,0.0,0.0,0.0,0.0,0.0,0.0,0.0,0.0,0.0,0.0,0.0,0.0,0.0,0.0,0.0,0.0,0.0,0.0,0.0,0.0,0.0,0.0,0.0,0.0,0.0,0.0,0.0,0.0,0.0,0.0,0.0,0.0,0.0,0.0,0.0,0.0,0.0,0.0,0.0,0.0,0.0,0.0,0.0,0.0,0.0,0.0,0.0,0.0,0.0,0.0,0.0,0.0,0.0,0.0,0.0,0.0,0.0,0.0,0.0,0.0,0.0,0.0,0.0,0.0,0.0,0.0,0.0,0.0,0.0,0.0,0.0,0.0,0.0,0.0,0.0,0.0,0.0,0.0,0.0,0.0,0.0,0.0,0.0,0.0,0.0,0.0,0.0,0.0,0.0,0.0,0.0,0.0,0.0,0.0,0.0,0.0,0.0,0.0,0.0,0.0,0.0,0.0,0.0,0.0,0.0,0.0,0.0,0.0,0.0,0.0,0.0,0.0,0.0,0.0,0.0,0.0,0.0,0.0,0.0,0.0,0.0,0.0,0.0,0.0,0.0,0.0,0.0,0.0,0.0,0.0,0.0,0.0,0.0,0.0,0.0,0.0,0.0,0.0,0.0,0.0,0.0,0.0,0.0,0.0,0.0,0.0,0.0,0.0,0.0,0.0,0.0,0.0,0.0,0.0,0.0,0.0,0.0,0.0,0.0,0.0,0.0,0.0,0.0,0.0,0.0,0.0,0.0,0.0,0.0,0.0,0.0,0.0,0.0,0.0,0.0,0.0,0.0,0.0,0.0,0.0,0.0,0.0,0.0,0.0,0.0,0.0,0.0,0.0,0.0,0.0,0.0,0.0,0.0,0.0,0.0,0.0,0.0,0.0,0.0,0.0,0.0,0.0,0.0,0.0,0.0,0.0,0.0,0.0,0.0,0.0,0.0,0.0,0.0,0.0,0.0,0.0,0.0,0.0,0.0,0.0,0.0,0.0,0.0,0.0,0.0,0.0,0.0,0.0,0.0,0.0,0.0,0.0,0.0,0.0,0.0,0.0,0.0,0.0,0.0,0.0,0.0,0.0,0.0,0.0,0.0,0.0,0.0,0.0,0.0,0.0,0.0,0.0,0.0,0.0,0.0,0.0,0.0,0.0,0.0,0.0,0.0,0.0,0.0,0.0,0.0,0.0,0.0,0.0,0.0,0.0,0.0,0.0,0.0,0.0,0.0,0.0,0.0,0.0,0.0,0.0,0.0,0.0,0.0,0.0,0.0,0.0,0.0,0.0,0.0,0.0,0.0,0.0,0.0,0.0,0.0,0.0,0.0,0.0,0.0,0.0,0.0,0.0,0.0,0.0,0.0,0.0,0.0,0.0,0.0,0.0,0.0,0.0,0.0,0.0,0.0,0.0,0.0,0.0,0.0,0.0,0.0,0.0,0.0,0.0,0.0,0.0,0.0,0.0,0.0,0.0,0.0,0.0,0.0,0.0,0.0,0.0,0.0,0.0,0.0,0.0,0.0,0.0,0.0,0.0,0.0,0.0,0.0,0.0,0.0,0.0,0.0,0.0,0.0,0.0,0.0,0.0,0.0,0.0,0.0,0.0,0.0,0.0,0.0,0.0,0.0,0.0,0.0,0.0,0.0,0.0,0.0,0.0,0.0,0.0,0.0,0.0,0.0,0.0,0.0,0.0,0.0,0.0,0.0,0.0,0.0,0.0,0.0,0.0,0.0,0.0,0.0,0.0,0.0,0.0,0.0,0.0,0.0,0.0,0.0,0.0,0.0,0.0,0.0,0.0,0.0,0.0,0.0,0.0,0.0,0.0,0.0,0.0,0.0,0.0,0.0,0.0,0.0,0.0,0.0,0.0,0.0,0.0,0.0,0.0,0.0,0.0,0.0,0.0,0.0,0.0,0.0,0.0,0.0,0.0,0.0,0.0,0.0,0.0,0.0,0.0,0.0,0.0,0.0,0.0,0.0,0.0,0.0,0.0,0.0,0.0,0.0,0.0,0.0,0.0,0.0,0.0,0.0,0.0,0.0,0.0,0.0,0.0,0.0,0.0,0.0,0.0,0.0,0.0,0.0,0.0,0.0,0.0,0.0,0.0,0.0,0.0,0.0,0.0,0.0,0.0,0.0,0.0,0.0,0.0,0.0,0.0,0.0,0.0,0.0,0.0,0.0,0.0,0.0,0.0,0.0,0.0,0.0,0.0,0.0,0.0,0.0,0.0,0.0,0.0,0.0,0.0,0.0,0.0,0.0,0.0,0.0,0.0,0.0,0.0,0.0,0.0,0.0,0.0,0.0,0.0,0.0,0.0,0.0,0.0,0.0,0.0,0.0,0.0,0.0,0.0,0.0,0.0,0.0,0.0,0.0,0.0,0.0,0.0,0.0,0.0,0.0,0.0,0.0,0.0,0.0,0.0,0.0,0.0,0.0,0.0,0.0,0.0,0.0,0.0,0.0,0.0,0.0,0.0,0.0,0.0,0.0,0.0,0.0,0.0,0.0,0.0,0.0,0.0,0.0,0.0,0.0,-0.5804,0.0,0.0,0.0,0.0,0.0,0.0,0.0,0.0,0.0,0.0,0.0,0.0,0.0,0.0,0.0,0.0,0.0,0.0,0.0,0.0,0.0,0.0,0.0,0.0,0.0,0.0,0.0,0.0,0.0,0.0,0.0,0.0,0.0,0.0,0.0,0.0,0.0,0.0,0.0,0.0,0.0,0.0,0.0,0.0,0.0,0.0,0.0,0.0,0.0,0.0,0.0,0.0,0.0,0.0,0.0,0.0,0.0,0.0,0.0,0.0,0.0,0.0,0.0,0.0,0.0,0.0,0.0,0.0,0.0,0.0,0.0,0.0,0.0,0.0,0.0,0.0,0.0,0.0,0.0,0.0,0.0,0.0,0.0,0.0,0.0,0.0,0.0,0.0,0.0,0.0,0.0,0.0,0.0,0.0,0.0,0.0,0.0,0.0,0.0,0.0,0.0,0.0,0.0,0.0,0.0,0.0,0.0,0.0,0.0,0.0,-0.6224,-0.6098,-0.6219,-0.6257,-0.6237,0.0,0.0,0.0,0.0,0.0,0.0,0.0,0.0,0.0,0.0,0.0,0.0,0.0,0.0,0.0,0.0,0.0,0.0,0.0,0.0,0.0,0.0,0.0,0.0,0.0,0.0,0.0,0.0,0.0,0.0,0.0,0.0,0.0,0.0,0.0,0.0,0.0,0.0,0.0,0.0,0.0,0.0,0.0,0.0,0.0,0.0,0.0,0.0,0.0,0.0,0.0,0.0,0.0,0.0,0.0,0.0,0.0,0.0,0.0,0.0,0.0,0.0,0.0,0.0,0.0,0.0,0.0,0.0,0.0,0.0,0.0,0.0,0.0,0.0,0.0,0.0,0.0,0.0,0.0,0.0,0.0,0.0,0.0,0.0,0.0,0.0,0.0,0.0,0.0,0.0,0.0,0.0,0.0,0.0,0.0,0.0,0.0,0.0,0.0,0.0,0.0,0.0,0.0,0.0,0.0,0.0,0.0,0.0,0.0,0.0,0.0,0.0,-0.6671,-0.6723,-0.6591,0.0,0.0,0.0,0.0,0.0,0.0,0.0,0.0,0.0,0.0,0.0,0.0,0.0,0.0,0.0,0.0,0.0,0.0,0.0,0.0,0.0,0.0,0.0,0.0,0.0,0.0,0.0,0.0,0.0,0.0,0.0,0.0,0.0,0.0,0.0,0.0,0.0,0.0,0.0,0.0,0.0,0.0,0.0,0.0,0.0,0.0,0.0,0.0,0.0,0.0,0.0,0.0,0.0,0.0,0.0,0.0,0.0,0.0,0.0,0.0,0.0,0.0,0.0,0.0,0.0,0.0,0.0,0.0,0.0,0.0,0.0,0.0,0.0,0.0,0.0,0.0,0.0,0.0,0.0,0.0,0.0,0.0,0.0,0.0,0.0,0.0,0.0,0.0,0.0,0.0,0.0,0.0,0.0,0.0,0.0,0.0,0.0,0.0,0.0,0.0,0.0,0.0,0.0,0.0,0.0,0.0,0.0,0.0,0.0,0.0,-0.7246,-0.7549,-0.7417,0.0,-0.6571,0.0,0.0,0.0,0.0,0.0,0.0,0.0,0.0,0.0,0.0,0.0,0.0,0.0,0.0,0.0,0.0,0.0,0.0,0.0,0.0,0.0,0.0,0.0,0.0,0.0,0.0,0.0,0.0,0.0,0.0,0.0,0.0,0.0,0.0,0.0,0.0,0.0,0.0,0.0,0.0,0.0,0.0,0.0,0.0,0.0,0.0,0.0,0.0,0.0,0.0,0.0,0.0,0.0,0.0,0.0,0.0,0.0,0.0,0.0,0.0,0.0,0.0,0.0,0.0,0.0,0.0,0.0,0.0,0.0,0.0,0.0,0.0,0.0,0.0,0.0,0.0,0.0,0.0,0.0,0.0,0.0,0.0,0.0,0.0,0.0,0.0,0.0,0.0,0.0,0.0,0.0,0.0,0.0,0.0,0.0,0.0,0.0,0.0,0.0,0.0,0.0,0.0,0.0,0.0,0.0,0.0,0.0,0.0,0.0,0.0,-0.8245,-0.8299,-0.8413,-0.8332,0.0,0.0,0.0,0.0,0.0,0.0,0.0,0.0,0.0,0.0,0.0,0.0,0.0,0.0,0.0,0.0,0.0,0.0,0.0,0.0,0.0,0.0,0.0,0.0,0.0,0.0,0.0,0.0,0.0,0.0,0.0,0.0,0.0,0.0,0.0,0.0,0.0,0.0,0.0,0.0,0.0,0.0,0.0,0.0,0.0,0.0,0.0,0.0,0.0,0.0,0.0,0.0,0.0,0.0,0.0,0.0,0.0,0.0,0.0,0.0,0.0,0.0,0.0,0.0,0.0,0.0,0.0,0.0,0.0,0.0,0.0,0.0,0.0,0.0,0.0,0.0,0.0,0.0,0.0,0.0,0.0,0.0,0.0,0.0,0.0,0.0,0.0,0.0,0.0,0.0,0.0,0.0,0.0,0.0,0.0,0.0,0.0,0.0,0.0,0.0,0.0,0.0,0.0,0.0,0.0,0.0,0.0,0.0,0.0,0.0,-0.8437,-0.8777,-0.8898,-0.9295,-0.9232,-0.8708,0.0,0.0,0.0,0.0,0.0,0.0,0.0,0.0,0.0,0.0,0.0,0.0,0.0,0.0,0.0,0.0,0.0,0.0,0.0,0.0,0.0,0.0,0.0,0.0,0.0,0.0,0.0,0.0,0.0,0.0,0.0,0.0,0.0,0.0,0.0,0.0,0.0,0.0,0.0,0.0,0.0,0.0,0.0,0.0,0.0,0.0,0.0,0.0,0.0,0.0,0.0,0.0,0.0,0.0,0.0,0.0,0.0,0.0,0.0,0.0,0.0,0.0,0.0,0.0,0.0,0.0,0.0,0.0,0.0,0.0,0.0,0.0,0.0,0.0,0.0,0.0,0.0,0.0,0.0,0.0,0.0,0.0,0.0,0.0,0.0,0.0,0.0,0.0,0.0,0.0,0.0,0.0,0.0,0.0,0.0,0.0,0.0,0.0,0.0,0.0,0.0,0.0,0.0,0.0,0.0,0.0,0.0,0.0,-0.851,-0.8436,-0.8675,-0.9398,-0.9956,-0.955,0.0,0.0,0.0,0.0,0.0,0.0,0.0,0.0,0.0,0.0,0.0,0.0,0.0,0.0,0.0,0.0,0.0,0.0,0.0,0.0,0.0,0.0,0.0,0.0,0.0,0.0,0.0,0.0,0.0,0.0,0.0,0.0,0.0,0.0,0.0,0.0,0.0,0.0,0.0,0.0,0.0,0.0,0.0,0.0,0.0,0.0,0.0,0.0,0.0,0.0,0.0,0.0,0.0,0.0,0.0,0.0,0.0,0.0,0.0,0.0,0.0,0.0,0.0,0.0,0.0,0.0,0.0,0.0,0.0,0.0,0.0,0.0,0.0,0.0,0.0,0.0,0.0,0.0,0.0,0.0,0.0,0.0,0.0,0.0,0.0,0.0,0.0,0.0,0.0,0.0,0.0,0.0,0.0,0.0,0.0,0.0,0.0,0.0,0.0,0.0,0.0,0.0,0.0,0.0,0.0,0.0,0.0,0.0,0.0,-0.8894,-0.965,-1.0476,-1.1251,-1.0915,-1.0216,0.0,0.0,0.0,0.0,0.0,0.0,0.0,0.0,0.0,0.0,0.0,0.0,0.0,0.0,0.0,0.0,0.0,0.0,0.0,0.0,0.0,0.0,0.0,0.0,0.0,0.0,0.0,0.0,0.0,0.0,0.0,0.0,0.0,0.0,0.0,0.0,0.0,0.0,0.0,0.0,0.0,0.0,0.0,0.0,0.0,0.0,0.0,0.0,0.0,0.0,0.0,0.0,0.0,0.0,0.0,0.0,0.0,0.0,0.0,0.0,0.0,0.0,0.0,0.0,0.0,0.0,0.0,0.0,0.0,0.0,0.0,0.0,0.0,0.0,0.0,0.0,0.0,0.0,0.0,0.0,0.0,0.0,0.0,0.0,0.0,0.0,0.0,0.0,0.0,0.0,0.0,0.0,0.0,0.0,0.0,0.0,0.0,0.0,0.0,0.0,0.0,0.0,0.0,0.0,0.0,0.0,0.0,0.0,0.0,-0.9674,0.0,-1.1707,-1.2109,-1.1679,-1.082,0.0,0.0,0.0,0.0,0.0,0.0,0.0,0.0,0.0,0.0,0.0,0.0,0.0,0.0,0.0,0.0,0.0,0.0,0.0,0.0,0.0,0.0,0.0,0.0,0.0,0.0,0.0,0.0,0.0,0.0,0.0,0.0,0.0,0.0,0.0,0.0,0.0,0.0,0.0,0.0,0.0,0.0,0.0,0.0,0.0,0.0,0.0,0.0,0.0,0.0,0.0,0.0,0.0,0.0,0.0,0.0,0.0,0.0,0.0,0.0,0.0,0.0,0.0,0.0,0.0,0.0,0.0,0.0,0.0,0.0,0.0,0.0,0.0,0.0,0.0,0.0,0.0,0.0,0.0,0.0,0.0,0.0,0.0,0.0,0.0,0.0,0.0,0.0,0.0,0.0,0.0,0.0,0.0,0.0,0.0,0.0,0.0,0.0,0.0,0.0,0.0,0.0,0.0,0.0,0.0,0.0,0.0,0.0,-0.9673,-1.102,-1.2071,-1.2375,-1.1722,-1.2211,-1.1342,0.0,0.0,0.0,0.0,0.0,0.0,0.0,0.0,0.0,0.0,0.0,0.0,0.0,0.0,0.0,0.0,0.0,0.0,0.0,0.0,0.0,0.0,0.0,0.0,0.0,0.0,0.0,0.0,0.0,0.0,0.0,0.0,0.0,0.0,0.0,0.0,0.0,0.0,0.0,0.0,0.0,0.0,0.0,0.0,0.0,0.0,0.0,0.0,0.0,0.0,0.0,0.0,0.0,0.0,0.0,0.0,0.0,0.0,0.0,0.0,0.0,0.0,0.0,0.0,0.0,0.0,0.0,0.0,0.0,0.0,0.0,0.0,0.0,0.0,0.0,0.0,0.0,0.0,0.0,0.0,0.0,0.0,0.0,0.0,0.0,0.0,0.0,0.0,0.0,0.0,0.0,0.0,0.0,0.0,0.0,0.0,0.0,0.0,0.0,0.0,0.0,0.0,0.0,0.0,0.0,0.0,0.0,0.0,0.0,-1.3377,-1.3734,-1.3997,-1.4141,-1.3457,-1.2096,0.0,0.0,0.0,0.0,0.0,0.0,0.0,0.0,0.0,0.0,0.0,0.0,0.0,0.0,0.0,0.0,0.0,0.0,0.0,0.0,0.0,0.0,0.0,0.0,0.0,0.0,0.0,0.0,0.0,0.0,0.0,0.0,0.0,0.0,0.0,0.0,0.0,0.0,0.0,0.0,0.0,0.0,0.0,0.0,0.0,0.0,0.0,0.0,0.0,0.0,0.0,0.0,0.0,0.0,0.0,0.0,0.0,0.0,0.0,0.0,0.0,0.0,0.0,0.0,0.0,0.0,0.0,0.0,0.0,0.0,0.0,0.0,0.0,0.0,0.0,0.0,0.0,0.0,0.0,0.0,0.0,0.0,0.0,0.0,0.0,0.0,0.0,0.0,0.0,0.0,0.0,0.0,0.0,0.0,0.0,0.0,0.0,0.0,0.0,0.0,0.0,0.0,0.0,0.0,0.0,0.0,0.0,0.0,0.0,-1.6841,-1.6274,-1.6039,-1.6337,-1.5298,-1.362,-1.127,0.0,0.0,0.0,0.0,0.0,0.0,0.0,0.0,0.0,0.0,0.0,0.0,0.0,0.0,0.0,0.0,0.0,0.0,0.0,0.0,0.0,0.0,0.0,0.0,0.0,0.0,0.0,0.0,0.0,0.0,0.0,0.0,0.0,0.0,0.0,0.0,0.0,0.0,0.0,0.0,0.0,0.0,0.0,0.0,0.0,0.0,0.0,0.0,0.0,0.0,0.0,0.0,0.0,0.0,0.0,0.0,0.0,0.0,0.0,0.0,0.0,0.0,0.0,0.0,0.0,0.0,0.0,0.0,0.0,0.0,0.0,0.0,0.0,0.0,0.0,0.0,0.0,0.0,0.0,0.0,0.0,0.0,0.0,0.0,0.0,0.0,0.0,0.0,0.0,0.0,0.0,0.0,0.0,0.0,0.0,0.0,0.0,0.0,0.0,0.0,0.0,0.0,0.0,0.0,0.0,0.0,0.0,0.0,-2.1247,-1.972,-1.8748,-1.8497,-1.767,-1.5821,0.0,0.0,0.0,0.0,0.0,0.0,0.0,0.0,0.0,0.0,0.0,0.0,0.0,0.0,0.0,0.0,0.0,0.0,0.0,0.0,0.0,0.0,0.0,0.0,0.0,0.0,0.0,0.0,0.0,0.0,0.0,0.0,0.0,0.0,0.0,0.0,0.0,0.0,0.0,0.0,0.0,0.0,0.0,0.0,0.0,0.0,0.0,0.0,0.0,0.0,0.0,0.0,0.0,0.0,0.0,0.0,0.0,0.0,0.0,0.0,0.0,0.0,0.0,0.0,0.0,0.0,0.0,0.0,0.0,0.0,0.0,0.0,0.0,0.0,0.0,0.0,0.0,0.0,0.0,0.0,0.0,0.0,0.0,0.0,0.0,0.0,0.0,0.0,0.0,0.0,0.0,0.0,0.0,0.0,0.0,0.0,0.0,0.0,0.0,0.0,0.0,0.0,0.0,0.0,0.0,0.0,0.0,0.0,0.0,-2.385,-2.4984,-2.4746,-2.3067,-2.0902,-1.8594,0.0,0.0,0.0,0.0,0.0,0.0,0.0,0.0,0.0,0.0,0.0,0.0,0.0,0.0,0.0,0.0,0.0,0.0,0.0,0.0,0.0,0.0,0.0,0.0,0.0,0.0,0.0,0.0,0.0,0.0,0.0,0.0,0.0,0.0,0.0,0.0,0.0,0.0,0.0,0.0,0.0,0.0,0.0,0.0,0.0,0.0,0.0,0.0,0.0,0.0,0.0,0.0,0.0,0.0,0.0,0.0,0.0,0.0,0.0,0.0,0.0,0.0,0.0,0.0,0.0,0.0,0.0,0.0,0.0,0.0,0.0,0.0,0.0,0.0,0.0,0.0,0.0,0.0,0.0,0.0,0.0,0.0,0.0,0.0,0.0,0.0,0.0,0.0,0.0,0.0,0.0,0.0,0.0,0.0,0.0,0.0,0.0,0.0,0.0,0.0,0.0,0.0,0.0,0.0,0.0,0.0,0.0,0.0,-2.2731,-2.6547,-2.8666,-2.9338,-2.8533,-2.4691,-2.1232,0.0,0.0,0.0,0.0,0.0,0.0,0.0,0.0,0.0,0.0,0.0,0.0,0.0,0.0,0.0,0.0,0.0,0.0,0.0,0.0,0.0,0.0,0.0,0.0,0.0,0.0,0.0,0.0,0.0,0.0,0.0,0.0,0.0,0.0,0.0,0.0,0.0,0.0,0.0,0.0,0.0,0.0,0.0,0.0,0.0,0.0,0.0,0.0,0.0,0.0,0.0,0.0,0.0,0.0,0.0,0.0,0.0,0.0,0.0,0.0,0.0,0.0,0.0,0.0,0.0,0.0,0.0,0.0,0.0,0.0,0.0,0.0,0.0,0.0,0.0,0.0,0.0,0.0,0.0,0.0,0.0,0.0,0.0,0.0,0.0,0.0,0.0,0.0,0.0,0.0,0.0,0.0,0.0,0.0,0.0,0.0,0.0,0.0,0.0,0.0,0.0,0.0,0.0,0.0,0.0,0.0,0.0,0.0,-2.4781,-2.896,-3.1213,-3.2737,-3.3479,-2.8526,-2.3957,0.0,0.0,0.0,0.0,0.0,0.0,0.0,0.0,0.0,0.0,0.0,0.0,0.0,0.0,0.0,0.0,0.0,0.0,0.0,0.0,0.0,0.0,0.0,0.0,0.0,0.0,0.0,0.0,0.0,0.0,0.0,0.0,0.0,0.0,0.0,0.0,0.0,0.0,0.0,0.0,0.0,0.0,0.0,0.0,0.0,0.0,0.0,0.0,0.0,0.0,0.0,0.0,0.0,0.0,0.0,0.0,0.0,0.0,0.0,0.0,0.0,0.0,0.0,0.0,0.0,0.0,0.0,0.0,0.0,0.0,0.0,0.0,0.0,0.0,0.0,0.0,0.0,0.0,0.0,0.0,0.0,0.0,0.0,0.0,0.0,0.0,0.0,0.0,0.0,0.0,0.0,0.0,0.0,0.0,0.0,0.0,0.0,0.0,0.0,0.0,0.0,0.0,0.0,0.0,0.0,0.0,0.0,0.0,-2.6476,-3.0141,-3.2985,-3.4354,-3.4141,-3.0393,-2.7062,0.0,0.0,0.0,0.0,0.0,0.0,0.0,0.0,0.0,0.0,0.0,0.0,0.0,0.0,0.0,0.0,0.0,0.0,0.0,0.0,0.0,0.0,0.0,0.0,0.0,0.0,0.0,0.0,0.0,0.0,0.0,0.0,0.0,0.0,0.0,0.0,0.0,0.0,0.0,0.0,0.0,0.0,0.0,0.0,0.0,0.0,0.0,0.0,-0.9909,0.0,0.0,0.0,0.0,0.0,0.0,0.0,0.0,0.0,0.0,0.0,0.0,0.0,0.0,0.0,0.0,0.0,0.0,0.0,0.0,0.0,0.0,0.0,0.0,0.0,0.0,0.0,0.0,0.0,0.0,0.0,0.0,0.0,0.0,0.0,0.0,0.0,0.0,0.0,0.0,0.0,0.0,0.0,0.0,0.0,0.0,0.0,0.0,0.0,0.0,0.0,0.0,0.0,0.0,0.0,0.0,0.0,0.0,0.0,-2.8102,-3.1463,-3.4731,-3.6049,-3.5292,-3.3168,-3.0028,0.0,0.0,0.0,0.0,0.0,0.0,0.0,0.0,0.0,0.0,0.0,0.0,0.0,0.0,0.0,0.0,0.0,0.0,0.0,0.0,0.0,0.0,0.0,0.0,0.0,0.0,0.0,0.0,0.0,0.0,0.0,0.0,0.0,0.0,0.0,0.0,0.0,0.0,0.0,0.0,0.0,0.0,0.0,0.0,0.0,0.0,0.0,0.0,0.0,0.0,0.0,0.0,0.0,0.0,0.0,0.0,0.0,0.0,0.0,0.0,0.0,0.0,0.0,0.0,0.0,0.0,0.0,0.0,0.0,0.0,0.0,0.0,0.0,0.0,0.0,0.0,0.0,0.0,0.0,0.0,0.0,0.0,0.0,0.0,0.0,0.0,0.0,0.0,0.0,0.0,0.0,0.0,0.0,0.0,0.0,0.0,0.0,0.0,0.0,0.0,0.0,0.0,0.0,0.0,0.0,0.0,0.0,-2.6065,-2.9541,-3.2682,-3.6022,-3.744,-3.6609,-3.5625,-3.2368,-2.6612,0.0,0.0,0.0,0.0,0.0,0.0,0.0,0.0,0.0,0.0,0.0,0.0,0.0,0.0,0.0,0.0,0.0,0.0,0.0,0.0,0.0,0.0,0.0,0.0,0.0,0.0,0.0,0.0,0.0,0.0,0.0,0.0,0.0,0.0,0.0,0.0,0.0,0.0,-1.3212,-1.5327,0.0,0.0,0.0,0.0,0.0,0.0,0.0,0.0,-1.1435,0.0,0.0,0.0,0.0,0.0,0.0,0.0,0.0,0.0,0.0,0.0,0.0,0.0,0.0,0.0,0.0,0.0,0.0,0.0,0.0,0.0,0.0,0.0,0.0,0.0,0.0,0.0,0.0,0.0,0.0,0.0,0.0,0.0,0.0,0.0,0.0,0.0,0.0,0.0,0.0,0.0,0.0,0.0,0.0,0.0,0.0,0.0,0.0,0.0,0.0,0.0,0.0,0.0,0.0,0.0,0.0,-2.2282,-2.6783,-3.0635,-3.3594,-3.6147,-3.7309,-3.6974,-3.5454,-3.2577,-2.8282,0.0,0.0,0.0,0.0,0.0,0.0,0.0,0.0,0.0,0.0,0.0,0.0,0.0,0.0,0.0,0.0,0.0,0.0,0.0,0.0,0.0,0.0,0.0,0.0,0.0,0.0,0.0,0.0,0.0,0.0,0.0,0.0,0.0,0.0,0.0,0.0,0.0,0.0,0.0,-1.5858,-1.6864,0.0,0.0,0.0,0.0,0.0,0.0,0.0,0.0,-1.3364,0.0,0.0,0.0,0.0,0.0,0.0,0.0,0.0,0.0,0.0,0.0,0.0,0.0,0.0,0.0,0.0,0.0,0.0,0.0,0.0,0.0,0.0,0.0,0.0,0.0,0.0,0.0,0.0,0.0,0.0,0.0,0.0,0.0,0.0,0.0,0.0,0.0,0.0,0.0,0.0,0.0,0.0,0.0,0.0,0.0,0.0,0.0,0.0,0.0,0.0,0.0,0.0,0.0,0.0,0.0,-2.3552,-2.7799,-3.1301,-3.3977,-3.672,-3.7678,-3.6677,-3.5472,-3.2755,0.0,0.0,0.0,0.0,0.0,0.0,0.0,0.0,0.0,0.0,0.0,0.0,0.0,0.0,0.0,0.0,0.0,0.0,0.0,0.0,0.0,0.0,0.0,0.0,0.0,0.0,0.0,0.0,0.0,0.0,0.0,0.0,0.0,0.0,0.0,0.0,0.0,0.0,0.0,0.0,-1.7868,-1.8485,-1.897,0.0,0.0,0.0,0.0,0.0,0.0,-1.5305,-1.4721,0.0,0.0,0.0,0.0,0.0,0.0,0.0,0.0,0.0,0.0,0.0,0.0,0.0,0.0,0.0,0.0,0.0,0.0,0.0,0.0,0.0,0.0,0.0,0.0,0.0,0.0,0.0,0.0,0.0,0.0,0.0,0.0,0.0,0.0,0.0,0.0,0.0,0.0,0.0,0.0,0.0,0.0,0.0,0.0,0.0,0.0,0.0,0.0,0.0,0.0,0.0,0.0,0.0,0.0,0.0,-2.4659,-2.8691,-3.1903,-3.4329,-3.7077,-3.7861,-3.6363,-3.5048,-3.2246,0.0,0.0,0.0,0.0,0.0,0.0,0.0,0.0,0.0,0.0,0.0,0.0,0.0,0.0,0.0,0.0,0.0,0.0,0.0,0.0,0.0,0.0,0.0,0.0,0.0,0.0,0.0,0.0,0.0,0.0,0.0,0.0,0.0,0.0,0.0,0.0,0.0,0.0,0.0,0.0,0.0,-1.9992,-2.1003,-1.9761,0.0,0.0,0.0,0.0,-1.7892,-1.7027,0.0,0.0,0.0,0.0,0.0,0.0,0.0,0.0,0.0,0.0,0.0,0.0,0.0,0.0,0.0,0.0,0.0,0.0,0.0,0.0,0.0,0.0,0.0,0.0,0.0,0.0,0.0,0.0,0.0,0.0,0.0,0.0,0.0,0.0,0.0,0.0,0.0,0.0,0.0,0.0,0.0,0.0,0.0,0.0,0.0,0.0,0.0,0.0,0.0,0.0,0.0,0.0,0.0,0.0,0.0,0.0,-2.473,-2.9283,-3.2787,-3.5007,-3.6792,-3.7291,-3.6399,-3.3517,-3.0427,0.0,0.0,0.0,0.0,0.0,0.0,0.0,0.0,0.0,0.0,0.0,0.0,0.0,0.0,0.0,0.0,0.0,0.0,0.0,0.0,0.0,0.0,0.0,0.0,0.0,0.0,0.0,0.0,0.0,0.0,0.0,0.0,0.0,0.0,0.0,0.0,0.0,0.0,0.0,0.0,0.0,-2.0247,-2.1821,-2.0664,-1.9913,0.0,0.0,-2.0727,-2.0508,-1.9708,0.0,0.0,0.0,0.0,0.0,0.0,0.0,0.0,0.0,0.0,0.0,0.0,0.0,0.0,0.0,0.0,0.0,0.0,0.0,0.0,0.0,0.0,0.0,0.0,0.0,0.0,0.0,0.0,0.0,0.0,0.0,0.0,0.0,0.0,0.0,0.0,0.0,0.0,0.0,0.0,0.0,0.0,0.0,0.0,0.0,0.0,0.0,0.0,0.0,0.0,0.0,0.0,0.0,0.0,0.0,-2.1872,-2.5446,-2.9717,-3.3024,-3.5254,-3.6827,-3.7041,-3.5757,-3.3512,-3.0416,0.0,0.0,0.0,0.0,0.0,0.0,0.0,0.0,0.0,0.0,0.0,0.0,0.0,0.0,0.0,0.0,0.0,0.0,0.0,0.0,0.0,0.0,0.0,0.0,0.0,0.0,0.0,0.0,0.0,0.0,0.0,0.0,0.0,0.0,0.0,0.0,0.0,0.0,0.0,0.0,0.0,0.0,-2.3281,-2.1894,0.0,0.0,0.0,-2.255,-2.2431,0.0,0.0,0.0,0.0,0.0,0.0,0.0,0.0,0.0,0.0,0.0,0.0,0.0,0.0,0.0,0.0,0.0,0.0,0.0,0.0,0.0,0.0,0.0,0.0,0.0,0.0,0.0,0.0,0.0,0.0,0.0,0.0,0.0,0.0,0.0,0.0,0.0,0.0,0.0,0.0,0.0,0.0,0.0,0.0,0.0,0.0,0.0,0.0,0.0,0.0,0.0,0.0,0.0,0.0,0.0,0.0,0.0,-2.5985,-3.0132,-3.3301,-3.5357,-3.6897,-3.6898,-3.5257,-3.3508,0.0,0.0,0.0,0.0,0.0,0.0,0.0,0.0,0.0,0.0,0.0,0.0,0.0,0.0,0.0,0.0,0.0,0.0,0.0,0.0,0.0,0.0,0.0,0.0,0.0,0.0,0.0,-0.9947,0.0,0.0,0.0,0.0,0.0,0.0,0.0,0.0,0.0,0.0,0.0,0.0,0.0,0.0,-2.1582,-2.4708,-2.3544,-2.2892,0.0,0.0,-2.462,-2.4577,-2.3616,-2.2557,0.0,0.0,0.0,0.0,0.0,0.0,0.0,0.0,0.0,0.0,0.0,0.0,0.0,0.0,0.0,0.0,0.0,0.0,0.0,0.0,0.0,0.0,0.0,0.0,0.0,0.0,0.0,0.0,0.0,0.0,0.0,0.0,0.0,0.0,0.0,0.0,0.0,0.0,0.0,0.0,0.0,0.0,0.0,0.0,0.0,0.0,0.0,0.0,0.0,0.0,0.0,0.0,0.0,0.0,0.0,-2.602,-3.0643,-3.3773,-3.5357,-3.6897,-3.6898,-3.5221,-3.2973,-2.994,0.0,0.0,0.0,0.0,0.0,0.0,0.0,0.0,0.0,0.0,0.0,0.0,0.0,0.0,0.0,0.0,0.0,0.0,0.0,0.0,0.0,0.0,0.0,0.0,0.0,0.0,0.0,0.0,0.0,0.0,0.0,0.0,0.0,0.0,0.0,0.0,0.0,0.0,0.0,0.0,0.0,-2.3064,-2.5657,-2.5929,-2.6147,0.0,0.0,-2.7214,-2.7153,-2.5763,-2.4148,-2.2486,0.0,0.0,0.0,0.0,0.0,0.0,0.0,0.0,0.0,0.0,0.0,0.0,0.0,0.0,0.0,0.0,0.0,0.0,0.0,0.0,0.0,0.0,0.0,0.0,0.0,0.0,0.0,0.0,0.0,0.0,0.0,0.0,0.0,0.0,0.0,0.0,0.0,0.0,0.0,0.0,0.0,0.0,0.0,0.0,0.0,0.0,0.0,0.0,0.0,0.0,0.0,0.0,0.0,-2.2883,-2.6057,-3.0764,-3.397,-3.549,-3.7037,-3.7255,-3.6111,-3.4184,-3.1332,0.0,0.0,0.0,0.0,0.0,0.0,0.0,0.0,0.0,0.0,0.0,0.0,0.0,0.0,0.0,0.0,0.0,0.0,0.0,0.0,0.0,0.0,0.0,0.0,0.0,0.0,0.0,0.0,-1.3449,-1.3872,-1.3952,0.0,0.0,0.0,0.0,0.0,0.0,0.0,0.0,0.0,0.0,-2.4063,-2.6518,-2.6511,0.0,0.0,-2.7479,-2.7479,-2.7464,-2.6435,-2.5234,-2.4101,-2.2514,0.0,0.0,0.0,0.0,0.0,0.0,0.0,0.0,0.0,0.0,0.0,0.0,0.0,0.0,0.0,0.0,0.0,0.0,0.0,0.0,0.0,0.0,0.0,0.0,0.0,0.0,0.0,0.0,0.0,0.0,0.0,0.0,0.0,0.0,0.0,0.0,0.0,0.0,0.0,0.0,0.0,0.0,0.0,0.0,0.0,0.0,0.0,0.0,0.0,0.0,0.0,0.0,-2.3315,-2.6814,-3.1325,-3.447,-3.624,-3.7539,-3.7792,-3.6898,-3.5541,-3.283,0.0,0.0,0.0,0.0,0.0,0.0,0.0,0.0,0.0,0.0,0.0,0.0,0.0,0.0,0.0,0.0,0.0,0.0,0.0,0.0,0.0,0.0,0.0,0.0,0.0,0.0,0.0,0.0,-1.4963,-1.5038,-1.4887,0.0,0.0,0.0,0.0,0.0,0.0,0.0,0.0,0.0,0.0,-2.5542,-2.7509,-2.7509,-2.7525,-2.8123,-2.8199,-2.8252,-2.8237,-2.7464,-2.6616,-2.5835,0.0,0.0,0.0,0.0,0.0,0.0,0.0,0.0,0.0,0.0,0.0,0.0,0.0,0.0,0.0,0.0,0.0,0.0,0.0,0.0,0.0,0.0,0.0,0.0,0.0,0.0,0.0,0.0,0.0,0.0,-1.4467,0.0,0.0,0.0,0.0,0.0,0.0,0.0,0.0,0.0,0.0,0.0,0.0,0.0,0.0,0.0,0.0,0.0,0.0,0.0,0.0,0.0,0.0,-2.4379,-2.8391,-3.2283,-3.5454,-3.7755,-3.8546,-3.8473,-3.7613,-3.6792,-3.4184,-2.9625,0.0,0.0,0.0,0.0,0.0,0.0,0.0,0.0,0.0,0.0,0.0,0.0,0.0,0.0,0.0,0.0,0.0,0.0,0.0,0.0,0.0,0.0,0.0,0.0,0.0,0.0,-1.5522,-1.6395,-1.6619,0.0,0.0,0.0,0.0,0.0,0.0,0.0,0.0,0.0,0.0,-2.6298,-2.7638,-2.8525,-2.932,-2.9737,-2.9775,-2.9813,-2.9813,-2.9791,-2.9178,-2.8449,0.0,0.0,0.0,0.0,0.0,0.0,0.0,0.0,0.0,0.0,0.0,0.0,0.0,0.0,0.0,0.0,0.0,0.0,0.0,0.0,0.0,0.0,0.0,0.0,0.0,0.0,0.0,-2.0601,-2.0465,0.0,0.0,0.0,0.0,0.0,0.0,0.0,0.0,0.0,0.0,0.0,-3.1044,-3.0894,0.0,0.0,0.0,0.0,0.0,0.0,0.0,0.0,0.0,0.0,0.0,0.0,-2.5252,-2.9258,-3.3202,-3.6161,-3.8036,-3.9265,-3.9481,-3.869,-3.7828,-3.5208,-3.0507,0.0,0.0,0.0,0.0,0.0,0.0,0.0,0.0,0.0,0.0,0.0,0.0,0.0,0.0,0.0,0.0,0.0,0.0,0.0,0.0,0.0,0.0,0.0,0.0,0.0,-1.6954,0.0,0.0,0.0,0.0,0.0,0.0,0.0,0.0,0.0,0.0,0.0,-2.4193,-2.5579,-2.7222,-2.8563,-2.9396,-2.9699,-2.9905,0.0,0.0,0.0,0.0,0.0,0.0,0.0,0.0,0.0,0.0,0.0,0.0,0.0,0.0,-2.3353,-2.0797,-2.0383,-2.041,-2.0448,0.0,0.0,0.0,0.0,0.0,0.0,0.0,0.0,0.0,0.0,0.0,0.0,0.0,0.0,-2.6273,0.0,-2.3852,0.0,0.0,0.0,0.0,0.0,0.0,0.0,0.0,-3.1469,-3.3984,-3.6717,-3.6577,-3.6791,0.0,-3.522,-3.1428,0.0,0.0,0.0,0.0,0.0,0.0,0.0,0.0,-2.7103,-3.1309,-3.4749,-3.7455,-3.9298,-4.0275,-4.0383,-3.9554,-3.768,-3.5343,-3.2541,-2.9206,-2.6393,0.0,0.0,0.0,0.0,0.0,0.0,0.0,0.0,0.0,0.0,0.0,0.0,0.0,0.0,0.0,0.0,0.0,0.0,0.0,0.0,0.0,0.0,0.0,-1.942,0.0,0.0,0.0,0.0,0.0,0.0,0.0,0.0,0.0,-2.167,-2.4317,-2.6555,-2.7373,-2.8941,-3.0191,-3.0701,0.0,0.0,0.0,0.0,0.0,0.0,0.0,-3.0151,-3.0195,-2.983,-2.9717,-3.0386,-2.9844,-2.9482,-2.9829,0.0,0.0,-2.4913,-2.4569,-2.4705,-2.4417,-2.4861,-2.5343,-2.5361,-2.5603,-2.5961,0.0,0.0,0.0,0.0,0.0,0.0,0.0,0.0,-3.3755,-3.3612,0.0,-2.9753,0.0,0.0,0.0,0.0,0.0,-2.7982,0.0,0.0,-3.7394,-4.0135,-4.2341,-4.3173,-4.3607,-4.3465,-4.0548,-3.8653,-3.7435,-3.0034,0.0,0.0,0.0,0.0,0.0,0.0,-2.989,-3.4516,-3.6913,-3.9229,-4.143,-4.1499,-4.1063,-4.0164,-3.6528,-3.4898,-3.5403,-3.1888,-2.913,-2.7428,-2.5072,0.0,0.0,0.0,0.0,0.0,0.0,0.0,0.0,0.0,0.0,0.0,0.0,0.0,0.0,0.0,0.0,0.0,0.0,0.0,0.0,-2.2231,0.0,0.0,0.0,0.0,0.0,0.0,0.0,0.0,0.0,0.0,-2.5181,-2.7244,-2.9055,-2.9813,0.0,0.0,0.0,0.0,-3.2386,-3.2476,-3.2476,-3.2492,-3.2542,-3.2553,-3.26,-3.2684,0.0,0.0,-3.3091,-3.2511,-3.2307,-3.3193,-3.2667,-3.1076,-2.7814,-2.7862,-2.81,-2.7367,-2.8434,-2.9539,-2.9743,-3.0101,-3.0732,-4.4429,0.0,0.0,0.0,0.0,-3.8333,-3.9856,-4.0523,-4.0561,-4.0256,-3.9521,-3.7058,0.0,0.0,0.0,0.0,0.0,0.0,-3.7248,-3.9917,-4.2483,-4.4983,-4.7237,-4.6998,-4.6819,-4.6748,-4.4879,-4.3274,-4.1769,-3.8008,-3.326,-2.7677,0.0,0.0,0.0,0.0,-3.2632,-3.6182,-3.8574,-4.0384,-4.165,-4.2192,-4.183,-4.042,-3.7708,-3.6077,-3.572,-3.3551,-3.1534,-2.9918,-2.7533,0.0,0.0,0.0,0.0,0.0,0.0,0.0,0.0,0.0,0.0,0.0,0.0,0.0,0.0,0.0,0.0,0.0,0.0,0.0,-2.3087,-2.3847,-2.3768,0.0,0.0,0.0,0.0,0.0,0.0,0.0,0.0,0.0,-2.9196,-2.9986,-3.0587,0.0,0.0,-3.2406,-3.2406,-3.2406,-3.2441,-3.2547,-3.2564,0.0,-3.2707,-3.2737,-3.2958,-3.359,-3.4289,-3.4643,-3.4196,-3.4404,-3.4814,-3.5159,-3.5013,-3.432,-3.2892,-3.214,-3.1824,-3.164,-3.1955,-3.2274,-3.2333,-3.2535,-3.2695,-5.3338,-4.7469,-4.463,-4.3179,-4.3037,-4.5377,-4.6743,-4.7361,-4.7275,-4.687,-4.6167,-4.3769,-4.1679,-3.9742,-3.7965,0.0,0.0,0.0,-4.2526,-4.5,-4.7026,-4.8971,-5.0637,-5.0281,-5.0031,-4.9972,-4.7966,-4.647,-4.5545,-4.3048,-3.9517,-3.4929,0.0,0.0,-3.2105,-3.3465,-3.5494,-3.8319,-4.0093,-4.1361,-4.2158,-4.2339,-4.1977,-4.0963,-3.8391,-3.6761,-3.619,-3.4315,-3.2667,-3.1312,-2.9529,-2.7348,0.0,0.0,0.0,0.0,0.0,0.0,0.0,0.0,0.0,0.0,0.0,-1.31,-1.4282,0.0,0.0,0.0,-2.0689,-2.3161,-2.4937,-2.5962,0.0,0.0,0.0,0.0,0.0,0.0,0.0,-2.8642,-2.9561,-3.0595,-3.1954,-3.2464,-3.2558,-3.2217,-3.2899,-3.3392,-3.341,0.0,-3.3463,-3.3604,-3.3636,-3.3684,-3.3806,-3.3834,-3.4016,-3.4545,-3.5183,-3.5524,-3.5133,-3.5492,-3.5859,-3.5948,-3.5962,-3.5853,-3.5282,-3.4768,-3.4296,-3.3994,-3.4189,-3.4426,-3.4441,-3.4414,-3.4414,-6.049,-5.8906,-5.2294,-4.9921,-5.0716,-5.2101,-5.2942,-5.3408,-5.3444,-5.3008,-5.2068,-4.9916,-4.8358,-4.7283,-4.4847,0.0,-4.4936,-4.5576,-4.7108,-4.943,-5.1043,-5.2161,-5.2957,-5.2957,-5.2921,-5.2723,-4.9948,-4.8569,-4.8317,-4.5621,-4.3896,-4.3063,-3.7925,-3.5648,-3.629,-3.7051,-3.8536,-4.0782,-4.1615,-4.2339,-4.2955,-4.2158,-4.1687,-4.1578,-3.8608,-3.691,-3.6663,-3.4501,-3.2859,-3.1948,-3.1166,-2.9311,-2.6157,0.0,0.0,0.0,0.0,0.0,0.0,0.0,0.0,0.0,0.0,0.0,0.0,0.0,0.0,0.0,-2.4949,0.0,-2.6408,-2.8446,0.0,0.0,0.0,-2.9607,-2.88,-2.9456,-3.0338,-3.1204,0.0,0.0,-3.3695,-3.4453,-3.4643,-3.3884,-3.4415,-3.4927,-3.502,-3.4963,-3.5037,-3.5098,-3.5239,-3.5285,-3.5235,-3.529,-3.5303,-3.5403,-3.5669,-3.5784,-3.5779,-3.5833,-3.5878,-3.5904,-3.5958,-3.5966,-3.6017,-3.5907,-3.5759,-3.4942,-3.5411,-3.5957,-3.5884,-3.5857,-3.582,-6.2748,-6.1725,-5.9284,-5.7354,-5.5938,-5.7204,-5.7532,-5.7089,-5.6996,-5.6185,-5.5046,-5.4397,-5.3266,-5.1771,-5.0734,-5.0075,-4.982,-5.0413,-5.1102,-5.1896,-5.3425,-5.4011,-5.3778,-5.3742,-5.3135,-5.1937,-5.0235,-4.9117,-4.8434,-4.6777,-4.5852,-4.5562,-4.3715,-4.194,-4.0384,-4.1107,-4.2085,-4.3208,-4.4041,-4.4222,-4.3788,-4.2448,-4.1397,-4.0818,-3.8319,-3.6656,-3.5977,-3.415,-3.3014,-3.2706,-3.1929,-3.029,-2.7763,-2.5408,0.0,0.0,0.0,0.0,0.0,0.0,0.0,0.0,0.0,-1.7388,-1.8483,0.0,-2.2026,0.0,-2.5876,-2.8652,-3.0509,-3.1203,0.0,0.0,-3.145,-3.16,-3.1412,-3.1563,-3.2053,-3.2883,-3.3204,-3.3639,-3.4529,-3.4794,-3.4832,-3.4643,-3.4832,-3.502,-3.5075,-3.5072,-3.5141,-3.5254,-3.5315,-3.5427,-3.5521,-3.5604,-3.562,-3.565,-3.5736,-3.5818,-3.5864,-3.5885,-3.5878,-3.5904,-3.5909,-3.5958,-3.5966,-3.602,-3.5957,-3.5734,-3.5855,-3.6015,-3.6015,-3.601,-3.6005,-6.3941,-6.3693,-6.2881,-6.1748,-6.0505,-6.0516,-6.0269,-5.9868,-5.952,-5.8672,-5.7591,-5.7119,-5.6374,-5.5424,-5.4762,-5.4308,-5.3992,-5.3843,-5.3879,-5.4134,-5.4985,-5.5095,-5.4527,-5.417,-5.3385,-5.2172,-5.0796,-4.979,-4.901,-4.7998,-4.7368,-4.7047,-4.6576,-4.5707,-4.444,-4.4114,-4.4186,-4.4621,-4.4693,-4.4548,-4.4077,-4.2556,-4.1325,-4.0492,-3.8176,-3.6515,-3.5624,-3.3979,-3.2849,-3.2429,-3.1969,-3.0654,-2.8307,-2.6621,-2.4504,0.0,0.0,0.0,0.0,0.0,0.0,0.0,0.0,0.0,0.0,0.0,-2.5299,-2.6972,-2.9213,-3.1466,-3.3692,-3.386,-3.386,-3.3921,-3.394,-3.3789,-3.3487,-3.3771,-3.4206,-3.4641,-3.5039,-3.5457,-3.5969,-3.6007,-3.5855,-3.5552,-3.5533,-3.5455,-3.5166,-3.5141,-3.5239,-3.5374,-3.5457,-3.5534,-3.5658,-3.5727,-3.5763,-3.5771,-3.5795,-3.5864,-3.5892,-3.5905,-3.5883,-3.5899,-3.5904,-3.5909,-3.5958,-3.597,-3.6024,-3.6001,-3.601,-3.6015,-3.6009,-3.5994,-3.6024,-6.4453,-6.472,-6.3932,-6.3736,-6.3817,-6.236,-6.179,-6.1756,-6.1177,-6.0404,-5.9506,-5.86,-5.8218,-5.8245,-5.7458,-5.72,-5.7317,-5.6212,-5.5847,-5.6042,-5.5971,-5.5644,-5.5027,-5.4349,-5.3564,-5.2707,-5.1392,-5.0414,-4.979,-4.9064,-4.8403,-4.7838,-4.7729,-4.7699,-4.7663,-4.6323,-4.5671,-4.5743,-4.4765,-4.4258,-4.4222,-4.2592,-4.1325,-4.0456,-3.8106,-3.6381,-3.5522,-3.3884,-3.2644,-3.1903,-3.1831,-3.0832,-2.8627,-2.7835,-2.6468,0.0,-2.3616,0.0,0.0,0.0,0.0,0.0,0.0,0.0,0.0,-2.6928,-2.8998,-3.231,-3.333,-3.4466,-3.6054,-3.6168,-3.6168,-3.6168,-3.6189,-3.5924,-3.5262,-3.5794,-3.625,-3.6288,-3.6934,-3.7371,-3.7334,-3.7371,-3.7106,-3.6462,-3.6236,-3.6006,-3.5467,-3.5321,-3.5407,-3.5637,-3.5863,-3.6144,-3.6065,-3.6029,-3.5974,-3.5857,-3.584,-3.5905,-3.5911,-3.5883,-3.5889,-3.5889,-3.5899,-3.5904,-3.5909,-3.5948,-3.6001,-3.5981,-3.5996,-3.6013,-3.6007,-3.6027,-3.6009,-6.3822,-6.3329,-6.2672,-6.2486,-6.2448,-6.2125,-6.1997,-6.2156,-6.1421,-6.0723,-5.9907,-5.8799,-5.9004,-5.9982,-5.8697,-5.8474,-5.9088,-5.7529,-5.6857,-5.6993,-5.639,-5.547,-5.4224,-5.4099,-5.3278,-5.1922,-5.1106,-5.0653,-5.0474,-4.9271,-4.8648,-4.8511,-4.7983,-4.7699,-4.7699,0.0,0.0,0.0,-4.6142,-4.5055,-4.4983,-4.2882,-4.1325,-4.0492,-3.8106,0.0,-3.5486,-3.3916,-3.2894,-3.2684,-3.2684,0.0,0.0,0.0,0.0,0.0,0.0,0.0,0.0,0.0,0.0,0.0,-3.1021,-3.0102,-2.8091,-3.045,-3.3026,-3.5044,-3.5409,-3.5941,-3.7024,-3.7137,-3.712,-3.7124,-3.7124,-3.7086,-3.6934,-3.7048,-3.7162,-3.7162,-3.7296,-3.7409,-3.7447,-3.7371,-3.7371,-3.7202,-3.6672,-3.6292,-3.6174,-3.5698,-3.571,-3.6472,-3.7228,-3.7549,-3.6961,-3.6829,-3.654,-3.6086,-3.5859,-3.5872,-3.5883,-3.5889,-3.5889,-3.5889,-3.5894,-3.5894,-3.5894,-3.5904,-3.5909,-3.5904,-3.5978,-3.6007,-3.6012,-3.6005,-3.5996,-6.3664,0.0,-6.2656,-6.2344,0.0,-6.2058,-6.2156,-6.2245,-6.167,-6.0802,-5.984,-5.9111,-5.9399,-6.0325,-5.9673,-5.9441,-5.9645,-5.8202,-5.74,-5.7149,-5.6347,-5.539,-5.442,-5.4047,-5.3317,-5.2141,-5.1458,-5.0986,-5.0653,-4.9693,-4.9037,-4.8684,-4.8012,-4.7699,-4.7699,-4.7657,-4.7832,-4.8315,-4.6721,-4.5707,-4.5236,-4.3353,-4.1686,-4.0456,-3.8435,0.0,0.0,0.0,0.0,0.0,0.0,0.0,0.0,0.0,0.0,-3.0582,-3.0599,-3.0923,-3.1454,-3.1656,-3.2287,-3.3438,-3.4554,-3.432,-3.2255,-3.4124,-3.5903,-3.7133,-3.7305,-3.7688,-3.8542,-3.8618,-3.8487,-3.8092,-3.8016,-3.7902,-3.7523,-3.7788,-3.8016,-3.8092,-3.8395,-3.8622,-3.866,-3.866,-3.8471,-3.8054,-3.7374,-3.6749,-3.6423,-3.614,-3.631,-3.7332,-3.8006,-3.808,-3.7296,-3.7109,-3.6812,-3.6132,-3.5905,-3.5872,-3.5889,-3.5889,-3.5889,-3.5889,-3.5889,-3.5889,-3.5889,-3.5894,-3.5899,-3.5899,-3.5919,-3.5981,-3.6007,-3.6014,-3.6015,-6.3696,-6.3225,-6.2835,-6.2517,-6.2248,-6.1929,-6.185,-6.1886,0.0,0.0,0.0,-5.9287,-5.9513,-6.0135,-6.0219,-6.0078,-5.9645,-5.8567,-5.7694,-5.7069,-5.6175,-5.5433,-5.4803,-5.4098,-5.3371,-5.2607,-5.1963,-5.1401,-5.0855,-5.0067,-4.9369,-4.8812,-4.8042,-4.7615,-4.7615,-4.7529,-4.7493,-4.7578,-4.6819,-4.6101,-4.5269,-4.3677,-4.2119,-4.06,-3.8798,-3.754,-3.679,-3.5756,-3.4936,-3.4329,-3.4294,-3.4008,-3.333,-3.3437,-3.358,-3.372,-3.3895,-3.4167,-3.4434,-3.4655,-3.4906,-3.5254,-3.6752,-3.7354,-3.6524,-3.7305,-3.8104,-3.8748,-3.8866,-3.9191,-3.9813,-3.9889,-3.9646,-3.8963,-3.8925,-3.8622,-3.8016,-3.8433,-3.8888,-3.8963,-3.9456,-3.9889,-3.9813,-3.9813,-3.9683,-3.8963,-3.8209,-3.7413,-3.6767,-3.668,-3.7079,-3.7912,-3.8567,-3.8558,-3.7591,-3.7374,-3.6922,-3.6093,-3.5905,-3.5911,-3.5883,-3.5889,-3.5889,-3.5889,-3.5889,-3.5889,-3.5889,-3.5889,-3.5894,-3.5904,-3.5904,-3.5904,-3.5992,-3.5985,-3.6003,-6.357,-6.2918,-6.2509,-6.2026,-6.1534,-6.1066,-6.0688,-6.027,-6.0444,-6.0296,-5.9727,-5.8871,-5.9184,-6.0254,-5.9962,-5.9728,-5.9645,-5.8804,-5.7929,-5.7069,-5.629,-5.5455,-5.4803,-5.3989,-5.3282,-5.2607,-5.1861,-5.1536,-5.1437,-5.0175,-4.9471,-4.9231,-4.7994,-4.7363,-4.7363,-4.7363,-4.7363,-4.7327,-4.6608,-4.5852,-4.5024,-4.3476,-4.2217,-4.1207,-3.8977,-3.7685,-3.7542,-3.6041,-3.5186,-3.5079,-3.5043,-3.5007,-3.4936,-3.5543,-3.6221,-3.6934,-3.765,-3.8438,-3.9301,-3.9618,-3.9748,-3.9682,-3.9427,-3.8991,-3.8348,-3.9034,-3.9586,-3.97,-3.97,-3.9759,-3.9889,-3.9889,-3.9851,-3.9721,-3.9721,-3.9683,-3.9435,-3.9548,-3.9683,-3.9683,-3.9835,-3.9889,-3.9889,-3.9889,-3.9851,-3.9608,-3.8909,-3.8209,-3.7528,-3.7555,-3.7786,-3.8247,-3.9444,-3.963,-3.8346,-3.8083,-3.742,-3.6112,-3.5885,-3.5898,-3.5883,-3.5889,-3.5889,-3.5889,-3.5889,-3.5889,-3.5889,-3.5889,-3.5889,-3.5894,-3.5894,-3.5894,-3.5894,-3.5909,-3.5948,-6.3631,-6.289,-6.2809,-6.2118,-6.1219,-6.0758,-6.0436,-6.0324,-6.0324,-5.9928,-5.9332,-5.908,-5.9464,-6.0129,-5.9699,-5.9621,-5.9645,-5.8261,-5.74,-5.6952,-5.6094,-5.5472,-5.5177,-5.4423,-5.3757,-5.314,-5.2448,-5.1948,-5.1601,-5.0628,-4.9889,-4.9471,-4.8021,-4.732,-4.732,-4.7276,-4.7267,-4.7267,-4.6916,-4.6421,-4.563,-4.4515,-4.3288,-4.2063,-4.0446,-3.9188,-3.8329,-3.7541,-3.7184,-3.7148,-3.7148,-3.7327,-3.7755,-3.8112,-3.8469,-3.8826,-3.922,-3.9654,-4.0199,-4.0633,-4.102,-4.1241,-4.1079,-4.0688,-4.0056,-3.9927,-3.9889,-3.9889,-3.9889,-3.9889,-3.9889,-3.9889,-3.9889,-3.9889,-3.9889,-3.9889,-3.9889,-3.9889,-3.9889,-3.9889,-3.9889,-3.9889,-3.9889,-3.9889,-3.9889,-3.9835,-3.925,-3.8457,-3.7641,-3.7641,-3.7814,-3.8007,-3.8711,-3.8733,-3.7841,-3.7638,-3.713,-3.6052,-3.5872,-3.5892,-3.5878,-3.5883,-3.5889,-3.5889,-3.5889,-3.5889,-3.5889,-3.5889,-3.5889,-3.5889,-3.5889,-3.5889,-3.5889,-3.5889,-3.6084,-6.3687,-6.2983,-6.3166,-6.2353,-6.102,-6.0609,-6.0541,-6.0567,-6.034,-5.9834,-5.9275,-5.9599,-5.9888,-6.0001,-5.9637,-5.9395,-5.9136,-5.7624,-5.6764,-5.6434,-5.5753,-5.5448,-5.5343,-5.4723,-5.412,-5.3599,-5.2892,-5.2303,-5.1672,-5.1021,-5.0247,-4.9388,-4.8155,-4.7483,-4.7519,-4.725,-4.7133,-4.7133,-4.7187,-4.6873,-4.6119,-4.5473,-4.439,-4.2803,-4.1944,-4.0796,-3.9432,-3.9147,-3.9075,-3.9075,-3.9075,-3.9325,-3.986,-4.011,-4.0182,-4.0182,-4.036,-4.0506,-4.0699,-4.1032,-4.1456,-4.1949,-4.204,-4.187,-4.1472,-4.0814,-4.0268,-3.9965,-3.9889,-3.9889,-3.9889,-3.9889,-3.9889,-3.9889,-3.9889,-3.9889,-3.9889,-3.9889,-3.9889,-3.9889,-3.9889,-3.9889,-3.9889,-3.9911,-3.9933,-3.9878,-3.9313,-3.8535,-3.7927,-3.77,-3.7659,-3.7868,-3.8113,-3.8119,-3.7401,-3.7375,-3.6948,-3.6021,-3.5864,-3.5885,-3.5905,-3.5878,-3.5889,-3.5889,-3.5889,-3.5889,-3.5889,-3.5883,-3.5883,-3.5883,-3.5878,-3.5878,-3.5878,-3.5883,-3.6317,-6.3473,-6.3258,-6.329,-6.2386,-6.0972,-6.081,-6.0564,-6.0206,-6.0175,-6.0136,-5.9987,-6.0323,-6.0311,-6.01,-5.9795,-5.9147,-5.8235,-5.7293,-5.6399,-5.5469,-5.5294,-5.5259,-5.5224,-5.4524,-5.3985,-5.358,-5.2856,-5.2271,-5.1744,-5.0923,-5.0102,-4.9317,-4.8508,-4.8115,-4.8043,-4.74,-4.7043,-4.7043,-4.7043,-4.665,-4.59,-4.5793,-4.5007,-4.3465,-4.265,-4.1787,-4.0895,-4.0182,-3.9825,-3.9825,-3.9825,-3.986,-4.0003,-4.061,-4.1002,-4.1038,-4.1645,-4.2195,-4.2474,-4.2196,-4.2206,-4.2514,-4.2268,-4.2133,-4.2146,-4.2082,-4.1434,-4.0321,-3.9927,-3.9927,-3.9889,-3.9889,-3.9889,-3.9889,-3.9889,-3.9889,-3.9889,-3.9889,-3.9889,-3.9889,-3.9889,-3.9889,-3.9911,-3.9954,-3.9996,-4.0076,-3.945,-3.8937,-3.8708,-3.8099,-3.7833,-3.7959,-3.8443,-3.8623,-3.8106,-3.8036,-3.7327,-3.6151,-3.5857,-3.5885,-3.5898,-3.5878,-3.5889,-3.5889,-3.5889,-3.5889,-3.5883,-3.5878,-3.5911,-3.5905,-3.5898,-3.5885,-3.5885,-3.5898,-3.6456,-6.3711,-6.3473,-6.3897,-6.3505,-6.2436,-6.141,-6.1033,-6.1054,-6.0804,-6.0725,-6.0842,-6.0974,-6.0597,-6.0072,-5.9611,-5.9046,-5.851,-5.7649,-5.6694,-5.5776,-5.5776,-5.5532,-5.5174,-5.4919,-5.4548,-5.4055,-5.3455,-5.2821,-5.2125,-5.1052,-5.0352,-4.9959,-4.9246,-4.8853,-4.8782,-4.8068,-4.7676,-4.7676,-4.7212,-4.6819,-4.6498,-4.6034,-4.5534,-4.4821,-4.3679,-4.2644,-4.1823,-4.1038,-4.061,-4.061,-4.061,-4.0824,-4.1288,-4.1609,-4.1787,-4.1823,-4.219,-4.2566,-4.2955,-4.2886,-4.3015,-4.3497,-4.3473,-4.3321,-4.2989,-4.2976,-4.2473,-4.1439,-4.0881,-4.0413,-3.9958,-3.9867,-3.9889,-3.9889,-3.9889,-3.9889,-3.9889,-3.9889,-3.9889,-3.9889,-3.9889,-3.9889,-3.9911,-3.9954,-4.0017,-4.0058,-3.9756,-3.9585,-3.9566,-3.888,-3.8633,-3.8994,-3.9108,-3.8695,-3.8218,-3.768,-3.7179,-3.6667,-3.6106,-3.5864,-3.5892,-3.5905,-3.5878,-3.5889,-3.5889,-3.5883,-3.5878,-3.5872,-3.5905,-3.5892,-3.5885,-3.5872,-3.5878,-3.5878,-3.6631,-6.3594,-6.3547,-6.4276,-6.4276,-6.3523,-6.2297,-6.1819,-6.1772,-6.155,-6.1361,-6.1274,-6.1371,-6.0981,-6.0241,-5.9411,-5.8913,-5.8682,-5.7856,-5.7039,-5.6391,-5.6356,-5.6071,-5.5506,-5.5427,-5.5129,-5.4489,-5.4028,-5.3387,-5.2555,-5.1541,-5.093,-5.0645,-4.9933,-4.9541,-4.9519,-4.8841,-4.8389,-4.8139,-4.7604,-4.7212,-4.6962,-4.6427,-4.6034,-4.5713,-4.4714,-4.375,-4.2965,-4.218,-4.1752,-4.1752,-4.1538,-4.168,-4.2251,-4.2287,-4.2328,-4.2328,-4.2445,-4.2685,-4.3067,-4.3214,-4.3563,-4.3986,-4.4266,-4.4243,-4.3864,-4.3792,-4.3415,-4.2561,-4.2033,-4.134,-4.0352,-4.0185,-4.0132,-3.9927,-3.9889,-3.9889,-3.9889,-3.9889,-3.9889,-3.9889,-3.9889,-3.9911,-3.9954,-4.0034,-4.0076,-4.0157,-4.0176,-4.0196,-4.0138,-3.9623,-3.9393,-4.0004,-3.9527,-3.8975,-3.8439,-3.8144,-3.7537,-3.689,-3.6444,-3.6161,-3.5949,-3.5892,-3.5905,-3.5878,-3.5883,-3.5878,-3.5905,-3.5898,-3.5917,-3.5864,-3.5935,-3.6083,-3.6277,-3.6246,-3.7,-6.3132,-6.31,-6.4203,-6.4309,-6.3588,-6.349,-6.2792,-6.2055,-6.2197,-6.1862,-6.1088,-6.1435,-6.14,-6.0765,-5.9418,-5.8636,-5.8368,-5.7811,-5.7329,-5.6963,-5.6963,-5.6616,-5.6091,-5.6043,-5.5532,-5.4699,-5.4442,-5.3717,-5.2537,-5.236,-5.1971,-5.128,-5.0535,-5.0161,-5.0154,-4.9479,-4.8829,-4.8318,-4.815,-4.7747,-4.7105,-4.6926,-4.6534,-4.5927,-4.5713,-4.5213,-4.45,-4.3786,-4.3358,-4.3393,-4.2644,-4.2251,-4.2287,-4.2287,-4.2328,-4.2486,-4.2566,-4.2691,-4.2995,-4.3321,-4.3634,-4.3897,-4.4207,-4.4411,-4.429,-4.4401,-4.4089,-4.3359,-4.3224,-4.2624,-4.1364,-4.0995,-4.0677,-4.0079,-3.9927,-3.9889,-3.9889,-3.9889,-3.9889,-3.9889,-3.9889,-3.9933,-4.0038,-4.0096,-4.0137,-4.0196,-4.0215,-4.0196,-4.0176,-3.9982,-3.9962,-4.002,-3.9944,-3.9698,-3.9141,-3.8747,-3.8232,-3.7602,-3.7172,-3.6759,-3.62,-3.584,-3.5892,-3.5905,-3.5905,-3.5898,-3.5885,-3.5903,-3.5951,-3.6012,-3.6168,-3.6354,-3.6945,-3.7039,-3.7724,-6.4233,-6.4487,-6.4926,-6.4992,-6.4728,-6.4087,-6.3682,-6.3417,-6.2662,-6.2133,-6.1829,-6.1278,-6.0984,-6.0876,-5.9955,-5.9562,-5.946,-5.9319,-5.8695,-5.7731,-5.7561,-5.7282,-5.666,-5.6293,-5.6012,-5.5648,-5.4851,-5.407,-5.3316,-5.3175,-5.2785,-5.2113,-5.1723,-5.1421,-5.0957,-5.0261,-4.9528,-4.8925,-4.8461,-4.7783,-4.7105,-4.6998,-4.6855,-4.6569,-4.607,-4.5677,-4.5392,-4.4642,-4.4,-4.3536,-4.3215,-4.2822,-4.2358,-4.2287,-4.2369,-4.253,-4.2649,-4.288,-4.3178,-4.3389,-4.3664,-4.3961,-4.4177,-4.4391,-4.4411,-4.4468,-4.4411,-4.412,-4.4083,-4.36,-4.275,-4.1742,-4.0995,-4.0722,-4.023,-3.9927,-3.9889,-3.9889,-3.9889,-3.9889,-3.9889,-3.9933,-3.9996,-4.0017,-4.0058,-4.0157,-4.0157,-4.0137,-4.0137,-4.0038,-3.9996,-4.0017,-3.9975,-3.9861,-3.9736,-3.9291,-3.8854,-3.835,-3.7893,-3.724,-3.6673,-3.6122,-3.6027,-3.6041,-3.6009,-3.5956,-3.5974,-3.6487,-3.6453,-3.6599,-3.6754,-3.7142,-3.7802,-3.7859,-3.8477,-6.4796,-6.5359,-6.5425,-6.5425,-6.5326,-6.4454,-6.4112,-6.3868,-6.2392,-6.1682,-6.1451,-6.0669,-6.0398,-6.0571,-6.0539,-6.0461,-6.0412,-6.0322,-5.9702,-5.8668,-5.8392,-5.7943,-5.7391,-5.6963,-5.669,-5.651,-5.5553,-5.4582,-5.3725,-5.3767,-5.3344,-5.2604,-5.2357,-5.213,-5.1721,-5.1028,-5.0297,-4.9697,-4.921,-4.8568,-4.7818,-4.7497,-4.739,-4.7247,-4.6605,-4.6177,-4.6177,-4.5427,-4.4785,-4.4285,-4.3786,-4.3144,-4.2394,-4.2287,-4.2409,-4.2609,-4.2765,-4.3031,-4.3321,-4.3563,-4.3763,-4.3955,-4.4147,-4.4304,-4.4362,-4.4411,-4.444,-4.4468,-4.4468,-4.4288,-4.3755,-4.2661,-4.169,-4.1291,-4.0669,-4.0192,-3.9927,-3.9889,-3.9889,-3.9889,-3.9889,-3.9933,-3.9975,-3.9996,-4.0017,-4.0096,-4.0058,-4.0038,-4.0038,-3.9996,-3.9975,-3.9954,-3.9933,-3.9933,-3.9882,-3.9662,-3.9303,-3.8854,-3.8646,-3.7975,-3.7298,-3.6673,-3.6277,-3.6253,-3.6176,-3.6083,-3.6332,-3.6919,-3.725,-3.7385,-3.7618,-3.7938,-3.8404,-3.8724,-3.9315,-6.4796,-6.5392,-6.5425,-6.5425,-6.5326,-6.473,-6.4001,-6.3338,-6.1811,-6.0868,-6.0373,-5.9878,-5.9928,-6.0141,-6.1013,-6.1413,-6.107,-6.0437,-6.0078,-5.9874,-5.9323,-5.8703,-5.8152,-5.8008,-5.7682,-5.7213,-5.6453,-5.5305,-5.4042,-5.4185,-5.3859,-5.3019,-5.2397,-5.2232,-5.2396,-5.1598,-5.0992,-5.0517,-5.0281,-4.9959,-4.9317,-4.8532,-4.8139,-4.8032,-4.7354,-4.6962,-4.6926,-4.6212,-4.5749,-4.5534,-4.4392,-4.3215,-4.2537,-4.2323,-4.2369,-4.2609,-4.2844,-4.3142,-4.3497,-4.3734,-4.3897,-4.3986,-4.4116,-4.4214,-4.4244,-4.4325,-4.4411,-4.4411,-4.4468,-4.4513,-4.4497,-4.3882,-4.2875,-4.1556,-4.1313,-4.0896,-4.0192,-3.9889,-3.9889,-3.9889,-3.9889,-3.9933,-3.9975,-3.9975,-3.9996,-4.0017,-4.0017,-3.9996,-3.9996,-3.9954,-3.9911,-3.9911,-3.9911,-3.9911,-3.9975,-3.9982,-3.9662,-3.9325,-3.921,-3.886,-3.8267,-3.7656,-3.7225,-3.7094,-3.6814,-3.6759,-3.7074,-3.7628,-3.8063,-3.8285,-3.8528,-3.881,-3.9247,-3.9655,-3.9975,-6.5227,-6.5392,-6.5425,-6.5425,-6.5392,-6.5194,-6.4929,-6.4597,-6.312,-6.1923,-6.1008,-6.0365,-5.9872,-5.9694,-6.0605,-6.1298,-6.1514,-6.1265,-6.0754,-6.0112,-5.9874,-5.9426,-5.8806,-5.8354,-5.786,-5.7393,-5.708,-5.6481,-5.5706,-5.5619,-5.5119,-5.3975,-5.319,-5.269,-5.2378,-5.1688,-5.1063,-5.0552,-5.0495,-5.0138,-4.9388,-4.9103,-4.8746,-4.8211,-4.7925,-4.7568,-4.7033,-4.6748,-4.6355,-4.5856,-4.5356,-4.45,-4.3322,-4.2608,-4.2409,-4.2609,-4.2844,-4.3142,-4.3497,-4.3734,-4.3929,-4.4023,-4.4153,-4.4214,-4.4274,-4.4325,-4.4411,-4.444,-4.4468,-4.4551,-4.4584,-4.4523,-4.3857,-4.2995,-4.2375,-4.173,-4.0934,-4.029,-3.9927,-3.9889,-3.9889,-3.9911,-3.9933,-3.9933,-3.9933,-3.9954,-3.9954,-3.9933,-3.9933,-3.9911,-3.9911,-3.9889,-3.9889,-3.9889,-3.9954,-4.0017,-3.9929,-3.9712,-3.9653,-3.9663,-3.9127,-3.8569,-3.814,-3.78,-3.7519,-3.7617,-3.7928,-3.8412,-3.8894,-3.9309,-3.958,-3.9901,-4.0322,-4.0509,-4.0626,-6.5425,-6.5425,-6.5425,-6.5425,-6.5392,-6.516,-6.5028,-6.4829,-6.3417,-6.2055,-6.0791,-6.0096,-5.9259,-5.8787,-5.9861,-6.0869,-6.14,-6.1554,-6.1189,-6.0419,-6.0219,-5.9875,-5.9392,-5.8803,-5.821,-5.7647,-5.73,-5.6906,-5.6361,-5.6073,-5.5504,-5.4618,-5.3682,-5.3168,-5.2731,-5.1882,-5.1327,-5.1351,-5.1137,-5.0852,-5.0566,-5.0066,-4.9531,-4.9032,-4.8496,-4.7961,-4.7426,-4.7176,-4.6783,-4.6284,-4.5998,-4.5071,-4.3643,-4.3001,-4.2691,-4.2645,-4.2882,-4.3214,-4.3497,-4.3767,-4.3961,-4.4023,-4.4153,-4.4214,-4.4274,-4.4325,-4.4411,-4.444,-4.4496,-4.4578,-4.4685,-4.4738,-4.4525,-4.4208,-4.3398,-4.2564,-4.173,-4.0896,-4.0479,-4.0366,-4.0116,-3.9927,-3.9889,-3.9889,-3.9889,-3.9889,-3.9889,-3.9889,-3.9889,-3.9889,-3.9889,-3.9889,-3.9889,-3.9911,-3.9911,-4.0017,-4.0138,-4.0077,-4.0031,-4.0061,-3.9855,-3.9265,-3.8811,-3.8452,-3.8181,-3.8471,-3.8828,-3.9464,-3.9983,-4.0331,-4.0409,-4.051,-4.0649,-4.0671,-4.0791,-6.5459,-6.5425,-6.5425,-6.5425,-6.5359,-6.4796,-6.4597,-6.4299,-6.2901,-6.1409,-5.9971,-5.9487,-5.8573,-5.797,-5.9103,-6.017,-6.0852,-6.1249,-6.1326,-6.0865,-6.0494,-6.0082,-5.9771,-5.9184,-5.8699,-5.8245,-5.7517,-5.6883,-5.6412,-5.5802,-5.5234,-5.5108,-5.4042,-5.347,-5.321,-5.2199,-5.1841,-5.2315,-5.1993,-5.2065,-5.2422,-5.1422,-5.053,-5.0352,-4.9174,-4.8354,-4.7997,-4.739,-4.6998,-4.6855,-4.6212,-4.5213,-4.4,-4.3607,-4.3155,-4.2749,-4.303,-4.3214,-4.3495,-4.3763,-4.3955,-4.4023,-4.4153,-4.4214,-4.4244,-4.4362,-4.4411,-4.444,-4.4524,-4.4632,-4.4712,-4.4764,-4.4802,-4.4776,-4.4042,-4.3246,-4.2564,-4.1768,-4.1313,-4.1124,-4.0555,-3.9965,-4.0041,-4.0003,-3.9889,-3.9889,-3.9889,-3.9889,-3.9889,-3.9889,-3.9889,-3.9889,-3.9889,-3.9889,-3.9911,-4.0038,-4.0158,-4.0248,-4.0223,-4.0342,-4.041,-3.994,-3.9624,-3.9275,-3.9032,-3.9359,-3.9735,-4.0254,-4.0551,-4.0629,-4.068,-4.0769,-4.0792,-4.0815,-4.0868,-6.5922,-6.5425,-6.5425,-6.5425,-6.5392,-6.5194,-6.5127,-6.5028,-6.42,-6.2736,-6.1291,-6.0345,-5.9348,-5.8297,-5.8804,-5.9564,-6.0232,-6.0687,-6.1097,-6.1077,-6.0565,-5.984,-5.9426,-5.9116,-5.9012,-5.8868,-5.8175,-5.7612,-5.7164,-5.6388,-5.5879,-5.5519,-5.4169,-5.3525,-5.3495,-5.2271,-5.1699,-5.2065,-5.2457,-5.2315,-5.2136,-5.2279,-5.1672,-5.053,-5.0102,-4.9281,-4.8282,-4.739,-4.6998,-4.6926,-4.6248,-4.5677,-4.5071,-4.4178,-4.3507,-4.3319,-4.3132,-4.3142,-4.3391,-4.3697,-4.3929,-4.3986,-4.4153,-4.4214,-4.4274,-4.4325,-4.444,-4.4524,-4.4578,-4.4659,-4.4764,-4.4815,-4.484,-4.4776,-4.4232,-4.3663,-4.3284,-4.264,-4.2109,-4.1996,-4.1351,-4.0934,-4.0745,-4.0404,-4.0063,-3.9987,-3.9987,-3.9911,-3.9949,-3.9889,-3.9889,-3.9889,-3.9889,-3.9889,-3.9933,-4.0058,-4.0196,-4.0304,-4.0377,-4.0535,-4.0591,-4.0471,-4.0378,-4.0289,-3.9979,-4.015,-4.0331,-4.0667,-4.0771,-4.081,-4.0822,-4.0796,-4.0804,-4.0787,-4.0878,-6.579,-6.5425,-6.5425,-6.5425,-6.5425,-6.5425,-6.5425,-6.5359,-6.4995,-6.388,-6.2418,-6.1422,-6.0107,-5.8804,-5.898,-5.9298,-5.9824,-6.012,-6.0484,-6.0773,-6.0013,-5.9426,-5.9081,-5.9012,-5.9149,-5.9282,-5.8689,-5.8084,-5.7631,-5.6921,-5.6329,-5.5694,-5.4677,-5.4044,-5.3726,-5.273,-5.2157,-5.2208,-5.2422,-5.2386,-5.2707,-5.2779,-5.2422,-5.153,-5.1173,-5.0174,-4.8461,-4.7747,-4.7354,-4.6998,-4.6534,-4.6141,-4.5749,-4.4999,-4.4221,-4.3739,-4.3487,-4.3469,-4.3358,-4.3667,-4.3897,-4.4023,-4.4153,-4.4244,-4.4296,-4.4411,-4.4524,-4.4578,-4.4659,-4.4738,-4.4789,-4.4802,-4.4827,-4.4838,-4.4497,-4.4194,-4.4194,-4.3436,-4.3019,-4.2754,-4.2261,-4.1692,-4.1715,-4.126,-4.0903,-4.0659,-4.0561,-4.0333,-4.0046,-3.9949,-3.9889,-3.9911,-3.9911,-3.9889,-3.997,-4.0114,-4.0387,-4.0454,-4.0515,-4.0693,-4.0707,-4.0769,-4.073,-4.0692,-4.0757,-4.0796,-4.0822,-4.081,-4.081,-4.081,-4.081,-4.0796,-4.0804,-4.0837,-4.0888,-6.5425,-6.5425,-6.5425,-6.5425,-6.5425,-6.5425,-6.5425,-6.5425,-6.5359,-6.4509,-6.3111,-6.2253,-6.0853,-5.9212,-5.9185,-5.9338,-5.9617,-5.9621,-5.9871,-5.9944,-5.953,-5.9047,-5.9047,-5.9012,-5.9251,-5.9415,-5.882,-5.838,-5.7991,-5.7363,-5.6611,-5.6042,-5.534,-5.4669,-5.4118,-5.3369,-5.3028,-5.2921,-5.2743,-5.2886,-5.3421,-5.3385,-5.3135,-5.2564,-5.1851,-5.0624,-4.9091,-4.8282,-4.7854,-4.7176,-4.7069,-4.6605,-4.5998,-4.5891,-4.5221,-4.4277,-4.4129,-4.401,-4.3725,-4.4044,-4.4239,-4.4438,-4.4512,-4.4445,-4.4512,-4.4618,-4.4578,-4.4632,-4.4738,-4.4789,-4.484,-4.4852,-4.4852,-4.4876,-4.4838,-4.4876,-4.4762,-4.427,-4.3853,-4.3777,-4.3057,-4.2625,-4.2595,-4.2503,-4.2221,-4.1483,-4.1271,-4.0815,-4.0452,-4.0144,-4.0008,-3.9933,-3.9911,-3.9911,-4.003,-4.019,-4.0463,-4.0679,-4.0689,-4.0746,-4.0746,-4.0784,-4.0784,-4.0822,-4.0784,-4.0784,-4.0822,-4.081,-4.081,-4.0822,-4.0822,-4.082,-4.0815,-4.0837,-4.0878,-6.5425,-6.5425,-6.5425,-6.5425,-6.5425,-6.5425,-6.5425,-6.5425,-6.5425,-6.4895,-6.388,-6.2484,-6.155,-6.0912,-5.9421,-5.8984,-5.9624,-5.939,-5.9288,-5.9459,-5.9219,-5.9012,-5.9012,-5.9149,-5.9386,-5.9447,-5.895,-5.8752,-5.8571,-5.7741,-5.6975,-5.6851,-5.5913,-5.5008,-5.4795,-5.4189,-5.3778,-5.3849,-5.4099,-5.3778,-5.3564,-5.4206,-5.4063,-5.31,-5.2208,-5.123,-5.0076,-4.8841,-4.8175,-4.7854,-4.739,-4.6962,-4.6605,-4.6141,-4.5641,-4.5265,-4.4946,-4.4871,-4.4998,-4.5187,-4.5651,-4.5741,-4.5413,-4.5268,-4.5273,-4.4862,-4.4708,-4.4685,-4.4764,-4.484,-4.4889,-4.4876,-4.4876,-4.4876,-4.4876,-4.4876,-4.4876,-4.4724,-4.4573,-4.4421,-4.3929,-4.3459,-4.3491,-4.2981,-4.2623,-4.2324,-4.1905,-4.1411,-4.0971,-4.0549,-4.0414,-4.0355,-4.0463,-4.0501,-4.0473,-4.0728,-4.1111,-4.1152,-4.1065,-4.081,-4.081,-4.081,-4.081,-4.081,-4.081,-4.081,-4.081,-4.081,-4.081,-4.0822,-4.0796,-4.0781,-4.0815,-4.0837,-4.1101,-6.4432,-6.4432,-6.4763,-6.4929,-6.4995,-6.526,-6.5425,-6.5425,-6.5425,-6.5028,-6.4266,-6.3053,-6.2049,-6.114,-5.9789,-5.9235,-5.9247,-5.9254,-5.9183,-5.9251,-5.9081,-5.9012,-5.9081,-5.9319,-5.952,-5.9551,-5.9399,-5.9271,-5.8985,-5.8471,-5.7907,-5.7519,-5.6878,-5.613,-5.5455,-5.5098,-5.4706,-5.4135,-5.442,-5.4349,-5.4242,-5.4706,-5.4991,-5.3885,-5.2886,-5.1872,-5.1052,-4.9946,-4.8996,-4.8306,-4.7818,-4.7354,-4.7033,-4.6605,-4.6212,-4.5793,-4.576,-4.5477,-4.5539,-4.5773,-4.6096,-4.652,-4.6259,-4.5971,-4.5715,-4.5341,-4.5074,-4.4825,-4.4789,-4.4889,-4.4914,-4.4876,-4.4876,-4.4876,-4.4876,-4.4876,-4.4876,-4.4876,-4.4876,-4.4838,-4.4521,-4.4379,-4.4159,-4.3688,-4.3488,-4.3361,-4.3111,-4.2595,-4.2062,-4.1639,-4.1199,-4.1119,-4.119,-4.1212,-4.1068,-4.1323,-4.189,-4.1809,-4.1542,-4.1184,-4.0887,-4.0848,-4.081,-4.081,-4.0848,-4.081,-4.081,-4.081,-4.0926,-4.0861,-4.0873,-4.0831,-4.0854,-4.1003,-4.1383,-6.3338,-6.3471,-6.4001,-6.4266,-6.4465,-6.4862,-6.4995,-6.5028,-6.4962,-6.4365,-6.3902,-6.3259,-6.1667,-6.0738,-5.9977,-5.9321,-5.908,-5.9183,-5.9386,-5.9319,-5.9149,-5.9219,-5.9288,-5.9525,-5.9725,-5.9725,-5.9714,-5.9714,-5.9637,-5.937,-5.8639,-5.8003,-5.8131,-5.7311,-5.6097,-5.5955,-5.5847,-5.5062,-5.4848,-5.4741,-5.5027,-5.5277,-5.5348,-5.4813,-5.4028,-5.285,-5.1993,-5.0994,-4.9959,-4.8485,-4.8282,-4.7747,-4.7212,-4.6962,-4.6748,-4.6034,-4.6298,-4.6308,-4.6194,-4.6323,-4.6685,-4.6847,-4.6925,-4.678,-4.6344,-4.5961,-4.558,-4.5217,-4.4991,-4.4914,-4.4876,-4.4876,-4.4876,-4.4876,-4.4876,-4.4876,-4.4876,-4.4876,-4.4876,-4.4876,-4.4787,-4.4759,-4.4867,-4.4706,-4.4543,-4.434,-4.4069,-4.3764,-4.317,-4.2616,-4.21,-4.1791,-4.1841,-4.2265,-4.2235,-4.2011,-4.2552,-4.2611,-4.2251,-4.1674,-4.1158,-4.0887,-4.0848,-4.0887,-4.0887,-4.0965,-4.1235,-4.1545,-4.1506,-4.117,-4.135,-4.1773,-4.164,-4.1313,-4.1859,-6.3637,-6.4167,-6.367,-6.3802,-6.4233,-6.3868,-6.3703,-6.3537,-6.3107,-6.2676,-6.2463,-6.1351,-6.0898,-6.0348,-5.9776,-5.9382,-5.939,-5.9453,-5.952,-5.9488,-5.9388,-5.9495,-5.9806,-5.9768,-5.9937,-6.0279,-6.0198,-6.0093,-6.0123,-5.9724,-5.9159,-5.8538,-5.8167,-5.7489,-5.6989,-5.6775,-5.6704,-5.6347,-5.6026,-5.5776,-5.5491,-5.5776,-5.5847,-5.5384,-5.4777,-5.3992,-5.285,-5.1922,-5.078,-4.9281,-4.8532,-4.7818,-4.7293,-4.7033,-4.689,-4.6838,-4.6988,-4.7108,-4.7215,-4.7756,-4.8233,-4.8397,-4.8178,-4.7958,-4.7513,-4.6797,-4.621,-4.576,-4.5281,-4.4952,-4.4914,-4.4876,-4.4876,-4.4876,-4.4876,-4.4876,-4.4876,-4.4876,-4.4876,-4.4876,-4.4938,-4.4986,-4.5057,-4.5148,-4.4963,-4.4722,-4.4493,-4.4281,-4.3937,-4.3344,-4.2789,-4.2557,-4.2455,-4.3014,-4.3479,-4.3158,-4.3217,-4.3412,-4.3101,-4.2331,-4.1777,-4.1158,-4.0965,-4.1351,-4.1545,-4.1661,-4.197,-4.228,-4.2434,-4.228,-4.2601,-4.2869,-4.2571,-4.2322,-4.3052,-6.2345,-6.2676,-6.2676,-6.2908,-6.3206,-6.3272,-6.304,-6.2676,-6.2481,-6.1883,-6.1268,-6.0698,-6.0169,-5.9818,-5.9553,-5.9528,-5.9659,-5.9621,-5.9621,-5.9589,-5.9802,-5.9944,-6.0255,-6.0046,-6.0286,-6.0421,-6.0233,-6.0199,-6.0512,-6.0255,-5.955,-5.8873,-5.8667,-5.8238,-5.7382,-5.7438,-5.7259,-5.7223,-5.6937,-5.6616,-5.5883,-5.6276,-5.6097,-5.5883,-5.5419,-5.4813,-5.4135,-5.285,-5.1815,-5.0602,-4.9424,-4.8472,-4.7803,-4.7303,-4.7088,-4.7133,-4.7356,-4.7663,-4.7955,-4.8458,-4.8816,-4.9048,-4.894,-4.8687,-4.8352,-4.7692,-4.6955,-4.624,-4.5912,-4.5369,-4.4952,-4.4914,-4.4876,-4.4876,-4.4876,-4.4876,-4.4876,-4.4876,-4.4876,-4.4876,-4.4962,-4.501,-4.508,-4.5148,-4.5192,-4.5082,-4.4857,-4.4704,-4.4569,-4.4166,-4.359,-4.3357,-4.3276,-4.3704,-4.4284,-4.423,-4.3926,-4.4083,-4.3912,-4.3156,-4.2667,-4.2125,-4.2086,-4.2357,-4.2434,-4.2434,-4.2628,-4.2937,-4.3169,-4.3401,-4.3324,-4.3323,-4.3335,-4.3513,-4.4139,-6.1119,-6.1152,-6.1633,-6.1832,-6.1899,-6.2348,-6.2182,-6.1717,-6.1567,-6.0965,-6.0144,-5.998,-5.9582,-5.9146,-5.9347,-5.9667,-5.9879,-5.9783,-5.9753,-5.969,-5.9974,-6.0186,-6.029,-6.0255,-6.0323,-6.056,-6.0133,-6.0072,-6.0485,-6.0477,-5.981,-5.9064,-5.9322,-5.8774,-5.7311,-5.7707,-5.7438,-5.7438,-5.7207,-5.7135,-5.6616,-5.6383,-5.6276,-5.6204,-5.5669,-5.5312,-5.4598,-5.3992,-5.2779,-5.1565,-5.0365,-4.9198,-4.836,-4.7617,-4.7259,-4.7312,-4.745,-4.7788,-4.8114,-4.8605,-4.8959,-4.9225,-4.9514,-4.9257,-4.89,-4.8466,-4.7953,-4.6784,-4.6165,-4.5899,-4.5369,-4.5028,-4.4914,-4.4876,-4.4876,-4.4876,-4.4876,-4.4876,-4.4876,-4.4938,-4.4962,-4.501,-4.5057,-4.508,-4.5125,-4.517,-4.4963,-4.4985,-4.4887,-4.4925,-4.4538,-4.4271,-4.4233,-4.4527,-4.4898,-4.517,-4.491,-4.4778,-4.4544,-4.3968,-4.3595,-4.3247,-4.3285,-4.3247,-4.3208,-4.3208,-4.3401,-4.3711,-4.4175,-4.4305,-4.3983,-4.3957,-4.433,-4.4444,-4.4749,-6.1119,-6.1053,-6.0654,-6.0503,-6.0517,-6.0278,-5.999,-5.9889,-5.9443,-5.892,-5.9001,-5.8699,-5.8651,-5.8802,-5.9457,-5.9818,-6.0043,-6.0171,-6.0043,-5.9818,-5.9931,-6.0147,-6.0186,-5.9632,-6.0149,-6.0491,-6.0067,-6.0078,-6.036,-6.0583,-5.9856,-5.8899,-5.8716,-5.831,-5.7346,-5.7636,-5.7958,-5.8188,-5.7815,-5.7207,-5.6616,-5.6418,-5.6026,-5.5705,-5.574,-5.5491,-5.4563,-5.4242,-5.3742,-5.1937,-5.1021,-4.9818,-4.8504,-4.7626,-4.7479,-4.7615,-4.7747,-4.7951,-4.8269,-4.8678,-4.903,-4.9225,-4.9514,-4.955,-4.9372,-4.8975,-4.8412,-4.7416,-4.6733,-4.6203,-4.5862,-4.5369,-4.5028,-4.4876,-4.4876,-4.4876,-4.4876,-4.4876,-4.4876,-4.4876,-4.4938,-4.4962,-4.501,-4.5033,-4.5057,-4.5103,-4.5125,-4.5125,-4.5125,-4.5125,-4.5103,-4.4737,-4.4652,-4.4887,-4.509,-4.5438,-4.5505,-4.5372,-4.5085,-4.4717,-4.4485,-4.4214,-4.4098,-4.4059,-4.402,-4.4098,-4.433,-4.4717,-4.5258,-4.5247,-4.4925,-4.5157,-4.5622,-4.5634,-4.5409,-5.9657,-5.999,-5.9738,-5.9764,-5.9968,-5.9711,-5.9497,-5.9237,-5.9136,-5.8849,-5.8608,-5.8804,-5.9046,-5.9383,-5.9943,-6.0135,-6.0234,-6.0396,-6.0171,-6.0019,-6.0167,-6.0352,-6.0289,-6.015,-6.0323,-6.0352,-6.0105,-5.9849,-6.0171,-6.0344,-5.9891,-5.8756,-5.8552,-5.8096,-5.7275,-5.7441,-5.7743,-5.7866,-5.7723,-5.7438,-5.708,-5.6597,-5.6026,-5.5277,-5.5562,-5.5062,-5.4456,-5.4242,-5.3937,-5.2523,-5.1786,-5.0701,-4.9441,-4.856,-4.8078,-4.7829,-4.7911,-4.8111,-4.8421,-4.8785,-4.9027,-4.9327,-4.9544,-4.9721,-4.9731,-4.9549,-4.9007,-4.8211,-4.7832,-4.7264,-4.6468,-4.5862,-4.5407,-4.5103,-4.4952,-4.4876,-4.4876,-4.4876,-4.4876,-4.4876,-4.4914,-4.4938,-4.4962,-4.4986,-4.5033,-4.5057,-4.5103,-4.5103,-4.5103,-4.508,-4.5033,-4.4887,-4.4966,-4.5115,-4.5263,-4.5457,-4.5637,-4.558,-4.5602,-4.5336,-4.5297,-4.5104,-4.491,-4.4949,-4.5065,-4.5181,-4.5297,-4.5388,-4.5634,-4.5738,-4.5867,-4.5867,-4.5919,-4.5917,-4.577,-5.7863,-5.8351,-5.8552,-5.8773,-5.9152,-5.9302,-5.9214,-5.9162,-5.937,-5.9173,-5.9013,-5.9282,-5.9844,-6.0199,-6.0388,-6.045,-6.0485,-6.0423,-6.0234,-6.0253,-6.0338,-6.045,-6.025,-6.0217,-6.0252,-6.0523,-5.9899,-5.9818,-6.0107,-6.0282,-5.9962,-5.8769,-5.873,-5.806,-5.7259,-5.7278,-5.7763,-5.8009,-5.8045,-5.7922,-5.7564,-5.6904,-5.6152,-5.5615,-5.524,-5.4954,-5.4258,-5.4418,-5.4148,-5.3396,-5.2723,-5.167,-5.0371,-4.9234,-4.8502,-4.817,-4.8032,-4.8267,-4.8569,-4.8855,-4.9057,-4.9321,-4.9642,-4.9788,-4.9852,-4.9879,-4.9728,-4.9007,-4.8628,-4.7908,-4.7112,-4.6544,-4.5862,-4.5407,-4.5066,-4.499,-4.4914,-4.499,-4.4952,-4.4876,-4.4876,-4.4876,-4.4938,-4.4962,-4.501,-4.5033,-4.5057,-4.5057,-4.5033,-4.5033,-4.4986,-4.4938,-4.508,-4.5192,-4.5301,-4.5457,-4.5599,-4.575,-4.5771,-4.5761,-4.5606,-4.5606,-4.5529,-4.5684,-4.58,-4.5722,-4.5529,-4.5711,-4.5893,-4.5906,-4.5867,-4.588,-4.5905,-4.598,-4.6014,-5.5984,-5.5984,-5.6588,-5.7036,-5.7423,-5.781,-5.853,-5.9114,-5.932,-5.9488,-5.9609,-6.0072,-6.0352,-6.0661,-6.0757,-6.0757,-6.0757,-6.0635,-6.0485,-6.0234,-6.0078,-5.9988,-5.9927,-5.9795,-5.9693,-5.9857,-5.9753,-5.9783,-6.0107,-6.0423,-6.0017,-5.943,-5.8921,-5.8253,-5.7723,-5.7493,-5.7906,-5.8244,-5.855,-5.8355,-5.7891,-5.728,-5.6593,-5.5857,-5.5605,-5.5317,-5.4379,-5.484,-5.482,-5.4015,-5.359,-5.2654,-5.123,-5.0061,-4.918,-4.847,-4.8226,-4.8457,-4.8714,-4.889,-4.9027,-4.9225,-4.9514,-4.9778,-4.9879,-4.9879,-4.9803,-4.9652,-4.9197,-4.8742,-4.7984,-4.7302,-4.6582,-4.6089,-4.5786,-4.5596,-4.5445,-4.5179,-4.5141,-4.4952,-4.4876,-4.4876,-4.4876,-4.49,-4.49,-4.4986,-4.4986,-4.4986,-4.4962,-4.4962,-4.4938,-4.4962,-4.5103,-4.5235,-4.5321,-4.5475,-4.5632,-4.5727,-4.5786,-4.58,-4.5761,-4.58,-4.58,-4.58,-4.58,-4.58,-4.5814,-4.5841,-4.5906,-4.5906,-4.5919,-4.5917,-4.5941,-4.5975,-4.6046,-5.5103,-5.511,-5.5414,-5.6059,-5.7051,-5.7317,-5.7816,-5.8317,-5.8514,-5.9038,-5.976,-6.0316,-6.0757,-6.0938,-6.0938,-6.0938,-6.0782,-6.0757,-6.0609,-6.0423,-6.0234,-6.0008,-5.9879,-5.9748,-5.9683,-5.9814,-5.9748,-5.9849,-6.0107,-6.0423,-6.0441,-5.9927,-5.917,-5.8324,-5.7866,-5.7652,-5.783,-5.8192,-5.8697,-5.8735,-5.8178,-5.7991,-5.7347,-5.6102,-5.5993,-5.5207,-5.4179,-5.4611,-5.4445,-5.4242,-5.4231,-5.3385,-5.2363,-5.1188,-5.0076,-4.9069,-4.8748,-4.8643,-4.882,-4.903,-4.9197,-4.949,-4.9701,-4.9807,-4.9879,-4.9879,-4.9879,-4.9765,-4.9614,-4.9235,-4.8553,-4.8098,-4.7643,-4.7074,-4.6657,-4.6354,-4.6127,-4.5862,-4.571,-4.571,-4.5255,-4.4876,-4.4876,-4.4876,-4.4876,-4.4914,-4.4876,-4.4876,-4.4876,-4.4876,-4.4876,-4.4962,-4.5103,-4.5256,-4.5341,-4.5512,-4.5665,-4.5727,-4.5786,-4.58,-4.58,-4.58,-4.58,-4.58,-4.5814,-4.5814,-4.5827,-4.5867,-4.588,-4.5893,-4.5929,-4.5975,-4.5997,-4.6017,-4.6076,-5.4669,-5.4764,-5.4793,-5.5598,-5.6808,-5.7032,-5.7482,-5.7938,-5.8164,-5.8781,-5.9773,-6.0333,-6.076,-6.1022,-6.1093,-6.1034,-6.0938,-6.0818,-6.0696,-6.0547,-6.0423,-6.0234,-6.0008,-5.9879,-5.9779,-5.9879,-5.9814,-5.9879,-6.0107,-6.0423,-6.0512,-6.0139,-5.9384,-5.8467,-5.8131,-5.7917,-5.7973,-5.8319,-5.9006,-5.9294,-5.8854,-5.8737,-5.8251,-5.6937,-5.6656,-5.5978,-5.5025,-5.5051,-5.5025,-5.488,-5.4818,-5.451,-5.3661,-5.2657,-5.1495,-5.0333,-4.9492,-4.9119,-4.9068,-4.9197,-4.939,-4.9709,-4.9759,-4.9835,-4.9852,-4.9879,-4.9879,-4.9879,-4.9841,-4.9652,-4.8969,-4.8704,-4.8363,-4.7757,-4.7264,-4.6923,-4.6885,-4.6695,-4.662,-4.6544,-4.5937,-4.5369,-4.5217,-4.5179,-4.4876,-4.4876,-4.4876,-4.4876,-4.4876,-4.4876,-4.4876,-4.4948,-4.508,-4.5197,-4.5361,-4.5512,-4.5648,-4.5765,-4.5824,-4.58,-4.58,-4.58,-4.58,-4.58,-4.5814,-4.5814,-4.5854,-4.5893,-4.5905,-4.5905,-4.5964,-4.6017,-4.6066,-4.6076,-4.6104,-5.4795,-5.4745,-5.5079,-5.5654,-5.6449,-5.687,-5.7552,-5.8165,-5.8459,-5.8966,-5.9594,-5.9916,-6.0415,-6.0879,-6.0986,-6.1093,-6.1093,-6.0938,-6.0818,-6.0757,-6.0671,-6.0458,-6.0297,-6.0135,-6.0135,-6.0008,-6.0072,-6.0072,-6.0135,-6.045,-6.0609,-6.0306,-5.9419,-5.8524,-5.8631,-5.8667,-5.8836,-5.9221,-6.0124,-6.0243,-5.9784,-5.9549,-5.898,-5.7941,-5.7405,-5.6846,-5.6218,-5.5595,-5.5668,-5.6071,-5.564,-5.5471,-5.5374,-5.4252,-5.2892,-5.1267,-5.0633,-5.0019,-4.9402,-4.939,-4.9574,-4.9788,-4.9835,-4.9862,-4.9879,-4.9879,-4.9879,-4.9879,-4.9879,-4.9879,-4.9538,-4.9235,-4.8856,-4.8553,-4.806,-4.787,-4.7832,-4.7567,-4.7453,-4.7302,-4.6695,-4.6127,-4.5824,-4.552,-4.5066,-4.4876,-4.4876,-4.4876,-4.4876,-4.4876,-4.4876,-4.4962,-4.5057,-4.5175,-4.5341,-4.5512,-4.5648,-4.5765,-4.5824,-4.5852,-4.5814,-4.5814,-4.5814,-4.5814,-4.5827,-4.588,-4.5919,-4.5956,-4.5968,-4.5953,-4.6046,-4.6085,-4.6124,-4.6143,-4.613,-5.489,-5.5079,-5.5496,-5.5905,-5.6268,-5.6475,-5.673,-5.7127,-5.7703,-5.8152,-5.8601,-5.9366,-6.0023,-6.038,-6.0902,-6.1117,-6.1211,-6.1176,-6.1117,-6.1117,-6.1034,-6.0974,-6.0854,-6.0732,-6.0574,-6.0574,-6.0477,-6.0388,-6.0423,-6.0635,-6.0696,-6.0427,-5.9701,-5.8315,-5.7763,-5.7782,-5.8358,-5.8931,-6.0056,-6.0724,-5.9832,-6.0129,-5.9863,-5.8554,-5.8317,-5.7867,-5.7174,-5.6478,-5.6515,-5.6958,-5.6487,-5.6348,-5.6614,-5.5843,-5.4466,-5.2787,-5.1799,-5.0804,-5.0026,-4.9655,-4.975,-4.9872,-4.989,-4.989,-4.9879,-4.9879,-4.9879,-4.9879,-4.9879,-4.9879,-4.9728,-4.969,-4.9462,-4.95,-4.9235,-4.9197,-4.9083,-4.8553,-4.8249,-4.8022,-4.7567,-4.6695,-4.6203,-4.571,-4.5255,-4.4914,-4.4876,-4.4876,-4.4876,-4.4876,-4.4876,-4.4962,-4.5033,-4.5154,-4.5283,-4.5494,-4.5648,-4.5781,-4.5838,-4.588,-4.588,-4.5841,-4.5841,-4.5841,-4.5893,-4.5906,-4.5956,-4.5991,-4.6014,-4.6046,-4.6115,-4.6143,-4.6152,-4.6169,-4.6201,-5.5139,-5.5555,-5.5957,-5.6237,-5.6437,-5.6364,-5.6328,-5.649,-5.6954,-5.735,-5.7834,-5.8744,-5.9509,-5.9996,-6.0554,-6.1243,-6.1466,-6.1523,-6.1523,-6.1523,-6.1466,-6.135,-6.1292,-6.1234,-6.1058,-6.0962,-6.0903,-6.0818,-6.0635,-6.0757,-6.0878,-6.0772,-6.0232,-5.9562,-5.8808,-5.8789,-5.8822,-5.9619,-6.0847,-6.1569,-6.0969,-6.0722,-6.0529,-5.9525,-5.8974,-5.8681,-5.7965,-5.7441,-5.7146,-5.7486,-5.7265,-5.7117,-5.7529,-5.708,-5.5955,-5.4562,-5.3043,-5.2039,-5.1101,-5.0402,-5.0468,-5.042,-5.0107,-4.9917,-4.9879,-4.9879,-4.9879,-4.9879,-4.9879,-4.9879,-4.9879,-4.9879,-4.9879,-4.9879,-4.9841,-4.9803,-4.969,-4.9121,-4.9007,-4.878,-4.8287,-4.7378,-4.6468,-4.5937,-4.5407,-4.5141,-4.4876,-4.4876,-4.4876,-4.4876,-4.4876,-4.4962,-4.5033,-4.5132,-4.5301,-4.5495,-4.5654,-4.581,-4.5866,-4.5906,-4.5919,-4.588,-4.588,-4.5919,-4.5932,-4.5956,-4.5953,-4.6025,-4.6046,-4.6076,-4.6143,-4.616,-4.6122,-4.6185,-4.6215,-5.5613,-5.6126,-5.6456,-5.6812,-5.6969,-5.6653,-5.6527,-5.6473,-5.6473,-5.694,-5.7603,-5.7836,-5.8788,-5.9973,-6.0483,-6.1154,-6.1787,-6.1969,-6.2024,-6.1969,-6.1914,-6.1823,-6.1768,-6.1656,-6.16,-6.1372,-6.1257,-6.1257,-6.0938,-6.0998,-6.1176,-6.1279,-6.1148,-6.0702,-6.0336,-6.0092,-5.9976,-6.0677,-6.1728,-6.2224,-6.1863,-6.1651,-6.1027,-6.0174,-5.9661,-5.9365,-5.8802,-5.8353,-5.8503,-5.8351,-5.778,-5.8159,-5.8234,-5.782,-5.7328,-5.6267,-5.4547,-5.3202,-5.2163,-5.1405,-5.1092,-5.0865,-5.0296,-5.0031,-4.9879,-4.9879,-4.9879,-4.9879,-4.9879,-4.9879,-4.9879,-4.9879,-4.9879,-4.9879,-4.9879,-4.9879,-4.9879,-4.9728,-4.9728,-4.9424,-4.8894,-4.806,-4.7036,-4.6354,-4.5824,-4.5407,-4.5141,-4.4876,-4.4876,-4.4876,-4.4876,-4.4962,-4.5033,-4.517,-4.5319,-4.5514,-4.5671,-4.5786,-4.5893,-4.5932,-4.5905,-4.5956,-4.5917,-4.5956,-4.598,-4.6003,-4.6035,-4.6056,-4.6085,-4.6113,-4.6169,-4.6169,-4.6177,-4.6193,-4.6215,-5.6257,-5.6776,-5.7036,-5.7289,-5.7424,-5.7289,-5.7165,-5.6975,-5.6956,-5.7165,-5.7309,-5.8011,-5.8822,-5.9905,-6.0574,-6.1422,-6.2,-6.2397,-6.25,-6.25,-6.2449,-6.25,-6.2449,-6.236,-6.2308,-6.2202,-6.2041,-6.1823,-6.1692,-6.1579,-6.1579,-6.1768,-6.1734,-6.1579,-6.1492,-6.1374,-6.1397,-6.1687,-6.2751,-6.2743,-6.2591,-6.2332,-6.1479,-6.0706,-6.0341,-5.9966,-5.9477,-5.8798,-5.8907,-5.9163,-5.7985,-5.8023,-5.9412,-5.8732,-5.7932,-5.6343,-5.4671,-5.3261,-5.2494,-5.1698,-5.1282,-5.1158,-5.0475,-4.9993,-4.9879,-4.9879,-4.9917,-5.0031,-5.0069,-5.0107,-5.0144,-5.0107,-4.9993,-4.9917,-4.9917,-4.9879,-4.9879,-4.9879,-4.9879,-4.9728,-4.9197,-4.8704,-4.7643,-4.6847,-4.6354,-4.5862,-4.5483,-4.5255,-4.499,-4.499,-4.4962,-4.4986,-4.5042,-4.5175,-4.5341,-4.5512,-4.568,-4.58,-4.5867,-4.6007,-4.6147,-4.6147,-4.603,-4.6042,-4.6102,-4.6124,-4.6105,-4.6134,-4.6152,-4.6169,-4.6185,-4.6185,-4.6193,-4.6208,-4.6215,-5.6897,-5.7375,-5.7534,-5.7763,-5.7904,-5.7904,-5.7813,-5.7665,-5.7447,-5.7351,-5.7449,-5.791,-5.8651,-5.9502,-6.0418,-6.1323,-6.2205,-6.2658,-6.2855,-6.2904,-6.2953,-6.2941,-6.2941,-6.2953,-6.2831,-6.2732,-6.2581,-6.2344,-6.2149,-6.2096,-6.2132,-6.2748,-6.2339,-6.2485,-6.2684,-6.2951,-6.2835,-6.2891,-6.3094,-6.3148,-6.3059,-6.2822,-6.201,-6.1459,-6.1131,-6.0489,-6.0035,-5.9314,-5.9341,-5.9635,-5.8419,-5.8494,-5.9696,-5.9355,-5.8407,-5.6967,-5.6057,-5.4731,-5.3745,-5.2798,-5.2182,-5.1537,-5.0892,-5.0334,-4.9993,-4.9879,-5.0144,-5.0372,-5.041,-5.0448,-5.0448,-5.0372,-5.0144,-4.9955,-4.9917,-4.9879,-4.9879,-4.9879,-4.9841,-4.9803,-4.95,-4.9083,-4.8401,-4.7567,-4.6999,-4.6695,-4.6506,-4.6354,-4.5824,-4.5293,-4.5138,-4.5033,-4.5109,-4.5201,-4.54,-4.562,-4.5727,-4.5854,-4.5929,-4.6091,-4.6307,-4.6551,-4.6639,-4.6494,-4.6309,-4.6241,-4.6134,-4.6152,-4.6177,-4.6185,-4.6193,-4.6201,-4.6201,-4.6208,-4.6215,-5.7486,-5.7857,-5.7997,-5.8179,-5.8393,-5.8393,-5.8356,-5.8363,-5.7914,-5.7664,-5.773,-5.7831,-5.837,-5.9381,-6.0331,-6.1198,-6.2103,-6.2815,-6.3194,-6.3231,-6.3231,-6.3231,-6.3231,-6.3158,-6.2825,-6.2862,-6.2597,-6.2168,-6.2318,-6.236,-6.2777,-6.3753,-6.3686,-6.3591,-6.3675,-6.3891,-6.365,-6.34,-6.349,-6.3535,-6.3519,-6.3238,-6.2762,-6.2551,-6.177,-6.0936,-6.0707,-6.032,-5.9885,-5.962,-5.9322,-5.9095,-5.9393,-5.9582,-5.8635,-5.7763,-5.6815,-5.583,-5.4693,-5.3707,-5.311,-5.2494,-5.1774,-5.113,-5.0751,-5.0334,-5.0561,-5.0903,-5.0978,-5.0978,-5.094,-5.0789,-5.0599,-5.0182,-4.9917,-4.9879,-4.9879,-4.9879,-4.9879,-4.9841,-4.9765,-4.9386,-4.9083,-4.8287,-4.7795,-4.7567,-4.7226,-4.7112,-4.6834,-4.6038,-4.5859,-4.5612,-4.5535,-4.5663,-4.5744,-4.5918,-4.5824,-4.5932,-4.6119,-4.6434,-4.6844,-4.7097,-4.7358,-4.6999,-4.6562,-4.6268,-4.616,-4.6169,-4.6177,-4.6193,-4.6201,-4.6208,-4.6215,-4.6215,-4.6215,-5.796,-5.8186,-5.8443,-5.8572,-5.8651,-5.8651,-5.8614,-5.8614,-5.8529,-5.8363,-5.8201,-5.8305,-5.871,-5.9538,-6.0359,-6.1217,-6.216,-6.2826,-6.34,-6.3465,-6.3465,-6.3308,-6.3317,-6.2863,-6.2658,-6.2324,-6.2003,-6.1845,-6.2132,-6.2524,-6.2892,-6.3346,-6.3516,-6.3733,-6.3873,-6.3919,-6.3779,-6.3602,-6.3691,-6.3736,-6.3749,-6.3686,-6.3435,-6.2966,-6.2146,-6.1466,-6.1082,-6.0316,-6.0037,-5.9772,-5.9095,-5.8906,-5.8938,-5.9014,-5.8445,-5.7535,-5.6822,-5.5951,-5.5117,-5.4246,-5.3678,-5.3261,-5.2655,-5.2201,-5.1736,-5.1206,-5.1092,-5.1395,-5.1585,-5.1585,-5.1433,-5.1244,-5.0903,-5.0372,-4.9879,-4.9879,-4.9879,-4.9879,-4.9879,-4.9879,-4.9879,-4.9728,-4.9462,-4.9159,-4.8704,-4.8174,-4.7605,-4.7403,-4.7543,-4.7188,-4.7314,-4.7006,-4.6396,-4.6355,-4.6376,-4.6414,-4.651,-4.6577,-4.6763,-4.7105,-4.7456,-4.7534,-4.766,-4.7193,-4.6795,-4.6376,-4.6104,-4.6113,-4.613,-4.6138,-4.6201,-4.6201,-4.6208,-4.6215,-4.6215,-5.8535,-5.8702,-5.8739,-5.8818,-5.8777,-5.8735,-5.8698,-5.8698,-5.8698,-5.8656,-5.8535,-5.8566,-5.8826,-5.943,-6.0172,-6.0988,-6.193,-6.271,-6.3185,-6.349,-6.3453,-6.3297,-6.3,-6.2517,-6.216,-6.1788,-6.1804,-6.1846,-6.2022,-6.2751,-6.3242,-6.3299,-6.3391,-6.3437,-6.3565,-6.3565,-6.3565,-6.3602,-6.3698,-6.3823,-6.383,-6.3841,-6.3934,-6.3383,-6.2899,-6.2183,-6.1498,-6.0732,-6.0198,-5.9895,-5.9303,-5.8883,-5.8769,-5.8618,-5.79,-5.6992,-5.6236,-5.5668,-5.4943,-5.4413,-5.3959,-5.3581,-5.3316,-5.2853,-5.239,-5.1973,-5.2419,-5.2722,-5.276,-5.276,-5.2153,-5.185,-5.1016,-5.0334,-5.0031,-4.9879,-4.9879,-4.9879,-4.9879,-4.9879,-4.9879,-4.9841,-4.9652,-4.9652,-4.9273,-4.9261,-4.8617,-4.8453,-4.8504,-4.8327,-4.8427,-4.8386,-4.7701,-4.7336,-4.7353,-4.7388,-4.7337,-4.743,-4.7462,-4.8098,-4.8555,-4.8156,-4.7884,-4.767,-4.7144,-4.625,-4.6056,-4.6105,-4.6076,-4.6085,-4.6113,-4.6138,-4.6193,-4.6286,-4.6332,-5.9101,-5.9177,-5.902,-5.8899,-5.8859,-5.8739,-5.8698,-5.8698,-5.8698,-5.8698,-5.8656,-5.8656,-5.8698,-5.8958,-5.9552,-6.0295,-6.1076,-6.1893,-6.2636,-6.297,-6.3082,-6.2703,-6.2287,-6.1997,-6.1342,-6.1156,-6.1255,-6.1515,-6.1693,-6.239,-6.2835,-6.3222,-6.3305,-6.3267,-6.3342,-6.3379,-6.3267,-6.3238,-6.337,-6.368,-6.3841,-6.4004,-6.4091,-6.3988,-6.3653,-6.2936,-6.214,-6.1379,-6.0543,-5.9983,-5.9537,-5.9084,-5.8518,-5.8212,-5.7272,-5.6404,-5.5799,-5.5309,-5.4856,-5.4661,-5.4238,-5.3929,-5.3709,-5.3475,-5.3043,-5.3185,-5.3669,-5.3783,-5.3821,-5.3518,-5.2911,-5.2153,-5.1282,-5.0448,-5.0182,-4.9879,-4.9879,-4.9879,-4.9879,-4.9879,-4.9879,-4.9879,-4.9906,-4.9906,-4.9906,-4.9906,-4.9959,-4.9986,-4.9886,-4.9518,-4.9377,-4.9296,-4.893,-4.8682,-4.839,-4.8128,-4.799,-4.8128,-4.8269,-4.9137,-4.9605,-4.9109,-4.8727,-4.8444,-4.78,-4.6717,-4.6162,-4.6135,-4.6108,-4.6102,-4.6027,-4.6152,-4.6621,-4.6676,-4.6566,-5.9363,-5.9253,-5.9063,-5.8942,-5.8899,-5.8739,-5.8698,-5.8698,-5.8698,-5.8698,-5.8698,-5.8698,-5.8698,-5.8772,-5.9552,-6.0147,-6.0407,-6.1113,-6.1373,-6.1633,-6.1967,-6.173,-6.1315,-6.0884,-5.9961,-5.9961,-6.0258,-6.0407,-6.115,-6.1552,-6.1663,-6.1819,-6.1781,-6.1781,-6.1856,-6.2041,-6.2457,-6.2507,-6.3158,-6.3617,-6.3402,-6.3675,-6.4169,-6.4027,-6.3691,-6.2899,-6.2142,-6.1385,-6.0554,-5.9915,-5.9505,-5.909,-5.8415,-5.7736,-5.687,-5.6007,-5.54,-5.4985,-5.4646,-5.4641,-5.4333,-5.4427,-5.4352,-5.4375,-5.4141,-5.4238,-5.4503,-5.4503,-5.4427,-5.4086,-5.348,-5.2646,-5.1774,-5.0865,-5.0372,-5.0069,-4.9879,-4.9879,-4.9879,-4.9879,-4.9879,-4.9906,-4.9906,-4.9933,-4.9959,-5.0024,-5.0038,-5.0063,-5.0114,-5.0163,-5.025,-5.0054,-4.9854,-4.9635,-4.9221,-4.868,-4.8514,-4.8701,-4.9032,-4.9756,-5.0103,-4.9936,-4.9601,-4.9084,-4.8205,-4.7119,-4.6731,-4.6472,-4.6306,-4.6305,-4.6091,-4.6183,-4.6783,-4.7213,-4.7221]}]]